Date StartTime U_cm/s V_cm/s W_cm/s Ustd_cm/s Vstd_cm/s Wstd_cm/s Uvar_(cm/s)^2 Vvar_(cm/s)^2 Wvar_(cm/s)^2 KE_(m/s)^2 TurbulentKE_(m/s)^2 HorizWindSpeed_cm/s FrictionSpeec_cm/s DragCoef SpeedOfSound_m/s SonicTemperature_C Pressure_mb 
12/24/2013  00:00:00       17.040       87.643      -12.122       13.276       23.011       11.361      176.243      529.485      129.065        0.448        0.042       89.284       10.297        0.013      333.535        2.913      872.211
12/24/2013  00:01:00       -9.489       80.473       -8.183       19.044       19.140       10.643      362.681      366.354      113.273        0.374        0.042       81.030       11.371        0.020      333.534        2.912      872.194
12/24/2013  00:02:00      -40.990        6.016       -3.840       20.414       23.734        6.406      416.714      563.295       41.043        0.138        0.051       41.429        9.084        0.048      333.066        2.138      872.181
12/24/2013  00:03:00      -64.788      -12.212      -12.970       13.273       15.920        9.283      176.174      253.434       86.179        0.252        0.026       65.929        5.836        0.008      332.866        1.808      872.164
12/24/2013  00:04:00      -56.480      -38.274      -12.068       13.515        9.234        6.947      182.668       85.274       48.258        0.256        0.016       68.227        2.671        0.002      332.898        1.861      872.142
12/24/2013  00:05:00      -47.513      -38.263       -6.094        8.537        6.493        7.364       72.884       42.156       54.233        0.196        0.008       61.004        6.279        0.011      333.162        2.297      872.129
12/24/2013  00:06:00      -62.568       -7.948      -13.063        8.940        9.226        5.907       79.930       85.111       34.896        0.217        0.010       63.071        2.502        0.002      332.993        2.017      872.130
12/24/2013  00:07:00      -78.727        2.287       -8.053        9.470        6.539        8.123       89.685       42.763       65.989        0.323        0.010       78.760        4.443        0.003      332.918        1.896      872.147
12/24/2013  00:08:00      -82.794        5.051       -7.127       20.618       11.855       14.674      425.098      140.549      215.336        0.386        0.039       82.948       10.811        0.017      332.958        1.959      872.168
12/24/2013  00:09:00      -76.526       -3.964       -8.195       16.154        9.141       13.902      260.962       83.552      193.254        0.324        0.027       76.629       10.641        0.019      332.977        1.991      872.171
12/24/2013  00:10:00      -75.229      -12.633      -12.117       13.062       14.686        9.209      170.611      215.685       84.804        0.322        0.024       76.283        7.666        0.010      332.993        2.018      872.165
12/24/2013  00:11:00      -75.877       -9.824      -16.035       19.507       14.223       10.048      380.508      202.292      100.967        0.340        0.034       76.510        4.710        0.004      333.059        2.126      872.156
12/24/2013  00:12:00      -57.873      -15.206      -11.506       21.532       15.498       11.517      463.627      240.183      132.638        0.227        0.042       59.837       15.099        0.064      333.003        2.033      872.161
12/24/2013  00:13:00      -69.804       -7.699      -15.153        6.440        7.740        6.217       41.472       59.909       38.652        0.265        0.007       70.227        2.921        0.002      333.031        2.079      872.169
12/24/2013  00:14:00      -69.058       -5.016      -11.018        9.135        6.803        6.150       83.444       46.280       37.816        0.254        0.008       69.240        4.756        0.005      333.045        2.104      872.172
12/24/2013  00:15:00      -66.124       -8.983      -10.582       10.422        7.484        5.052      108.623       56.010       25.519        0.238        0.010       66.731        2.483        0.001      333.300        2.522      872.155
12/24/2013  00:16:00      -25.711      -28.231       -1.777       26.268       13.964       10.181      689.998      194.980      103.653        0.122        0.049       38.184       11.956        0.098      333.147        2.271      872.135
12/24/2013  00:17:00      -59.576      -33.871       -5.079       16.639        8.728       10.316      276.858       76.180      106.414        0.259        0.023       68.532       10.063        0.022      333.106        2.203      872.126
12/24/2013  00:18:00      -79.552      -17.659      -11.604        6.919       12.679        6.834       47.876      160.745       46.704        0.352        0.013       81.488        3.185        0.002      332.993        2.016      872.132
12/24/2013  00:19:00      -71.514       -9.919       -6.587       16.398        9.118        6.915      268.910       83.143       47.812        0.283        0.020       72.199        4.564        0.004      332.989        2.009      872.134
12/24/2013  00:20:00      -59.197       -2.187      -10.297       14.492        6.966        6.290      210.005       48.525       39.567        0.196        0.015       59.237        4.781        0.007      332.989        2.011      872.144
12/24/2013  00:21:00      -79.736       -7.730      -14.389       12.190        6.331        6.467      148.591       40.083       41.823        0.343        0.012       80.110        4.222        0.003      333.022        2.066      872.155
12/24/2013  00:22:00     -109.275      -26.802      -14.010       14.751       18.303        9.517      217.587      335.000       90.564        0.675        0.032      112.514        4.747        0.002      332.943        1.935      872.168
12/24/2013  00:23:00     -106.070      -36.382       -7.929       15.148       16.610        9.610      229.452      275.893       92.344        0.662        0.030      112.136        7.437        0.004      332.871        1.817      872.173
12/24/2013  00:24:00      -85.915      -40.193       -6.853       13.130       10.087        7.932      172.394      101.743       62.914        0.469        0.017       94.852        4.984        0.003      332.888        1.844      872.167
12/24/2013  00:25:00      -77.442      -35.428       -4.782       11.805       10.060        6.210      139.363      101.199       38.567        0.378        0.014       85.161        2.293        0.001      332.887        1.843      872.157
12/24/2013  00:26:00      -90.887      -29.691       -7.746       10.683       11.332       10.044      114.129      128.404      100.887        0.477        0.017       95.614        3.910        0.002      332.856        1.793      872.148
12/24/2013  00:27:00      -76.300      -39.484       -8.498       20.290       10.385        8.899      411.689      107.839       79.199        0.403        0.030       85.911        6.256        0.005      332.783        1.671      872.137
12/24/2013  00:28:00      -69.547      -24.135       -8.429       14.854       12.722       10.433      220.633      161.844      108.842        0.299        0.025       73.616        7.887        0.011      332.782        1.667      872.112
12/24/2013  00:29:00      -58.978      -17.758       -6.596       12.539        9.341        8.277      157.228       87.263       68.502        0.208        0.016       61.593        5.770        0.009      332.776        1.659      872.089
12/24/2013  00:30:00      -51.600       -8.037       -4.903       11.264        7.676        5.815      126.872       58.913       33.814        0.149        0.011       52.222        5.416        0.011      332.794        1.688      872.079
12/24/2013  00:31:00      -70.508       -0.585       -8.165       11.912        9.162        7.596      141.890       83.933       57.692        0.266        0.014       70.510        4.322        0.004      332.866        1.810      872.077
12/24/2013  00:32:00      -88.187      -13.317       -8.987       13.693       12.629       11.804      187.498      159.503      139.339        0.426        0.024       89.187        8.924        0.010      332.835        1.757      872.082
12/24/2013  00:33:00     -127.680      -25.951      -10.692       28.319       17.432       16.147      801.972      303.872      260.712        0.923        0.068      130.290       16.495        0.016      332.750        1.618      872.088
12/24/2013  00:34:00     -101.224      -27.209       -6.549       16.830       21.317       11.945      283.242      454.417      142.685        0.595        0.044      104.817        7.964        0.006      332.705        1.543      872.085
12/24/2013  00:35:00     -117.028      -20.952       -8.172       15.098       11.789       12.002      227.946      138.978      144.037        0.736        0.026      118.889        9.239        0.006      332.772        1.651      872.081
12/24/2013  00:36:00     -128.438      -23.316      -13.145       24.547       12.129       14.269      602.573      147.103      203.616        0.908        0.048      130.537       13.435        0.011      332.625        1.409      872.083
12/24/2013  00:37:00     -130.289      -18.839      -16.560       21.073       15.272       13.696      444.090      233.244      187.586        0.923        0.043      131.643       10.065        0.006      332.633        1.423      872.088
12/24/2013  00:38:00      -78.666      -17.765       -5.318       27.534       23.705       17.340      758.126      561.937      300.664        0.408        0.081       80.647       14.295        0.031      332.553        1.290      872.101
12/24/2013  00:39:00      -82.718      -24.853       -5.963       15.319       19.064       10.119      234.662      363.448      102.391        0.410        0.035       86.371        9.165        0.011      332.680        1.500      872.103
12/24/2013  00:40:00      -84.127      -38.216       -7.665       22.141       16.834       14.131      490.212      283.383      199.683        0.478        0.049       92.401       10.964        0.014      332.622        1.403      872.107
12/24/2013  00:41:00      -99.335      -54.752        2.696       29.193       22.318       17.180      852.209      498.084      295.160        0.726        0.082      113.425       16.997        0.022      332.579        1.332      872.109
12/24/2013  00:42:00      -65.400      -28.001       -3.317       31.425       29.312       22.777      987.500      859.179      518.785        0.372        0.118       71.142       17.707        0.062      332.615        1.393      872.109
12/24/2013  00:43:00      -79.460      -18.359       -9.561       21.187       25.214       13.198      448.899      635.747      174.187        0.400        0.063       81.554        7.764        0.009      332.642        1.438      872.098
12/24/2013  00:44:00      -92.022      -24.637      -10.118       19.084       20.944       13.350      364.200      438.644      178.213        0.508        0.049       95.263       10.223        0.012      332.638        1.431      872.089
12/24/2013  00:45:00     -102.556      -22.470       -9.832       19.920       15.654       13.233      396.793      245.041      175.102        0.597        0.041      104.989       10.239        0.010      332.581        1.335      872.087
12/24/2013  00:46:00     -115.477       -7.745      -16.331       10.737        9.329       10.448      115.273       87.038      109.169        0.699        0.016      115.736        3.321        0.001      332.628        1.413      872.093
12/24/2013  00:47:00      -77.058      -10.367       -4.855       34.348       17.945       19.096     1179.811      322.024      364.654        0.397        0.093       77.752       21.524        0.077      332.626        1.411      872.092
12/24/2013  00:48:00     -104.046      -10.560       -6.210       19.116       16.500       15.057      365.429      272.242      226.711        0.592        0.043      104.581       12.915        0.015      332.691        1.518      872.093
12/24/2013  00:49:00      -80.211        9.072      -11.091       20.223       16.994       10.337      408.958      288.783      106.850        0.372        0.040       80.722        4.180        0.003      332.737        1.595      872.096
12/24/2013  00:50:00      -42.422       -6.148       -9.742       18.176       13.893       10.311      330.357      193.016      106.310        0.128        0.031       42.865        5.998        0.020      332.734        1.589      872.103
12/24/2013  00:51:00      -42.199      -12.724       -8.700        5.931       10.805        7.933       35.176      116.757       62.932        0.112        0.011       44.076        3.404        0.006      332.854        1.788      872.101
12/24/2013  00:52:00      -47.448      -13.512       -3.057        6.534       11.158        4.366       42.697      124.495       19.058        0.131        0.009       49.334        3.653        0.005      333.263        2.464      872.086
12/24/2013  00:53:00      -56.681      -33.005       -9.109       12.989       11.025        7.020      168.722      121.561       49.285        0.236        0.017       65.590        4.418        0.005      332.765        1.641      872.081
12/24/2013  00:54:00      -80.598      -34.402      -16.676       10.030       12.391        8.876      100.594      153.538       78.786        0.415        0.017       87.633        1.125        0.000      332.563        1.307      872.075
12/24/2013  00:55:00     -111.182      -41.137      -14.092       16.607       13.166       10.574      275.801      173.353      111.804        0.741        0.028      118.549        4.414        0.001      332.507        1.214      872.077
12/24/2013  00:56:00     -115.650      -40.337      -16.825       18.591       18.101       11.663      345.635      327.652      136.016        0.805        0.040      122.483        8.883        0.005      332.463        1.141      872.072
12/24/2013  00:57:00     -119.262      -27.501      -18.834       11.529       15.827        9.761      132.911      250.503       95.275        0.791        0.024      122.392        6.122        0.003      332.444        1.110      872.074
12/24/2013  00:58:00     -106.431        1.456      -13.786       27.206       17.235       16.040      740.169      297.061      257.291        0.641        0.065      106.441       15.879        0.022      332.466        1.147      872.075
12/24/2013  00:59:00      -80.940       12.965       -5.109       40.648       22.548       17.121     1652.271      508.429      293.131        0.460        0.123       81.972       17.717        0.047      332.481        1.171      872.092
12/24/2013  01:00:00      -57.069       12.583      -11.038       14.305       14.867        9.195      204.625      221.017       84.553        0.202        0.026       58.440        7.513        0.017      332.531        1.254      872.118
12/24/2013  01:01:00      -51.887       -8.449      -13.704       12.908       11.868        8.173      166.608      140.843       66.793        0.166        0.019       52.571        6.970        0.018      332.642        1.437      872.155
12/24/2013  01:02:00      -47.767      -19.927       -1.740        8.578       10.362        6.703       73.576      107.365       44.933        0.145        0.011       51.757        4.719        0.008      332.574        1.326      872.183
12/24/2013  01:03:00      -74.656      -16.713      -14.350        9.508       12.328        7.843       90.399      151.984       61.507        0.318        0.015       76.504        5.588        0.005      332.546        1.277      872.199
12/24/2013  01:04:00      -67.556      -21.114      -20.772       11.048       20.077       13.372      122.048      403.083      178.822        0.307        0.035       70.779        7.220        0.010      332.447        1.115      872.206
12/24/2013  01:05:00      -78.229      -21.123      -13.272       17.347       18.771       12.433      300.903      352.360      154.574        0.377        0.040       81.031        3.027        0.001      332.329        0.920      872.201
12/24/2013  01:06:00      -69.491      -22.091      -10.073       15.897       16.468       11.827      252.703      271.194      139.875        0.304        0.033       72.918       11.211        0.024      332.346        0.949      872.178
12/24/2013  01:07:00      -77.279      -25.445      -15.199       15.560       11.724        9.315      242.119      137.443       86.776        0.366        0.023       81.360        7.106        0.008      332.384        1.011      872.158
12/24/2013  01:08:00     -118.814      -19.764      -18.298       13.822       21.263       12.739      191.057      452.095      162.291        0.782        0.040      120.447        8.534        0.005      332.318        0.903      872.140
12/24/2013  01:09:00     -109.844      -12.755      -16.702       18.401       22.679       16.188      338.585      514.349      262.063        0.681        0.056      110.582       10.132        0.008      332.280        0.840      872.154
12/24/2013  01:10:00      -80.898       -3.829      -16.917       33.871       16.844       14.449     1147.260      283.718      208.783        0.424        0.082       80.989       17.257        0.045      332.370        0.989      872.171
12/24/2013  01:11:00      -55.732       -7.322       -7.934       18.483       17.118        9.295      341.614      293.037       86.402        0.197        0.036       56.211        7.964        0.020      332.378        1.001      872.195
12/24/2013  01:12:00      -46.794      -11.930       -8.490       10.840       13.112        7.890      117.506      171.932       62.253        0.138        0.018       48.290        2.925        0.004      332.512        1.222      872.213
12/24/2013  01:13:00      -27.978        4.967       -6.589        8.737       15.593       10.036       76.338      243.127      100.725        0.064        0.021       28.416        2.073        0.005      332.664        1.474      872.218
12/24/2013  01:14:00       -2.972       24.217        0.955       21.377       10.436       12.839      456.975      108.904      164.832        0.066        0.037       24.398       11.480        0.221      333.095        2.187      872.224
12/24/2013  01:15:00       13.987       25.741        2.883        9.740       13.040        7.656       94.866      170.044       58.612        0.059        0.016       29.295        7.152        0.060      333.019        2.060      872.243
12/24/2013  01:16:00       27.358       49.718       -3.017       12.440       15.619        9.824      154.766      243.940       96.519        0.186        0.025       56.748        7.049        0.015      333.141        2.262      872.255
12/24/2013  01:17:00       11.490       54.744       -3.983       15.864       14.335        7.852      251.680      205.497       61.658        0.183        0.026       55.937        4.509        0.006      333.248        2.439      872.262
12/24/2013  01:18:00        8.658       51.369       -3.266        8.002        8.592        6.357       64.033       73.827       40.410        0.145        0.009       52.094        1.371        0.001      333.391        2.673      872.248
12/24/2013  01:19:00        6.405       17.701        4.935        9.227       22.151       10.597       85.144      490.667      112.306        0.053        0.034       18.825       10.799        0.329      333.230        2.409      872.242
12/24/2013  01:20:00        6.370       35.125       -3.552        9.186       22.367        7.534       84.380      500.276       56.766        0.096        0.032       35.698        3.107        0.008      333.191        2.345      872.232
12/24/2013  01:21:00      -18.594        6.222       -1.419       33.837       30.582       14.107     1144.972      935.233      199.016        0.133        0.114       19.607       13.079        0.445      332.847        1.776      872.222
12/24/2013  01:22:00      -66.318      -19.514      -18.868       11.286        8.389        7.319      127.364       70.381       53.573        0.269        0.013       69.130        2.982        0.002      332.424        1.077      872.209
12/24/2013  01:23:00      -75.881      -21.355      -13.348        8.440       10.827        7.635       71.234      117.215       58.295        0.332        0.012       78.829        1.839        0.001      332.358        0.969      872.205
12/24/2013  01:24:00      -66.841       -6.296      -16.777        9.625       13.350        8.407       92.648      178.211       70.679        0.257        0.017       67.137        3.943        0.003      332.425        1.078      872.207
12/24/2013  01:25:00      -77.075        3.892      -11.432       12.465       10.130        7.411      155.380      102.626       54.917        0.320        0.016       77.173        3.359        0.002      332.605        1.376      872.214
12/24/2013  01:26:00      -71.840      -17.759      -10.155       11.010        8.688        7.072      121.224       75.473       50.019        0.291        0.012       74.002        5.084        0.005      332.593        1.357      872.223
12/24/2013  01:27:00      -83.611       -7.209      -11.483       11.027       10.669        8.742      121.600      113.826       76.426        0.374        0.016       83.921        3.832        0.002      332.436        1.096      872.230
12/24/2013  01:28:00      -85.898       -7.615      -11.862       22.184       11.535       10.274      492.143      133.052      105.560        0.415        0.037       86.235        4.671        0.003      332.310        0.888      872.239
12/24/2013  01:29:00      -85.107      -18.891      -15.572       22.667       16.224       12.397      513.775      263.219      153.685        0.439        0.047       87.178       11.583        0.018      332.255        0.798      872.259
12/24/2013  01:30:00      -59.647       -7.830       -1.880       14.322       13.111       11.498      205.125      171.906      132.214        0.207        0.025       60.159        8.355        0.019      332.300        0.872      872.276
12/24/2013  01:31:00      -56.143      -15.429       -5.005        9.613       10.741        7.333       92.406      115.361       53.773        0.184        0.013       58.224        4.759        0.007      332.542        1.271      872.287
12/24/2013  01:32:00      -84.444      -18.629      -14.440       12.514       10.343        8.378      156.604      106.982       70.192        0.401        0.017       86.474        7.062        0.007      332.414        1.060      872.296
12/24/2013  01:33:00     -108.606      -18.900      -18.906       12.368       19.052       10.663      152.968      362.988      113.709        0.657        0.031      110.238        8.974        0.007      332.337        0.932      872.300
12/24/2013  01:34:00      -97.116      -17.134      -12.897       21.090       14.259       10.016      444.777      203.328      100.311        0.532        0.037       98.615        7.239        0.005      332.346        0.948      872.305
12/24/2013  01:35:00     -108.150      -18.373      -13.862       13.024       11.132        9.476      169.616      123.921       89.793        0.630        0.019      109.700        4.230        0.001      332.485        1.178      872.313
12/24/2013  01:36:00     -113.521      -27.151      -18.191       14.381       11.804        8.525      206.825      139.341       72.682        0.719        0.021      116.722        8.209        0.005      332.512        1.220      872.324
12/24/2013  01:37:00     -120.725      -25.853      -13.813       22.408       14.973       12.894      502.097      224.180      166.251        0.816        0.045      123.462       13.052        0.011      332.471        1.154      872.330
12/24/2013  01:38:00     -127.196      -32.064      -18.825       14.204       13.506       12.602      201.749      182.403      158.800        0.905        0.027      131.175        9.980        0.006      332.419        1.070      872.339
12/24/2013  01:39:00     -139.787      -23.206      -21.522       15.747       16.618       13.066      247.971      276.172      170.719        1.062        0.035      141.700        9.778        0.005      332.371        0.990      872.355
12/24/2013  01:40:00     -130.270       -8.974      -18.399       14.536       15.275       13.465      211.299      233.314      181.313        0.901        0.031      130.578        8.793        0.005      332.183        0.679      872.383
12/24/2013  01:41:00     -124.904        0.435       -8.096       28.313       18.261       16.388      801.624      333.461      268.573        0.853        0.070      124.905       15.869        0.016      332.193        0.697      872.410
12/24/2013  01:42:00      -87.068      -20.696       -9.427       22.510       13.965       10.859      506.702      195.022      117.909        0.446        0.041       89.494       11.476        0.016      332.415        1.060      872.426
12/24/2013  01:43:00      -89.034      -47.059       -6.144       23.474       16.977       13.982      551.023      288.221      195.489        0.561        0.052      100.706       12.324        0.015      332.557        1.297      872.434
12/24/2013  01:44:00      -97.992      -28.024       -8.079       14.932       18.782       11.892      222.969      352.772      141.417        0.558        0.036      101.920        9.384        0.008      332.490        1.185      872.452
12/24/2013  01:45:00      -83.862      -29.024      -12.529       10.775        8.730        7.784      116.091       76.210       60.587        0.414        0.013       88.742        2.819        0.001      332.415        1.062      872.469
12/24/2013  01:46:00      -73.949      -19.646       -5.430       16.010       14.489        9.166      256.335      209.920       84.010        0.322        0.028       76.514        5.470        0.005      332.327        0.917      872.491
12/24/2013  01:47:00      -48.889      -43.733      -15.042       27.199       11.000       10.778      739.784      120.997      116.162        0.275        0.049       65.595        5.015        0.006      332.352        0.957      872.501
12/24/2013  01:48:00      -14.483      -33.813       -3.036       14.263       15.161       11.525      203.430      229.852      132.831        0.096        0.028       36.784       10.012        0.074      332.464        1.144      872.500
12/24/2013  01:49:00      -48.411      -12.156       -2.221       10.046       11.667        6.717      100.914      136.111       45.123        0.139        0.014       49.914        5.663        0.013      332.680        1.502      872.483
12/24/2013  01:50:00      -69.126       -0.015       -5.535       17.844       14.321        9.739      318.396      205.100       94.857        0.271        0.031       69.126        7.885        0.013      332.758        1.630      872.477
12/24/2013  01:51:00      -66.306       -1.430       -8.422       13.065        7.742        9.956      170.692       59.942       99.115        0.240        0.016       66.321        6.310        0.009      332.406        1.047      872.481
12/24/2013  01:52:00      -14.492      -16.183       -3.431       28.988       17.179       14.602      840.305      295.135      213.230        0.092        0.067       21.724       12.292        0.320      332.586        1.343      872.483
12/24/2013  01:53:00      -33.908      -18.981       -1.823       23.313       16.967       12.964      543.489      287.862      168.063        0.126        0.050       38.859        5.684        0.021      332.545        1.276      872.472
12/24/2013  01:54:00     -101.277      -33.374      -11.436       27.324       18.292       13.970      746.610      334.589      195.165        0.639        0.064      106.634       13.772        0.017      332.578        1.331      872.458
12/24/2013  01:55:00     -129.360      -12.142       -9.305       17.507       15.975       11.378      306.502      255.213      129.459        0.883        0.035      129.929       10.349        0.006      332.512        1.223      872.465
12/24/2013  01:56:00      -87.888      -31.923       -4.243       25.175       15.969       14.042      633.776      255.011      197.181        0.492        0.054       93.506       15.852        0.029      332.448        1.115      872.478
12/24/2013  01:57:00      -93.780      -30.875       -6.531       13.740       10.496       10.412      188.799      110.161      108.418        0.510        0.020       98.732        9.222        0.009      332.608        1.380      872.495
12/24/2013  01:58:00     -104.875      -34.650      -11.341       12.932       10.185        9.462      167.236      103.726       89.534        0.634        0.018      110.451        8.533        0.006      332.630        1.416      872.506
12/24/2013  01:59:00     -106.643      -41.882       -0.110       39.135       20.217       17.118     1531.514      408.731      293.041        0.768        0.112      114.572       18.501        0.026      332.494        1.192      872.500
12/24/2013  02:00:00     -106.543      -61.734        6.436       42.650       36.131       23.616     1819.025     1305.482      557.705        0.944        0.184      123.137       24.408        0.039      332.517        1.231      872.481
12/24/2013  02:01:00     -121.137      -77.041        1.406       51.414       34.152       24.979     2643.352     1166.372      623.951        1.252        0.222      143.560       17.632        0.015      332.689        1.514      872.457
12/24/2013  02:02:00     -109.130      -63.489        5.860       55.813       40.465       24.465     3115.094     1637.454      598.547        1.066        0.268      126.255       24.374        0.037      332.709        1.549      872.440
12/24/2013  02:03:00     -106.057      -49.471       -5.073       37.994       32.729       20.344     1443.511     1071.209      413.886        0.832        0.146      117.028       12.929        0.012      332.682        1.504      872.454
12/24/2013  02:04:00     -132.969      -21.263      -12.766       28.730       17.342       12.376      825.426      300.728      153.171        0.979        0.064      134.659       14.141        0.011      332.429        1.086      872.465
12/24/2013  02:05:00     -138.591      -28.205      -15.002       14.500       14.973       12.704      210.260      224.178      161.392        1.041        0.030      141.432        7.777        0.003      332.404        1.045      872.478
12/24/2013  02:06:00     -124.237      -46.358       -2.483       23.965       22.837       16.561      574.298      521.549      274.277        0.948        0.069      132.605       15.254        0.013      332.410        1.054      872.487
12/24/2013  02:07:00     -121.319      -25.589       -8.433       15.246       18.671       12.807      232.442      348.616      164.014        0.809        0.037      123.988        9.649        0.006      332.398        1.034      872.509
12/24/2013  02:08:00     -100.114      -22.686       -7.447       36.422       21.437       19.238     1326.545      459.534      370.096        0.637        0.108      102.652       18.223        0.032      332.281        0.843      872.528
12/24/2013  02:09:00      -87.556      -31.290       -1.297       27.884       28.672       13.571      777.535      822.081      184.170        0.521        0.089       92.979       12.881        0.019      332.348        0.950      872.530
12/24/2013  02:10:00      -92.433      -27.098       -2.881       24.967       25.937       17.805      623.346      672.713      317.025        0.545        0.081       96.323       16.171        0.028      332.414        1.061      872.526
12/24/2013  02:11:00     -100.479      -38.906       -7.458       12.390       14.642        9.930      153.512      214.392       98.599        0.607        0.023      107.748        6.150        0.003      332.438        1.101      872.508
12/24/2013  02:12:00      -80.366      -23.897       -3.433       12.285       16.867       11.058      150.925      284.488      122.289        0.380        0.028       83.844        6.050        0.005      332.445        1.113      872.501
12/24/2013  02:13:00     -119.352       -5.718       -8.599       36.675       14.870       12.551     1345.042      221.128      157.527        0.804        0.086      119.488       13.881        0.013      332.368        0.985      872.518
12/24/2013  02:14:00     -140.050        2.294      -18.075       31.493       18.815       16.458      991.784      354.018      270.862        1.078        0.081      140.068       17.484        0.016      332.246        0.784      872.540
12/24/2013  02:15:00      -52.247      -46.282       -0.182       42.890       17.160       12.753     1839.585      294.464      162.639        0.358        0.115       69.798       17.629        0.064      332.535        1.260      872.520
12/24/2013  02:16:00      -58.538      -40.101       -0.257       40.559       18.293        8.890     1645.026      334.616       79.032        0.355        0.103       70.956       14.106        0.040      332.852        1.785      872.513
12/24/2013  02:17:00     -126.057      -13.436      -16.984       34.872       26.754       17.044     1216.039      715.761      290.504        0.929        0.111      126.771       15.133        0.014      332.518        1.233      872.529
12/24/2013  02:18:00     -176.091      -11.450      -17.308       36.272       33.197       25.444     1315.648     1102.031      647.379        1.725        0.153      176.462       21.153        0.014      332.433        1.094      872.542
12/24/2013  02:19:00      -91.544      -46.917        0.132       44.899       26.387       21.798     2015.942      696.267      475.132        0.688        0.159      102.866       22.468        0.048      332.477        1.164      872.525
12/24/2013  02:20:00      -80.485      -18.646       -1.910       33.097       23.115       15.604     1095.406      534.283      243.485        0.435        0.094       82.617       15.857        0.037      332.515        1.228      872.507
12/24/2013  02:21:00     -154.168      -10.676      -15.861       28.260       24.298       15.805      798.653      590.374      249.788        1.289        0.082      154.537       15.918        0.011      332.275        0.833      872.520
12/24/2013  02:22:00     -126.960      -34.477       -6.038       24.928       18.673       15.515      621.427      348.680      240.731        0.928        0.061      131.558       13.237        0.010      332.333        0.928      872.541
12/24/2013  02:23:00      -71.813      -24.976       -2.752       22.343       19.038       11.383      499.226      362.439      129.566        0.339        0.050       76.032        7.626        0.010      332.395        1.029      872.543
12/24/2013  02:24:00      -72.394      -17.052       -4.814       32.441       13.489       10.040     1052.420      181.962      100.805        0.344        0.067       74.375       13.357        0.032      332.501        1.204      872.525
12/24/2013  02:25:00     -108.270      -42.216       -4.510       18.017       15.825        7.938      324.629      250.441       63.017        0.708        0.032      116.209        7.184        0.004      332.502        1.207      872.504
12/24/2013  02:26:00     -123.216      -66.514        6.944       36.761       21.058       20.953     1351.402      443.458      439.048        1.094        0.112      140.022       19.222        0.019      332.429        1.084      872.486
12/24/2013  02:27:00     -118.909      -60.157       -0.563       39.550       29.994       21.507     1564.202      899.656      462.542        1.034        0.146      133.260       17.910        0.018      332.486        1.178      872.466
12/24/2013  02:28:00      -62.587      -46.561        3.100       28.644       26.883       16.262      820.489      722.696      264.439        0.395        0.090       78.007       15.078        0.037      332.348        0.952      872.451
12/24/2013  02:29:00     -108.870      -30.735        1.254       38.165       21.779       17.122     1456.558      474.328      293.178        0.751        0.111      113.125       19.463        0.030      332.219        0.740      872.444
12/24/2013  02:30:00     -105.018      -36.534        2.948       36.651       23.019       16.728     1343.322      529.851      279.835        0.726        0.108      111.192       16.417        0.022      332.302        0.878      872.457
12/24/2013  02:31:00     -140.540      -47.957       -1.252       26.667       21.409       15.640      711.104      458.329      244.615        1.173        0.071      148.497       13.095        0.008      332.330        0.923      872.473
12/24/2013  02:32:00     -128.380      -64.188       -7.135       24.347       25.532       13.976      592.758      651.880      195.328        1.105        0.072      143.532        8.923        0.004      332.346        0.949      872.480
12/24/2013  02:33:00     -110.658      -28.587       -4.396       36.086       23.693       18.261     1302.231      561.351      333.462        0.764        0.110      114.291       20.645        0.033      332.285        0.848      872.484
12/24/2013  02:34:00      -89.867      -29.654        3.072       36.976       29.646       16.559     1367.199      878.864      274.197        0.574        0.126       94.633       16.583        0.031      332.240        0.774      872.493
12/24/2013  02:35:00     -120.273      -29.291       -3.482       33.271       22.269       18.751     1106.965      495.891      351.605        0.864        0.098      123.789       21.236        0.029      332.205        0.717      872.500
12/24/2013  02:36:00     -105.257      -18.476       -5.176       33.709       22.140       17.715     1136.281      490.201      313.831        0.669        0.097      106.866       16.679        0.024      332.055        0.469      872.500
12/24/2013  02:37:00     -114.172      -30.966       -5.378       29.082       16.915       11.861      845.744      286.133      140.674        0.765        0.064      118.297       10.531        0.008      332.173        0.664      872.501
12/24/2013  02:38:00     -100.903      -15.271       -7.995       17.007       21.372       11.198      289.252      456.780      125.389        0.567        0.044      102.052        6.795        0.004      332.254        0.798      872.504
12/24/2013  02:39:00      -89.566      -43.707       -7.022       15.007       13.280       11.620      225.222      176.346      135.015        0.526        0.027       99.661        9.786        0.010      332.282        0.842      872.500
12/24/2013  02:40:00      -99.640      -42.088       -9.299       12.429        9.538        7.681      154.482       90.973       58.999        0.605        0.015      108.165        3.733        0.001      332.270        0.823      872.492
12/24/2013  02:41:00     -111.585      -19.635      -10.529       24.434       25.751       13.366      597.031      663.114      178.641        0.719        0.072      113.300        9.322        0.007      332.221        0.744      872.483
12/24/2013  02:42:00     -113.670      -20.317       -8.405       23.167       20.747       13.500      536.689      430.429      182.237        0.728        0.057      115.471       11.324        0.010      332.261        0.809      872.474
12/24/2013  02:43:00      -88.676      -47.040       -0.632       27.329       19.319       15.285      746.870      373.210      233.622        0.571        0.068      100.381       13.843        0.019      332.229        0.757      872.469
12/24/2013  02:44:00      -85.547      -44.642        0.043       19.900       15.852       10.926      396.021      251.276      119.372        0.504        0.038       96.494        9.355        0.009      332.218        0.738      872.457
12/24/2013  02:45:00      -60.878      -49.839       -4.921       24.607       21.096       16.668      605.488      445.026      277.817        0.377        0.066       78.677       11.639        0.022      332.324        0.912      872.444
12/24/2013  02:46:00      -40.663      -34.910        9.422       32.938       26.097       15.162     1084.880      681.047      229.896        0.248        0.100       53.593       18.841        0.124      332.425        1.079      872.445
12/24/2013  02:47:00       -2.013       -3.026        3.647       10.832       12.278        7.409      117.335      150.748       54.897        0.017        0.016        3.634        5.849        2.590      332.490        1.185      872.444
12/24/2013  02:48:00        4.074        4.308        7.687       16.270       20.107       12.165      264.706      404.281      147.980        0.046        0.041        5.929       13.300        5.031      332.467        1.148      872.455
12/24/2013  02:49:00       39.613       30.393       14.313       10.751        9.665       10.350      115.593       93.417      107.131        0.151        0.016       49.929        7.758        0.024      332.584        1.342      872.454
12/24/2013  02:50:00       24.053       30.191      -12.638       13.870        8.590        8.645      192.367       73.794       74.732        0.100        0.017       38.601        4.695        0.015      332.442        1.107      872.450
12/24/2013  02:51:00       13.305       26.174        7.716        9.323       11.278       12.567       86.912      127.204      157.941        0.065        0.019       29.362        7.596        0.067      332.342        0.942      872.444
12/24/2013  02:52:00       20.161       40.599        4.599        6.474        7.153        6.902       41.907       51.171       47.633        0.111        0.007       45.329        3.721        0.007      332.436        1.096      872.427
12/24/2013  02:53:00        2.975       -0.262        8.934        8.881       19.916        7.478       78.870      396.653       55.913        0.031        0.027        2.986        4.699        2.476      332.416        1.065      872.424
12/24/2013  02:54:00       31.673       13.914       -1.840       17.361       10.443        8.694      301.421      109.066       75.579        0.084        0.024       34.595        7.584        0.048      332.296        0.864      872.407
12/24/2013  02:55:00       57.140       30.468       -3.712        8.932       10.893        5.943       79.783      118.654       35.314        0.222        0.012       64.755        3.960        0.004      332.061        0.481      872.391
12/24/2013  02:56:00       66.138       46.749        1.563       18.110       18.138       13.828      327.978      329.001      191.218        0.371        0.042       80.992        8.869        0.012      332.027        0.422      872.381
12/24/2013  02:57:00       77.251       61.214       -4.040       25.711       19.342       19.796      661.068      374.107      391.873        0.558        0.071       98.564        9.952        0.010      331.815        0.072      872.380
12/24/2013  02:58:00       71.624       51.354        7.023       28.716       27.016       21.774      824.595      729.859      474.096        0.492        0.101       88.131       13.091        0.022      331.796        0.041      872.400
12/24/2013  02:59:00       77.932       59.389        2.774       25.002       20.399       14.672      625.113      416.125      215.268        0.543        0.063       97.982        8.634        0.008      331.873        0.168      872.413
12/24/2013  03:00:00       20.589       17.523        4.345       22.493       18.467       11.223      505.954      341.014      125.950        0.086        0.049       27.037        2.779        0.011      331.891        0.200      872.418
12/24/2013  03:01:00        5.200       16.753        0.732       11.124       17.221       11.304      123.735      296.549      127.778        0.043        0.027       17.541        7.902        0.203      331.882        0.184      872.428
12/24/2013  03:02:00        7.405       27.112       -3.076       10.717        9.525        9.041      114.852       90.719       81.733        0.054        0.014       28.105        8.111        0.083      331.845        0.123      872.427
12/24/2013  03:03:00       -1.255        5.113       -5.824        6.788       14.409        4.314       46.074      207.626       18.611        0.017        0.014        5.264        3.128        0.353      331.821        0.082      872.438
12/24/2013  03:04:00       11.083        9.727        6.080       16.455        8.519       10.434      270.772       72.575      108.874        0.035        0.023       14.746        6.914        0.220      331.927        0.258      872.433
12/24/2013  03:05:00       50.517       25.428       16.694       24.947       16.991       19.797      622.355      288.684      391.922        0.239        0.065       56.556       17.991        0.101      331.941        0.281      872.428
12/24/2013  03:06:00       47.735       13.013       11.728       23.080       15.147       19.986      532.689      229.425      399.458        0.187        0.058       49.477       15.465        0.098      331.980        0.345      872.438
12/24/2013  03:07:00       32.370       12.593       11.573       25.665       17.325       17.146      658.673      300.160      293.986        0.130        0.063       34.733       12.806        0.136      331.964        0.318      872.475
12/24/2013  03:08:00       96.230       34.194        4.296       23.517       21.821       17.771      553.039      476.140      315.817        0.590        0.067      102.125       12.557        0.015      331.940        0.279      872.492
12/24/2013  03:09:00       74.400       45.206       10.773       27.514       18.378       17.318      757.006      337.757      299.913        0.454        0.070       87.058       11.737        0.018      331.883        0.186      872.508
12/24/2013  03:10:00       58.642       38.461       10.048       32.607       22.389       17.910     1063.226      501.268      320.774        0.345        0.094       70.130       16.605        0.056      331.830        0.098      872.510
12/24/2013  03:11:00       90.993       59.848       12.329       22.053       19.264       17.593      486.324      371.108      309.510        0.659        0.058      108.911       12.753        0.014      331.880        0.180      872.514
12/24/2013  03:12:00       55.248       53.711       34.218       33.312       24.970       17.331     1109.684      623.483      300.373        0.457        0.102       77.054        5.947        0.006      331.978        0.342      872.535
12/24/2013  03:13:00       76.500       61.313       39.069       29.829       16.397       21.015      889.789      268.865      441.651        0.637        0.080       98.038       15.174        0.024      331.998        0.374      872.556
12/24/2013  03:14:00      115.749       67.873       32.802       25.019       19.129       25.719      625.945      365.905      661.469        1.037        0.083      134.181       12.562        0.009      331.930        0.263      872.565
12/24/2013  03:15:00      113.916       64.535       21.627       28.796       17.857       19.769      829.182      318.874      390.830        0.957        0.077      130.926       12.784        0.010      331.808        0.062      872.573
12/24/2013  03:16:00       85.493       54.737       13.052       19.579       20.784       23.216      383.332      431.994      538.967        0.591        0.068      101.515       12.815        0.016      331.721       -0.080      872.595
12/24/2013  03:17:00       80.961       51.784       21.237       31.382       24.516       23.246      984.825      601.051      540.392        0.591        0.106       96.106       18.684        0.038      331.698       -0.117      872.604
12/24/2013  03:18:00       97.182       47.708       12.337       22.716       20.966       24.660      516.005      439.582      608.130        0.672        0.078      108.260       14.885        0.019      331.694       -0.124      872.594
12/24/2013  03:19:00      108.953       66.074       25.161       26.898       23.815       26.440      723.529      567.167      699.051        0.943        0.099      127.423       15.899        0.016      331.696       -0.122      872.571
12/24/2013  03:20:00      115.590       54.029       22.428       33.815       19.706       29.653     1143.423      388.308      879.323        0.960        0.121      127.594       24.828        0.038      331.723       -0.078      872.591
12/24/2013  03:21:00       94.707       65.321        5.259       34.812       25.475       23.424     1211.841      648.955      548.670        0.784        0.120      115.049       12.745        0.012      331.709       -0.101      872.619
12/24/2013  03:22:00       91.510       61.334        5.756       35.534       24.426       23.518     1262.643      596.631      553.103        0.729        0.121      110.163       12.684        0.013      331.695       -0.122      872.635
12/24/2013  03:23:00       47.230       51.482        3.145       40.109       31.112       29.781     1608.696      967.945      886.908        0.418        0.173       69.865       21.041        0.091      331.738       -0.054      872.631
12/24/2013  03:24:00       54.686       42.894        0.376       31.827       22.936       17.607     1012.939      526.066      310.017        0.334        0.092       69.501       15.014        0.047      331.813        0.071      872.621
12/24/2013  03:25:00       70.105       46.208       18.358       43.460       32.580       16.438     1888.773     1061.470      270.217        0.530        0.161       83.964       14.834        0.031      331.891        0.198      872.606
12/24/2013  03:26:00       48.372       43.605       11.229       41.305       27.465       25.944     1706.125      754.315      673.068        0.375        0.157       65.125       13.273        0.042      331.918        0.242      872.601
12/24/2013  03:27:00       18.956       58.764       -7.273       17.194       26.315       13.331      295.648      692.478      177.706        0.252        0.058       61.746       13.606        0.049      331.880        0.180      872.614
12/24/2013  03:28:00       30.532       94.356      -12.644       21.131       21.636       14.808      446.513      468.115      219.272        0.556        0.057       99.172       12.442        0.016      331.888        0.193      872.622
12/24/2013  03:29:00       31.691       86.826      -10.136       21.215       22.555       18.802      450.069      508.740      353.500        0.498        0.066       92.429       15.664        0.029      331.854        0.137      872.615
12/24/2013  03:30:00        6.854       88.629      -14.003       19.243       21.645       12.789      370.306      468.514      163.564        0.455        0.050       88.894       13.355        0.023      331.960        0.313      872.601
12/24/2013  03:31:00        7.734       75.055       -3.754       18.349       24.787       16.214      336.689      614.408      262.886        0.346        0.061       75.452       15.461        0.042      332.101        0.546      872.596
12/24/2013  03:32:00      -13.462       33.036       -2.705       20.021       20.249       11.367      400.853      410.039      129.218        0.111        0.047       35.674        4.663        0.017      332.038        0.442      872.599
12/24/2013  03:33:00      -29.150       13.696       -8.669       11.396       15.487        7.948      129.865      239.845       63.165        0.077        0.022       32.207        5.455        0.029      332.037        0.439      872.586
12/24/2013  03:34:00      -12.299       17.233       -7.374       19.129       19.625        9.740      365.923      385.136       94.873        0.067        0.042       21.172        8.932        0.178      332.159        0.639      872.572
12/24/2013  03:35:00       -7.371       17.886       -0.498       18.693       13.432        9.593      349.429      180.416       92.031        0.050        0.031       19.346        8.788        0.206      332.152        0.629      872.564
12/24/2013  03:36:00      -35.343       -5.948       -7.922        9.661        8.138        5.892       93.330       66.225       34.710        0.077        0.010       35.840        4.444        0.015      332.008        0.391      872.577
12/24/2013  03:37:00      -66.632      -10.148      -12.266       20.925       10.045        6.819      437.856      100.911       46.501        0.264        0.029       67.400        4.306        0.004      331.959        0.311      872.584
12/24/2013  03:38:00      -99.617      -12.525      -13.420       21.659       12.642       11.780      469.131      159.819      138.765        0.551        0.038      100.401        9.079        0.008      331.897        0.207      872.585
12/24/2013  03:39:00      -90.627      -23.531      -14.217       22.895       12.155       11.938      524.192      147.741      142.515        0.489        0.041       93.632        9.412        0.010      331.869        0.162      872.591
12/24/2013  03:40:00      -83.290      -24.399      -10.703       15.835       18.928        9.258      250.740      358.273       85.720        0.417        0.035       86.790        8.515        0.010      331.888        0.193      872.589
12/24/2013  03:41:00      -87.133      -24.261      -10.316       21.052       17.172       12.608      443.207      294.864      158.962        0.459        0.045       90.448        9.572        0.011      331.856        0.140      872.597
12/24/2013  03:42:00      -93.370      -22.761      -16.604       17.543       16.565       12.908      307.743      274.399      166.612        0.513        0.037       96.104        7.038        0.005      331.836        0.109      872.603
12/24/2013  03:43:00      -76.927      -17.330      -11.583       14.688       12.015        7.631      215.741      144.358       58.230        0.339        0.021       78.855        2.949        0.001      331.867        0.160      872.616
12/24/2013  03:44:00      -75.059       -2.708      -14.011       19.082       12.946       12.338      364.133      167.611      152.227        0.326        0.034       75.108        8.431        0.013      331.864        0.154      872.641
12/24/2013  03:45:00      -90.665       -0.464      -14.190       25.355       14.328       13.339      642.884      205.305      177.918        0.472        0.051       90.667       13.856        0.023      331.862        0.152      872.659
12/24/2013  03:46:00      -40.856       10.113       -8.398       21.520       26.295       15.744      463.111      691.424      247.886        0.162        0.070       42.089       10.680        0.064      331.859        0.146      872.656
12/24/2013  03:47:00      -85.510       24.464      -18.347       25.390       24.340       17.437      644.641      592.458      304.034        0.489        0.077       88.941       11.495        0.017      331.866        0.158      872.654
12/24/2013  03:48:00      -69.787      -11.122       -9.202       17.589       17.084       13.790      309.356      291.862      190.165        0.293        0.040       70.668        9.869        0.020      331.946        0.289      872.631
12/24/2013  03:49:00      -87.970      -27.616      -12.563       27.072       18.862       12.004      732.880      355.780      144.104        0.495        0.062       92.202       11.085        0.014      331.862        0.151      872.612
12/24/2013  03:50:00      -95.326      -30.484      -16.164       20.938       15.390        9.994      438.387      236.867       99.877        0.553        0.039      100.081        4.258        0.002      331.706       -0.103      872.600
12/24/2013  03:51:00      -69.535      -47.528      -21.980       20.114       13.978       11.206      404.569      195.373      125.580        0.415        0.036       84.226        7.860        0.009      331.708       -0.102      872.592
12/24/2013  03:52:00      -82.469      -37.795      -11.700       25.610       22.690       13.966      655.869      514.851      195.036        0.487        0.068       90.717       11.748        0.017      331.673       -0.160      872.586
12/24/2013  03:53:00     -104.970       -7.576      -14.710       17.284       18.241       11.162      298.720      332.727      124.595        0.602        0.038      105.243        6.657        0.004      331.720       -0.083      872.580
12/24/2013  03:54:00      -72.086       -7.698      -15.215       23.897       14.214       12.805      571.064      202.047      163.961        0.321        0.047       72.496       13.108        0.033      331.742       -0.047      872.577
12/24/2013  03:55:00      -57.963      -12.876      -13.142       11.515       10.899        7.416      132.598      118.791       54.996        0.200        0.015       59.376        5.559        0.009      331.812        0.068      872.585
12/24/2013  03:56:00      -69.943      -17.879      -16.574       19.446       12.763        8.281      378.137      162.898       68.567        0.305        0.030       72.192        8.409        0.014      331.752       -0.030      872.596
12/24/2013  03:57:00      -52.765      -43.134       -9.933       18.403       21.785       12.990      338.682      474.600      168.732        0.286        0.049       68.152        6.924        0.010      331.748       -0.037      872.604
12/24/2013  03:58:00      -39.757      -48.483      -14.847       15.331       26.103       12.795      235.029      681.344      163.710        0.262        0.054       62.700        7.645        0.015      331.918        0.242      872.599
12/24/2013  03:59:00      -70.214      -31.979      -14.590       33.527       23.123        9.035     1124.082      534.655       81.632        0.395        0.087       77.153       10.923        0.020      332.032        0.430      872.585
12/24/2013  04:00:00     -100.061        5.489      -17.455       27.078       17.505       13.488      733.244      306.422      181.919        0.578        0.061      100.211       13.522        0.018      331.950        0.296      872.579
12/24/2013  04:01:00      -98.145      -26.934      -22.348       17.282       22.254       15.566      298.673      495.250      242.297        0.595        0.052      101.774        6.955        0.005      331.781        0.018      872.560
12/24/2013  04:02:00     -107.197      -10.937      -21.043       18.795       13.839       10.568      353.241      191.512      111.681        0.635        0.033      107.753        6.923        0.004      331.784        0.024      872.545
12/24/2013  04:03:00     -116.131      -40.720      -21.541       23.339       24.442       16.372      544.715      597.397      268.040        0.851        0.071      123.063       15.295        0.015      331.771        0.002      872.524
12/24/2013  04:04:00     -104.810      -59.364      -11.722       22.361       20.377       15.330      500.004      415.205      234.998        0.790        0.058      120.454       12.011        0.010      331.691       -0.130      872.513
12/24/2013  04:05:00     -112.342      -67.581      -20.016       27.205       24.871       15.764      740.099      618.573      248.505        0.960        0.080      131.103        3.210        0.001      331.646       -0.205      872.501
12/24/2013  04:06:00     -103.263      -37.159        0.988       54.710       24.203       22.923     2993.149      585.809      525.480        0.807        0.205      109.745       30.378        0.077      331.598       -0.284      872.491
12/24/2013  04:07:00     -136.942      -51.886      -10.264       30.341       27.274       17.295      920.553      743.871      299.113        1.176        0.098      146.442       12.221        0.007      331.562       -0.343      872.486
12/24/2013  04:08:00     -105.387      -39.753       -5.356       47.297       39.948       18.111     2236.989     1595.868      328.005        0.844        0.208      112.636       13.985        0.015      331.591       -0.295      872.482
12/24/2013  04:09:00     -102.358      -47.923       -6.459       29.068       24.768       20.580      844.971      613.446      423.555        0.735        0.094      113.021       16.013        0.020      331.614       -0.257      872.497
12/24/2013  04:10:00     -116.983      -24.099       -5.685       32.774       27.678       15.874     1074.126      766.055      251.976        0.819        0.105      119.439       15.913        0.018      331.644       -0.207      872.520
12/24/2013  04:11:00      -90.941      -29.968      -10.726       15.391       19.798       12.765      236.876      391.952      162.938        0.504        0.040       95.751        7.761        0.007      331.629       -0.232      872.541
12/24/2013  04:12:00      -63.238       -3.185       -4.511       31.064       13.323       14.832      964.993      177.504      219.975        0.270        0.068       63.318       18.244        0.083      331.693       -0.127      872.566
12/24/2013  04:13:00      -71.441       -4.943      -12.016       24.508       17.518       11.240      600.623      306.868      126.338        0.315        0.052       71.612        9.010        0.016      331.845        0.123      872.579
12/24/2013  04:14:00      -57.879      -11.199       -8.894       12.130       17.856        9.703      147.126      318.841       94.144        0.206        0.028       58.952        6.668        0.013      331.826        0.091      872.582
12/24/2013  04:15:00      -76.597      -31.828      -10.064       21.454       20.642        9.987      460.274      426.102       99.731        0.398        0.049       82.947        8.254        0.010      331.783        0.020      872.576
12/24/2013  04:16:00     -105.719      -48.408       -7.471       32.494       22.509       17.348     1055.857      506.674      300.966        0.772        0.093      116.275       13.997        0.014      331.739       -0.050      872.560
12/24/2013  04:17:00     -125.304      -59.887        0.453       36.686       24.722       21.526     1345.850      611.166      463.384        1.085        0.121      138.880       19.677        0.020      331.590       -0.298      872.543
12/24/2013  04:18:00     -107.008      -29.964       -5.498       37.551       30.326       19.280     1410.093      919.663      371.726        0.754        0.135      111.124       12.070        0.012      331.589       -0.297      872.518
12/24/2013  04:19:00      -89.870      -17.392       -2.153       33.574       29.084       16.068     1127.209      845.860      258.169        0.531        0.112       91.537       10.920        0.014      331.569       -0.332      872.498
12/24/2013  04:20:00     -126.008      -52.246       -8.225       24.831       21.291       16.450      616.564      453.326      270.604        1.001        0.067      136.410       15.215        0.012      331.613       -0.260      872.490
12/24/2013  04:21:00     -112.362       -7.889       -5.803       42.846       46.909       22.322     1835.818     2200.446      498.293        0.863        0.227      112.638       19.995        0.032      331.611       -0.263      872.482
12/24/2013  04:22:00     -123.958       10.207      -12.591       52.031       30.854       23.954     2707.253      951.975      573.792        0.993        0.212      124.377       17.680        0.020      331.733       -0.061      872.480
12/24/2013  04:23:00      -74.948       26.751      -11.793       47.086       38.250       26.872     2217.065     1463.091      722.093        0.544        0.220       79.579       22.858        0.083      331.675       -0.155      872.476
12/24/2013  04:24:00      -30.660       15.781        4.752       40.325       33.326       27.008     1626.093     1110.608      729.428        0.234        0.173       34.483       15.795        0.210      331.713       -0.094      872.474
12/24/2013  04:25:00     -118.398       34.985      -20.112       54.193       35.780       26.869     2936.834     1280.197      721.955        1.029        0.247      123.459       23.875        0.037      331.734       -0.061      872.484
12/24/2013  04:26:00     -102.786       -5.590       -0.009       29.381       36.165       18.154      863.249     1307.887      329.573        0.655        0.125      102.938        3.429        0.001      331.689       -0.132      872.492
12/24/2013  04:27:00     -164.846       34.981      -12.294       48.224       31.650       24.527     2325.580     1001.713      601.597        1.624        0.196      168.516       17.944        0.011      331.675       -0.158      872.491
12/24/2013  04:28:00     -165.205       39.161       -5.922       30.515       33.436       19.717      931.174     1117.936      388.745        1.565        0.122      169.783       11.568        0.005      331.695       -0.124      872.490
12/24/2013  04:29:00     -159.985       28.357      -13.144       33.167       37.928       21.559     1100.017     1438.501      464.778        1.479        0.150      162.479       11.784        0.005      331.660       -0.181      872.479
12/24/2013  04:30:00     -167.530       29.283      -14.194       36.713       35.064       20.282     1347.847     1229.491      411.365        1.606        0.149      170.070       14.786        0.008      331.701       -0.114      872.477
12/24/2013  04:31:00     -139.285       13.254       -9.981       47.264       29.862       21.199     2233.857      891.735      449.393        1.162        0.179      139.914       17.665        0.016      331.668       -0.167      872.479
12/24/2013  04:32:00     -113.706       -3.790       -6.571       53.249       29.173       31.707     2835.472      851.037     1005.349        0.884        0.235      113.770       31.986        0.079      331.701       -0.113      872.481
12/24/2013  04:33:00     -142.967        0.610      -16.306       35.161       34.414       16.571     1236.306     1184.331      274.609        1.170        0.135      142.968       12.037        0.007      331.747       -0.038      872.487
12/24/2013  04:34:00     -168.171       24.083      -15.488       37.889       32.347       20.237     1435.547     1046.310      409.522        1.600        0.145      169.887       13.466        0.006      331.768       -0.004      872.485
12/24/2013  04:35:00     -171.657       15.406      -19.108       44.814       36.773       22.825     2008.300     1352.272      520.990        1.697        0.194      172.347       16.470        0.009      331.716       -0.090      872.482
12/24/2013  04:36:00     -142.477        4.670      -16.394       43.190       37.967       23.445     1865.414     1441.525      549.670        1.222        0.193      142.553       21.941        0.024      331.683       -0.144      872.471
12/24/2013  04:37:00     -157.768       -6.726      -17.695       47.807       42.691       26.190     2285.543     1822.496      685.937        1.502        0.240      157.911       21.320        0.018      331.627       -0.235      872.467
12/24/2013  04:38:00     -154.047       -2.754      -15.063       48.730       51.011       28.985     2374.590     2602.132      840.118        1.489        0.291      154.072       25.272        0.027      331.637       -0.220      872.460
12/24/2013  04:39:00     -189.501        6.426      -12.169       60.695       46.051       27.089     3683.877     2120.657      733.790        2.132        0.327      189.610       29.732        0.025      331.635       -0.224      872.443
12/24/2013  04:40:00     -171.540       24.631      -18.177       50.931       37.604       26.461     2593.926     1414.026      700.171        1.753        0.235      173.299       20.867        0.014      331.679       -0.150      872.419
12/24/2013  04:41:00     -120.841       -0.247      -12.282       38.763       44.890       23.567     1502.558     2015.099      555.380        0.941        0.204      120.841       19.344        0.026      331.670       -0.165      872.398
12/24/2013  04:42:00     -125.413      -11.951       -8.809       66.236       52.346       25.852     4387.238     2740.121      668.312        1.187        0.390      125.982       27.713        0.048      331.668       -0.168      872.389
12/24/2013  04:43:00     -116.528       -3.721       -5.817       72.082       48.689       31.404     5195.772     2370.642      986.226        1.109        0.428      116.588       33.522        0.083      331.652       -0.196      872.378
12/24/2013  04:44:00     -151.513      -19.955       -7.353       50.565       25.649       22.265     2556.852      657.881      495.739        1.356        0.186      152.821       22.429        0.022      331.651       -0.195      872.362
12/24/2013  04:45:00     -119.428      -13.756       -6.746       59.854       27.754       22.684     3582.548      770.276      514.551        0.968        0.243      120.218       26.492        0.049      331.616       -0.253      872.362
12/24/2013  04:46:00     -103.662      -21.111       -4.453       66.023       29.356       20.603     4359.033      861.791      424.482        0.843        0.282      105.789       26.833        0.064      331.642       -0.210      872.371
12/24/2013  04:47:00      -61.724      -22.220        4.146       38.329       34.232       18.393     1469.139     1171.815      338.291        0.365        0.149       65.602       19.285        0.086      331.711       -0.097      872.398
12/24/2013  04:48:00      -72.390      -29.986       -6.020       21.281       15.011       12.114      452.874      225.329      146.744        0.350        0.041       78.355        8.952        0.013      331.834        0.105      872.433
12/24/2013  04:49:00       11.339      -26.514        4.388       19.659       16.055       13.875      386.467      257.766      192.522        0.084        0.042       28.837        7.950        0.076      331.990        0.361      872.456
12/24/2013  04:50:00       12.950      -23.260       -2.926       11.992        9.387        6.558      143.814       88.112       43.010        0.050        0.014       26.622        4.940        0.034      332.143        0.613      872.489
12/24/2013  04:51:00       -1.153      -16.851        3.336       20.421       10.388       13.413      416.997      107.916      179.899        0.050        0.035       16.890       10.042        0.353      332.244        0.779      872.518
12/24/2013  04:52:00      -57.279      -15.314       -4.644       19.564        9.001        5.748      382.768       81.009       33.036        0.202        0.025       59.291        5.975        0.010      332.112        0.564      872.539
12/24/2013  04:53:00      -79.926      -22.004       -8.043       12.451        9.860        8.223      155.022       97.225       67.619        0.363        0.016       82.899        4.877        0.003      331.897        0.209      872.554
12/24/2013  04:54:00      -34.173      -33.745       -1.868       29.383       12.943        7.756      863.364      167.534       60.159        0.170        0.055       48.027        7.224        0.023      331.944        0.286      872.570
12/24/2013  04:55:00        3.259      -28.076        3.935       12.009       26.990       15.592      144.205      728.443      243.113        0.096        0.056       28.264       15.339        0.295      332.006        0.389      872.605
12/24/2013  04:56:00      -12.574       20.762       43.756        9.863       18.020       14.494       97.285      324.732      210.078        0.157        0.032       24.272       14.415        0.353      331.916        0.240      872.638
12/24/2013  04:57:00       37.448       38.224       33.443       34.940       16.195       25.991     1220.826      262.262      675.528        0.307        0.108       53.511       27.466        0.263      331.819        0.080      872.665
12/24/2013  04:58:00       45.907       33.671       31.590       25.814       21.082       21.635      666.373      444.453      468.077        0.291        0.079       56.931       17.111        0.090      331.828        0.095      872.680
12/24/2013  04:59:00       18.252       12.185       25.812       23.459       19.991       16.270      550.344      399.640      264.698        0.118        0.061       21.946       16.716        0.580      331.824        0.087      872.688
12/24/2013  05:00:00       14.305        0.400       11.566       18.435       13.426       12.017      339.855      180.257      144.401        0.050        0.033       14.310        7.258        0.257      331.962        0.315      872.695
12/24/2013  05:01:00       -2.413       -9.555        8.299       14.770       10.311        9.957      218.143      106.327       99.140        0.029        0.021        9.855        9.932        1.016      331.948        0.293      872.700
12/24/2013  05:02:00       -5.785      -19.756        3.960       26.074       10.971       12.868      679.879      120.372      165.579        0.070        0.048       20.585        8.308        0.163      331.845        0.123      872.706
12/24/2013  05:03:00      -22.138       -8.305       -8.201       15.955       11.326        8.603      254.562      128.267       74.004        0.054        0.023       23.644        6.976        0.087      331.924        0.253      872.689
12/24/2013  05:04:00      -22.703       -0.427       -4.305       13.610       11.885       11.412      185.236      141.243      130.240        0.050        0.023       22.707        9.844        0.188      331.876        0.173      872.662
12/24/2013  05:05:00      -30.997       -0.944       -3.816       17.996        6.675        5.143      323.871       44.561       26.451        0.069        0.020       31.012        6.037        0.038      331.783        0.021      872.643
12/24/2013  05:06:00      -53.931       -2.530       -6.978        8.829       10.647        7.238       77.948      113.351       52.389        0.160        0.012       53.990        4.225        0.006      331.768       -0.004      872.634
12/24/2013  05:07:00      -41.346        4.058       -7.122       13.103       13.089        7.362      171.690      171.315       54.196        0.109        0.020       41.545        7.057        0.029      331.718       -0.085      872.623
12/24/2013  05:08:00      -62.008       18.890       -7.089       12.485       15.172        8.669      155.863      230.204       75.156        0.236        0.023       64.821        2.040        0.001      331.657       -0.186      872.608
12/24/2013  05:09:00      -65.973        5.458       -2.391       23.106       15.423       11.758      533.896      237.864      138.261        0.265        0.046       66.199        9.559        0.021      331.632       -0.226      872.599
12/24/2013  05:10:00      -71.558       12.772       -0.275       25.509       19.314       11.107      650.691      373.028      123.356        0.322        0.057       72.689        9.226        0.016      331.588       -0.300      872.616
12/24/2013  05:11:00      -84.271       33.053       -4.472       18.682       12.716       13.483      349.013      161.695      181.804        0.445        0.035       90.521        4.026        0.002      331.637       -0.218      872.629
12/24/2013  05:12:00      -44.929       29.715       -1.775       17.223       14.294       12.176      296.641      204.331      148.252        0.178        0.032       53.866        9.510        0.031      331.716       -0.091      872.631
12/24/2013  05:13:00      -34.589       13.775       -1.172       19.886       12.177        9.596      395.450      148.284       92.081        0.101        0.032       37.231        7.872        0.045      331.680       -0.147      872.616
12/24/2013  05:14:00      -38.174        8.241       -3.611       15.570       11.024        6.527      242.416      121.524       42.601        0.097        0.020       39.053        2.996        0.006      331.579       -0.314      872.604
12/24/2013  05:15:00       -8.503        3.722        0.257        8.420        4.657        4.557       70.904       21.685       20.767        0.010        0.006        9.282        3.823        0.170      331.511       -0.428      872.606
12/24/2013  05:16:00       -5.551       -4.051        4.869       11.466        5.056        5.621      131.460       25.565       31.595        0.013        0.009        6.872        5.777        0.707      331.472       -0.491      872.627
12/24/2013  05:17:00        8.338        8.910        8.882        8.104        9.031        5.602       65.676       81.556       31.386        0.020        0.009       12.203        2.652        0.047      331.505       -0.438      872.642
12/24/2013  05:18:00      -23.546        4.027        0.080       26.056        8.632        6.695      678.912       74.512       44.823        0.068        0.040       23.888       10.777        0.204      331.559       -0.346      872.646
12/24/2013  05:19:00      -57.859        4.820       -4.549       13.595       10.734        6.454      184.820      115.220       41.648        0.187        0.017       58.060        5.063        0.008      331.612       -0.261      872.635
12/24/2013  05:20:00      -59.892       -0.699       -6.292       11.395       10.959        8.667      129.838      120.102       75.121        0.198        0.016       59.896        7.174        0.014      331.556       -0.353      872.641
12/24/2013  05:21:00      -53.163      -17.215       -6.045       13.175        8.695        9.219      173.592       75.598       84.986        0.175        0.017       55.881        3.923        0.005      331.475       -0.488      872.667
12/24/2013  05:22:00      -62.309      -17.007      -12.133        9.378        9.081        7.643       87.940       82.470       58.412        0.227        0.011       64.588        2.319        0.001      331.417       -0.582      872.686
12/24/2013  05:23:00      -38.106      -29.110      -12.286       23.158       11.699        9.010      536.285      136.861       81.175        0.160        0.038       47.953        2.774        0.003      331.444       -0.538      872.682
12/24/2013  05:24:00      -27.516      -24.607       -1.604       19.228       13.328       13.711      369.734      177.628      187.978        0.105        0.037       36.914       11.172        0.092      331.433       -0.557      872.678
12/24/2013  05:25:00      -40.373      -22.174       -4.859       14.537       11.876       10.277      211.325      141.034      105.615        0.130        0.023       46.062        5.408        0.014      331.411       -0.591      872.677
12/24/2013  05:26:00      -42.206       -8.358       -0.420       15.924       10.719        8.744      253.570      114.900       76.452        0.115        0.022       43.026        7.909        0.034      331.392       -0.624      872.684
12/24/2013  05:27:00      -37.305       -6.874       -6.691        7.819        8.877        6.892       61.143       78.807       47.505        0.084        0.009       37.933        2.814        0.006      331.439       -0.544      872.682
12/24/2013  05:28:00      -39.430        1.556       -8.012        7.260        6.067        4.464       52.705       36.809       19.927        0.087        0.005       39.461        2.867        0.005      331.487       -0.467      872.683
12/24/2013  05:29:00      -46.066       -5.709       -6.901        8.426        7.809        6.342       70.993       60.976       40.226        0.119        0.009       46.418        4.312        0.009      331.489       -0.463      872.672
12/24/2013  05:30:00      -56.486      -10.945      -10.088       11.100        8.923        6.227      123.217       79.622       38.780        0.183        0.012       57.536        3.548        0.004      331.442       -0.542      872.661
12/24/2013  05:31:00      -73.923      -23.977       -6.185       11.201       15.457        9.141      125.453      238.926       83.553        0.326        0.022       77.714        4.346        0.003      331.374       -0.652      872.646
12/24/2013  05:32:00      -82.391      -33.837      -11.111       15.783       14.306       11.704      249.090      204.651      136.987        0.432        0.030       89.068        9.643        0.012      331.351       -0.690      872.642
12/24/2013  05:33:00      -73.218       -8.082       -2.710       18.753       16.593       10.143      351.690      275.324      102.877        0.308        0.036       73.662        6.526        0.008      331.352       -0.688      872.647
12/24/2013  05:34:00      -98.063        9.707       -9.461       15.024       10.546        8.016      225.725      111.210       64.251        0.510        0.020       98.542        5.577        0.003      331.389       -0.628      872.677
12/24/2013  05:35:00      -43.541        8.480      -10.795       21.419       11.066        7.601      458.794      122.457       57.769        0.136        0.032       44.359        2.622        0.003      331.361       -0.674      872.719
12/24/2013  05:36:00      -13.261        6.259       -1.897       14.515        6.619        6.900      210.682       43.810       47.610        0.026        0.015       14.664        7.729        0.278      331.472       -0.491      872.757
12/24/2013  05:37:00        4.637       -1.986       -2.360       10.573        6.131        6.285      111.778       37.593       39.503        0.011        0.009        5.045        6.476        1.648      331.634       -0.223      872.779
12/24/2013  05:38:00      -18.665       -0.885       -5.283       14.417        6.429        9.065      207.837       41.327       82.176        0.035        0.017       18.686        8.638        0.214      331.605       -0.269      872.773
12/24/2013  05:39:00      -57.504      -13.953       -8.379       22.541       10.106        7.916      508.091      102.140       62.665        0.212        0.034       59.173        6.828        0.013      331.508       -0.434      872.752
12/24/2013  05:40:00      -74.128      -17.387      -11.547       12.036        9.529        7.727      144.867       90.805       59.712        0.311        0.015       76.139        2.488        0.001      331.318       -0.743      872.711
12/24/2013  05:41:00      -95.068      -15.707      -11.169       19.379       18.276        9.295      375.539      334.017       86.406        0.510        0.040       96.356        7.127        0.005      331.305       -0.764      872.669
12/24/2013  05:42:00     -138.483      -22.408      -14.653       20.479       17.466       13.136      419.399      305.056      172.549        1.040        0.045      140.284        7.713        0.003      331.196       -0.946      872.649
12/24/2013  05:43:00     -122.994       -8.729       -7.725       38.236       25.614       21.452     1462.001      656.058      460.183        0.892        0.129      123.303       21.539        0.031      331.142       -1.033      872.647
12/24/2013  05:44:00      -95.088        3.162       -9.588       30.585       27.948       18.523      935.461      781.091      343.108        0.560        0.103       95.141       14.941        0.025      331.175       -0.980      872.661
12/24/2013  05:45:00      -57.568        1.417       -8.976       37.240       16.024       11.851     1386.824      256.769      140.446        0.259        0.089       57.586       14.077        0.060      331.163       -0.998      872.680
12/24/2013  05:46:00      -48.915        7.304       -7.229       21.835       16.308       13.226      476.755      265.940      174.937        0.171        0.046       49.457        9.839        0.040      331.370       -0.659      872.711
12/24/2013  05:47:00      -67.501       29.460      -11.585       17.534       14.501       11.284      307.427      210.275      127.333        0.310        0.032       73.649        7.670        0.011      331.534       -0.388      872.730
12/24/2013  05:48:00      -72.734       20.663      -12.530       21.022       14.856       13.478      441.912      220.692      181.664        0.336        0.042       75.612       12.104        0.026      331.464       -0.503      872.726
12/24/2013  05:49:00      -67.844      -18.456      -10.387       14.294       11.833        9.452      204.321      140.026       89.348        0.274        0.022       70.309        7.396        0.011      331.300       -0.774      872.722
12/24/2013  05:50:00      -60.897      -21.314      -13.631        7.937       13.977        6.862       62.999      195.345       47.085        0.233        0.015       64.520        5.834        0.008      331.186       -0.962      872.711
12/24/2013  05:51:00      -70.250      -28.918      -15.585       11.957       10.167        9.561      142.961      103.363       91.409        0.318        0.017       75.969        3.821        0.003      331.180       -0.972      872.694
12/24/2013  05:52:00     -109.840      -35.617      -11.855       33.443       24.298       15.390     1118.446      590.379      236.843        0.771        0.097      115.471       10.455        0.008      331.239       -0.874      872.671
12/24/2013  05:53:00     -137.144      -54.645      -12.677       22.284       28.990       22.990      496.586      840.419      528.525        1.191        0.093      147.630       12.053        0.007      331.213       -0.916      872.644
12/24/2013  05:54:00     -102.807      -46.849      -13.877       28.251       25.926       17.026      798.113      672.132      289.883        0.736        0.088      112.978       11.922        0.011      331.185       -0.963      872.618
12/24/2013  05:55:00      -54.579      -51.570       -8.009       40.179       31.545       22.450     1614.349      995.067      503.995        0.441        0.156       75.089       19.023        0.064      331.195       -0.946      872.603
12/24/2013  05:56:00      -41.686      -36.056        0.873       34.347       26.497       20.015     1179.724      702.084      400.609        0.266        0.114       55.116       17.149        0.097      331.186       -0.963      872.602
12/24/2013  05:57:00      -56.038      -43.195       -5.844       24.965       26.480       13.851      623.254      701.169      191.863        0.328        0.076       70.754       15.026        0.045      331.185       -0.963      872.609
12/24/2013  05:58:00      -53.687       -7.506        3.494       26.066       16.644       12.891      679.455      277.008      166.172        0.204        0.056       54.209       11.783        0.047      331.195       -0.945      872.628
12/24/2013  05:59:00      -32.392       -3.596       -0.094       12.436        7.287        8.542      154.653       53.102       72.968        0.067        0.014       32.591        6.630        0.041      331.225       -0.897      872.645
12/24/2013  06:00:00      -35.006       -7.772       -7.628        9.565        6.272        5.117       91.491       39.335       26.186        0.075        0.008       35.859        4.941        0.019      331.337       -0.711      872.666
12/24/2013  06:01:00      -68.251       -5.036      -11.370       10.692        9.978        7.858      114.325       99.558       61.750        0.254        0.014       68.436        5.009        0.005      331.346       -0.699      872.685
12/24/2013  06:02:00      -77.847      -17.686      -12.112       19.045       13.712       11.772      362.724      188.012      138.576        0.360        0.034       79.831       11.460        0.021      331.459       -0.512      872.708
12/24/2013  06:03:00      -37.396      -25.479       -1.231       29.898       14.445       12.256      893.868      208.657      150.221        0.165        0.063       45.251       13.499        0.089      331.474       -0.490      872.736
12/24/2013  06:04:00       21.691      -25.092        6.485       11.298       13.367       10.770      127.634      178.681      116.001        0.078        0.021       33.168        5.197        0.025      331.571       -0.327      872.762
12/24/2013  06:05:00       27.409       13.280       13.598       11.627       19.603       12.350      135.186      384.293      152.534        0.089        0.034       30.457       11.477        0.142      331.510       -0.429      872.779
12/24/2013  06:06:00        0.091        4.711       21.269        7.806        8.587        5.119       60.928       73.744       26.208        0.032        0.008        4.712        3.995        0.719      331.525       -0.405      872.789
12/24/2013  06:07:00        1.177        4.532       11.418        8.222        7.633        7.826       67.600       58.268       61.247        0.017        0.009        4.682        3.372        0.519      331.537       -0.383      872.800
12/24/2013  06:08:00       -1.714       11.628       29.641        8.237       13.617        9.276       67.856      185.426       86.049        0.068        0.017       11.753       10.007        0.725      331.545       -0.370      872.812
12/24/2013  06:09:00       19.034       35.925       45.062       18.183       17.446       11.006      330.629      304.377      121.125        0.222        0.038       40.656        7.799        0.037      331.507       -0.435      872.824
12/24/2013  06:10:00       25.549       23.343       26.838       24.537       18.524       13.319      602.045      343.155      177.390        0.152        0.056       34.608       11.133        0.103      331.430       -0.562      872.829
12/24/2013  06:11:00       10.787        8.631       33.191       19.870       24.405       16.575      394.802      595.623      274.747        0.128        0.063       13.815       17.515        1.607      331.391       -0.624      872.831
12/24/2013  06:12:00        0.180       -0.214       28.953       12.575       20.432       12.139      158.142      417.451      147.354        0.078        0.036        0.279        8.938     1024.259      331.543       -0.374      872.826
12/24/2013  06:13:00       20.182      -60.744        6.798       16.560       22.007       12.867      274.226      484.287      165.553        0.253        0.046       64.009        8.865        0.019      331.780        0.016      872.795
12/24/2013  06:14:00       27.020      -58.512        0.689       15.751       23.125       14.187      248.098      534.788      201.283        0.257        0.049       64.449        8.850        0.019      331.777        0.010      872.762
12/24/2013  06:15:00        8.800      -30.269        9.237       14.316       30.252       15.921      204.936      915.197      253.480        0.123        0.069       31.522       13.389        0.180      331.649       -0.199      872.746
12/24/2013  06:16:00       11.421       24.774       29.402       17.189       17.274       14.515      295.450      298.385      210.673        0.121        0.040       27.280       12.455        0.208      331.532       -0.393      872.747
12/24/2013  06:17:00       44.829       26.012       15.418       30.430       13.697       20.477      925.994      187.618      419.291        0.223        0.077       51.829       20.670        0.159      331.504       -0.438      872.762
12/24/2013  06:18:00       53.128       28.603        7.780       14.947       16.470       19.623      223.412      271.273      385.060        0.229        0.044       60.339       13.664        0.051      331.385       -0.633      872.788
12/24/2013  06:19:00       61.242       28.114       10.915       17.251       16.398       15.450      297.582      268.893      238.715        0.273        0.040       67.387        6.277        0.009      331.352       -0.687      872.804
12/24/2013  06:20:00       60.637       37.553       16.965       16.130       11.096       13.241      260.178      123.126      175.316        0.297        0.028       71.324        7.851        0.012      331.333       -0.717      872.815
12/24/2013  06:21:00       41.398       36.268        1.728       21.885       16.786       11.511      478.967      281.778      132.513        0.196        0.045       55.038       10.875        0.039      331.228       -0.892      872.830
12/24/2013  06:22:00       24.650       17.087       -4.853       16.795       20.259       10.529      282.083      410.430      110.864        0.086        0.040       29.993       10.434        0.121      331.228       -0.891      872.830
12/24/2013  06:23:00       23.825       16.954       -1.690        5.688        7.651        9.362       32.353       58.543       87.646        0.052        0.009       29.242        6.987        0.057      331.347       -0.698      872.819
12/24/2013  06:24:00        3.202        9.132       -1.700        5.514        5.925        2.820       30.406       35.108        7.950        0.008        0.004        9.677        2.354        0.059      331.452       -0.523      872.819
12/24/2013  06:25:00      -23.247        1.273        4.630        7.107        4.159        5.027       50.514       17.294       25.275        0.033        0.005       23.282        3.029        0.017      331.284       -0.798      872.828
12/24/2013  06:26:00        1.118        3.146        5.122        4.816        4.406        4.444       23.199       19.416       19.750        0.005        0.003        3.339        3.037        0.827      331.302       -0.771      872.860
12/24/2013  06:27:00        7.570       11.632       17.639       11.345        8.610        8.021      128.711       74.124       64.341        0.039        0.013       13.878        7.039        0.257      331.300       -0.774      872.878
12/24/2013  06:28:00        6.547       -7.184        3.893        8.231       18.938        9.761       67.753      358.642       95.276        0.032        0.026        9.720       10.342        1.132      331.379       -0.644      872.902
12/24/2013  06:29:00      -27.523      -25.273       -7.661       18.287        9.062        6.640      334.416       82.116       44.088        0.096        0.023       37.366        5.784        0.024      331.491       -0.460      872.893
12/24/2013  06:30:00      -56.736      -23.141      -13.464        8.327        8.793        6.982       69.332       77.320       48.754        0.207        0.010       61.274        4.264        0.005      331.268       -0.825      872.879
12/24/2013  06:31:00      -68.674      -19.510      -10.910       10.855        9.872        7.544      117.823       97.448       56.906        0.274        0.014       71.392        3.435        0.002      331.243       -0.867      872.867
12/24/2013  06:32:00      -69.481      -15.992       -5.127       15.956       13.196        9.109      254.579      174.144       82.981        0.281        0.026       71.297        6.662        0.009      331.247       -0.862      872.868
12/24/2013  06:33:00      -77.200        3.436      -11.922       10.028        9.643        7.551      100.561       92.982       57.024        0.318        0.013       77.276        3.563        0.002      331.184       -0.964      872.880
12/24/2013  06:34:00      -66.183        9.148      -10.328       13.879        9.700        8.926      192.639       94.094       79.680        0.247        0.018       66.813        4.296        0.004      331.194       -0.948      872.898
12/24/2013  06:35:00      -31.873        1.769       -7.063       11.221        5.278        6.398      125.917       27.861       40.938        0.063        0.010       31.922        2.982        0.009      331.289       -0.790      872.918
12/24/2013  06:36:00       15.600       29.103       11.029       25.757       19.905       12.516      663.423      396.216      156.640        0.121        0.061       33.021        6.321        0.037      331.402       -0.606      872.948
12/24/2013  06:37:00       42.741       44.903        1.063       20.730       23.672       17.108      429.719      560.347      292.692        0.256        0.064       61.992       14.825        0.057      331.244       -0.867      872.989
12/24/2013  06:38:00       25.284       37.008       -0.618       24.033       21.946       16.325      577.563      481.618      266.508        0.167        0.066       44.820       11.467        0.065      331.118       -1.074      873.007
12/24/2013  06:39:00       16.749       44.778       -5.276       15.234       20.542       12.018      232.076      421.991      144.427        0.156        0.040       47.808        8.350        0.031      331.256       -0.846      873.001
12/24/2013  06:40:00        3.195       35.124      -10.153        7.986       11.418        6.127       63.772      130.364       37.544        0.079        0.012       35.269        6.535        0.034      331.417       -0.581      872.956
12/24/2013  06:41:00      -43.397      -27.362      -10.535       28.936       15.156       10.552      837.299      229.713      111.344        0.196        0.059       51.303       12.577        0.060      331.335       -0.717      872.883
12/24/2013  06:42:00     -110.034      -60.977      -10.634       19.412       13.209       13.674      376.831      174.479      186.979        0.834        0.037      125.800       10.786        0.007      331.078       -1.138      872.829
12/24/2013  06:43:00     -118.116      -44.566      -13.366       20.968       24.585       11.521      439.672      604.411      132.739        0.865        0.059      126.244        7.872        0.004      331.044       -1.194      872.805
12/24/2013  06:44:00      -71.841       -9.319       -6.743       28.467       18.425       15.001      810.381      339.472      225.038        0.333        0.069       72.443       15.482        0.046      331.035       -1.210      872.829
12/24/2013  06:45:00      -96.894        1.554      -11.313       15.476       11.810       10.977      239.492      139.476      120.488        0.501        0.025       96.907        7.530        0.006      331.092       -1.116      872.862
12/24/2013  06:46:00      -90.037       -0.418       -9.275       18.535       11.261       14.452      343.562      126.813      208.862        0.444        0.034       90.038       10.922        0.015      331.107       -1.092      872.872
12/24/2013  06:47:00      -96.747       -3.728       -7.128       27.959       21.099       14.703      781.690      445.150      216.185        0.543        0.072       96.819       14.019        0.021      331.089       -1.121      872.859
12/24/2013  06:48:00     -104.193      -12.068       -5.033       35.746       21.128       17.445     1277.784      446.372      304.317        0.653        0.101      104.889       15.427        0.022      331.129       -1.055      872.834
12/24/2013  06:49:00     -111.653       -6.506      -10.156       23.593       18.795       15.774      556.607      353.237      248.815        0.689        0.058      111.842       11.532        0.011      331.066       -1.159      872.826
12/24/2013  06:50:00      -90.865        5.093       -3.073       34.432       17.896       19.761     1185.592      320.258      390.479        0.509        0.095       91.008       19.868        0.048      331.129       -1.055      872.840
12/24/2013  06:51:00      -72.558        8.321       -8.943       32.344       19.875       12.779     1046.106      395.021      163.292        0.351        0.080       73.034        9.064        0.015      331.220       -0.905      872.874
12/24/2013  06:52:00      -39.225        1.782       -1.349       14.544        9.997        9.900      211.529       99.945       98.017        0.098        0.020       39.266        3.929        0.010      331.292       -0.787      872.910
12/24/2013  06:53:00      -39.605       23.780      -12.789       13.137       16.270        7.155      172.588      264.706       51.189        0.139        0.024       46.196        6.559        0.020      331.469       -0.498      872.943
12/24/2013  06:54:00      -33.415        7.632       -8.619       10.811       12.502        7.937      116.879      156.312       62.993        0.079        0.017       34.275        3.728        0.012      331.523       -0.407      872.948
12/24/2013  06:55:00      -22.582      -10.771       -6.346       22.436       11.348        7.642      503.376      128.780       58.404        0.068        0.035       25.019        8.342        0.111      331.488       -0.465      872.941
12/24/2013  06:56:00      -64.222      -34.628      -13.758       16.132       13.274       10.845      260.226      176.201      117.619        0.303        0.028       72.963        2.573        0.001      331.344       -0.702      872.914
12/24/2013  06:57:00      -64.962      -38.107      -20.534       20.358       16.566       13.852      414.454      274.448      191.888        0.349        0.044       75.314        5.496        0.005      331.217       -0.911      872.899
12/24/2013  06:58:00      -74.192       -6.101       -8.756       18.937       19.781       11.134      358.627      391.277      123.965        0.325        0.044       74.442        8.364        0.013      331.210       -0.922      872.915
12/24/2013  06:59:00      -75.940        6.025      -10.836       16.789       15.945       10.655      281.857      254.258      113.522        0.329        0.032       76.179        7.633        0.010      331.337       -0.713      872.950
12/24/2013  07:00:00      -44.888        2.572      -11.892       10.470        7.239        7.510      109.617       52.398       56.393        0.119        0.011       44.962        2.500        0.003      331.204       -0.931      872.992
12/24/2013  07:01:00      -27.601      -10.259       -7.013       10.119        6.917        6.177      102.397       47.843       38.157        0.055        0.009       29.446        5.926        0.041      331.407       -0.598      873.022
12/24/2013  07:02:00      -27.023      -20.108      -11.933       12.793       11.216        8.923      163.661      125.805       79.611        0.082        0.018       33.683        6.344        0.035      331.337       -0.712      873.034
12/24/2013  07:03:00      -47.778      -21.406      -13.848       14.054        9.555        7.150      197.523       91.294       51.117        0.164        0.017       52.354        7.523        0.021      331.276       -0.813      873.019
12/24/2013  07:04:00      -66.968      -24.780       -9.880        9.038        9.341        7.486       81.692       87.246       56.038        0.271        0.011       71.406        5.283        0.005      331.072       -1.149      872.999
12/24/2013  07:05:00      -71.624       -7.482      -12.995       17.436       20.963       10.178      304.017      439.460      103.583        0.310        0.042       72.014        7.672        0.011      331.096       -1.109      873.003
12/24/2013  07:06:00      -85.949       24.202      -12.502       25.317       15.653       15.047      640.944      245.014      226.406        0.462        0.056       89.291        9.814        0.012      331.193       -0.951      873.040
12/24/2013  07:07:00      -17.141       22.632       -3.929       35.214        9.138        7.802     1240.044       83.500       60.865        0.110        0.069       28.390       12.215        0.185      331.306       -0.763      873.089
12/24/2013  07:08:00       32.396       24.911       -0.926        5.141        9.415        5.137       26.430       88.647       26.391        0.091        0.007       40.867        4.559        0.012      331.628       -0.232      873.126
12/24/2013  07:09:00       24.892       12.455        1.733       14.708       11.400       12.158      216.321      129.966      147.820        0.064        0.025       27.834       11.049        0.158      331.481       -0.477      873.130
12/24/2013  07:10:00       -1.993        2.263        4.351        5.011       10.944       12.056       25.114      119.763      145.356        0.016        0.015        3.015       10.400       11.899      331.365       -0.667      873.110
12/24/2013  07:11:00      -49.610      -20.621      -10.227       22.534        9.489        5.786      507.769       90.032       33.477        0.181        0.032       53.725        8.051        0.022      331.286       -0.796      873.058
12/24/2013  07:12:00      -87.590      -29.619      -11.330       20.756       17.255        8.719      430.818      297.749       76.012        0.474        0.040       92.463        6.804        0.005      331.087       -1.123      873.019
12/24/2013  07:13:00      -89.363      -20.442       -8.086       33.334       22.253       16.532     1111.154      495.195      273.312        0.517        0.094       91.671       15.742        0.029      331.000       -1.269      873.004
12/24/2013  07:14:00      -68.110       -0.766       -3.308       21.368       18.692       14.855      456.579      349.392      220.680        0.284        0.051       68.114       10.314        0.023      330.989       -1.285      873.019
12/24/2013  07:15:00      -70.541       -9.520       -8.487       13.930       11.289        8.906      194.052      127.451       79.317        0.277        0.020       71.181        6.728        0.009      330.995       -1.275      873.048
12/24/2013  07:16:00      -63.255       -1.397       -7.139        8.910        9.150        6.851       79.389       83.722       46.941        0.213        0.011       63.270        4.828        0.006      331.039       -1.203      873.079
12/24/2013  07:17:00      -60.529       -1.474      -15.727        7.132       10.389        7.982       50.871      107.925       63.705        0.207        0.011       60.547        3.157        0.003      331.291       -0.788      873.096
12/24/2013  07:18:00      -65.706      -13.434      -15.034       11.220       10.254        8.434      125.894      105.135       71.136        0.251        0.015       67.066        4.991        0.006      331.206       -0.928      873.094
12/24/2013  07:19:00      -73.678      -16.752      -13.252       11.795        8.481        7.937      139.112       71.934       62.991        0.308        0.014       75.559        4.345        0.003      331.171       -0.987      873.098
12/24/2013  07:20:00      -66.015       -6.725       -9.634       23.162       19.412       13.748      536.492      376.828      189.021        0.280        0.055       66.357        9.833        0.022      331.055       -1.177      873.103
12/24/2013  07:21:00      -43.138        0.027       -5.980       14.289       14.984       10.108      204.179      224.518      102.178        0.121        0.027       43.138        6.080        0.020      331.040       -1.201      873.121
12/24/2013  07:22:00      -43.889        2.803      -10.982       29.182       11.071        8.251      851.569      122.570       68.075        0.155        0.052       43.979        9.135        0.043      331.343       -0.702      873.130
12/24/2013  07:23:00      -57.085      -19.684      -14.705       18.379        7.465        7.591      337.799       55.728       57.620        0.216        0.023       60.383        9.014        0.022      331.174       -0.981      873.128
12/24/2013  07:24:00      -98.522      -17.075      -19.416       19.264       14.374        9.877      371.120      206.607       97.564        0.553        0.034       99.990        3.725        0.001      331.026       -1.225      873.121
12/24/2013  07:25:00     -108.187      -28.161      -15.562       15.669       16.036       16.652      245.515      257.146      277.286        0.676        0.039      111.792        5.606        0.003      330.942       -1.361      873.121
12/24/2013  07:26:00      -67.084      -35.250       -9.154       12.593       15.814       11.594      158.585      250.086      134.416        0.318        0.027       75.781        7.101        0.009      330.949       -1.350      873.129
12/24/2013  07:27:00      -60.926      -27.528      -11.262       15.945       20.252       14.751      254.253      410.130      217.582        0.274        0.044       66.857        8.081        0.015      331.023       -1.230      873.147
12/24/2013  07:28:00      -81.341      -18.354       -6.707       20.264        8.933       12.110      410.648       79.807      146.660        0.382        0.032       83.386       11.736        0.020      331.120       -1.069      873.172
12/24/2013  07:29:00      -62.295      -21.502       -6.032       12.152       16.627       10.918      147.672      276.452      119.198        0.246        0.027       65.902        6.651        0.010      331.101       -1.101      873.202
12/24/2013  07:30:00      -85.186      -33.276      -13.824        9.546       14.942        9.444       91.133      223.273       89.185        0.448        0.020       91.455        6.377        0.005      331.153       -1.015      873.221
12/24/2013  07:31:00      -92.461      -45.861       -1.712       18.674       15.473       14.651      348.726      239.401      214.654        0.573        0.040      103.210       11.295        0.012      331.155       -1.013      873.224
12/24/2013  07:32:00      -62.381      -46.469        2.139       32.905       19.984       12.679     1082.722      399.361      160.764        0.385        0.082       77.787       14.408        0.034      331.217       -0.910      873.237
12/24/2013  07:33:00      -46.487      -18.216       -4.369       19.266       17.719        9.696      371.162      313.970       94.005        0.165        0.039       49.929        2.376        0.002      331.250       -0.855      873.273
12/24/2013  07:34:00      -10.106      -20.038        0.314       12.235        6.730       10.188      149.695       45.292      103.788        0.040        0.015       22.443        5.921        0.070      331.476       -0.485      873.311
12/24/2013  07:35:00      -10.047      -23.283        5.534       12.994       10.922        9.721      168.848      119.286       94.491        0.053        0.019       25.358        8.506        0.113      331.656       -0.186      873.324
12/24/2013  07:36:00      -67.320      -19.586       -9.778       15.444        8.793        7.042      238.510       77.314       49.583        0.269        0.018       70.112        5.398        0.006      331.379       -0.644      873.312
12/24/2013  07:37:00     -108.570      -37.686       -8.612       15.808       20.798       10.009      249.904      432.536      100.184        0.703        0.039      114.924        6.021        0.003      331.241       -0.870      873.285
12/24/2013  07:38:00      -99.872      -52.017       -6.565       17.355       19.435       11.357      301.194      377.722      128.970        0.677        0.040      112.606        6.156        0.003      331.187       -0.959      873.269
12/24/2013  07:39:00      -63.234      -23.796       -2.471       13.528       19.365       10.661      183.000      375.012      113.664        0.262        0.034       67.564        4.747        0.005      331.146       -1.027      873.266
12/24/2013  07:40:00      -74.388      -19.001       -9.780       21.883       16.353       11.027      478.846      267.406      121.603        0.343        0.043       76.776        5.559        0.005      331.167       -0.993      873.256
12/24/2013  07:41:00      -85.908      -39.634       -9.186       21.520       14.901       13.452      463.091      222.025      180.967        0.495        0.043       94.610       12.674        0.018      331.259       -0.841      873.244
12/24/2013  07:42:00     -103.376      -42.595       -6.683       18.338       23.502       13.342      336.292      552.341      178.004        0.681        0.053      111.808       11.097        0.010      331.287       -0.795      873.239
12/24/2013  07:43:00      -99.405      -46.307       -4.424       19.956       18.452       11.502      398.261      340.489      132.291        0.646        0.044      109.661        7.361        0.005      331.244       -0.865      873.241
12/24/2013  07:44:00      -67.963      -50.533        0.146       36.895       19.704       18.703     1361.256      388.266      349.794        0.464        0.105       84.691       19.677        0.054      331.235       -0.879      873.244
12/24/2013  07:45:00      -48.175      -32.439        3.212       30.066       17.151       17.371      903.975      294.166      301.761        0.244        0.075       58.079       15.579        0.072      331.300       -0.774      873.266
12/24/2013  07:46:00      -77.448      -32.319       -4.185       22.470       17.749       11.375      504.883      315.026      129.397        0.400        0.047       83.921        9.548        0.013      331.276       -0.813      873.290
12/24/2013  07:47:00      -84.245      -16.518       -4.073       32.043       17.402       14.292     1026.769      302.816      204.274        0.446        0.077       85.849       15.899        0.034      331.284       -0.799      873.311
12/24/2013  07:48:00      -84.516      -16.998       -2.583       30.086       16.245       15.332      905.160      263.909      235.066        0.442        0.070       86.208       13.290        0.024      331.279       -0.808      873.346
12/24/2013  07:49:00     -118.399      -17.647       -9.574       19.626       16.391       14.787      385.192      268.651      218.659        0.765        0.044      119.707       11.954        0.010      331.300       -0.774      873.351
12/24/2013  07:50:00      -90.344      -38.630       -0.858       25.166       19.483       13.372      633.326      379.578      178.818        0.542        0.060       98.256       11.492        0.014      331.309       -0.758      873.359
12/24/2013  07:51:00      -18.110      -21.742        9.309       27.940       21.640       14.428      780.621      468.303      208.168        0.117        0.073       28.297       14.860        0.276      331.487       -0.466      873.341
12/24/2013  07:52:00       -9.525       -0.521        7.930       13.994       10.805       11.332      195.843      116.752      128.425        0.030        0.022        9.539       10.060        1.112      331.705       -0.107      873.338
12/24/2013  07:53:00      -37.000       -4.817       -1.764       21.637       14.051       12.596      468.168      197.420      158.649        0.111        0.041       37.312       12.100        0.105      331.653       -0.191      873.329
12/24/2013  07:54:00      -44.359      -30.426       -3.630       14.389       13.411        8.262      207.044      179.846       68.253        0.168        0.023       53.791        4.627        0.007      331.663       -0.177      873.327
12/24/2013  07:55:00      -65.766      -25.380       -3.643       12.935       11.865        9.313      167.326      140.789       86.736        0.269        0.020       70.494        7.773        0.012      331.620       -0.246      873.340
12/24/2013  07:56:00      -72.658      -27.869       -1.831       15.858       15.212       11.335      251.485      231.399      128.487        0.334        0.031       77.819        9.523        0.015      331.619       -0.249      873.359
12/24/2013  07:57:00      -59.504      -30.288       -0.415       16.625       21.877        9.079      276.403      478.593       82.433        0.265        0.042       66.769        4.979        0.006      331.594       -0.289      873.395
12/24/2013  07:58:00      -33.417      -30.017        0.076       23.555       20.664       11.514      554.826      426.985      132.583        0.157        0.056       44.919       10.945        0.059      331.697       -0.121      873.437
12/24/2013  07:59:00      -34.338      -16.401       -0.476       12.393       17.472       12.317      153.582      305.278      151.697        0.103        0.031       38.054       10.639        0.078      331.754       -0.027      873.443
12/24/2013  08:00:00      -49.389      -13.312       -4.822       13.918        8.859        8.065      193.723       78.478       65.041        0.149        0.017       51.152        5.464        0.011      331.744       -0.044      873.446
12/24/2013  08:01:00      -61.126      -32.340       -6.117       15.597       13.890        8.846      243.265      192.941       78.243        0.267        0.026       69.154        5.100        0.005      331.748       -0.036      873.445
12/24/2013  08:02:00      -82.292      -25.869       -2.350       14.989       11.351        7.526      224.665      128.840       56.640        0.393        0.021       86.262        4.819        0.003      331.760       -0.018      873.450
12/24/2013  08:03:00      -37.563      -20.142       -0.894       13.267       13.955        6.032      176.020      194.740       36.381        0.111        0.020       42.622        5.563        0.017      331.777        0.011      873.455
12/24/2013  08:04:00      -21.736       -9.857       -0.582        9.066       12.036        5.575       82.196      144.876       31.076        0.041        0.013       23.866        4.907        0.042      331.827        0.093      873.484
12/24/2013  08:05:00      -18.167      -14.735       -1.735       13.538       10.639       11.710      183.290      113.187      137.134        0.049        0.022       23.392       10.219        0.191      331.859        0.146      873.512
12/24/2013  08:06:00      -40.750        0.284       -4.121       17.867        7.772        5.972      319.223       60.397       35.667        0.105        0.021       40.751        4.823        0.014      331.809        0.063      873.537
12/24/2013  08:07:00      -57.862        2.483       -2.180       11.262        9.223        5.660      126.840       85.067       32.034        0.180        0.012       57.915        3.442        0.004      331.824        0.089      873.541
12/24/2013  08:08:00      -66.735       11.042       -5.037        9.321        6.344        5.812       86.883       40.246       33.781        0.238        0.008       67.642        3.143        0.002      331.888        0.194      873.519
12/24/2013  08:09:00      -68.724        8.085       -4.902        8.748        7.291        4.091       76.536       53.156       16.736        0.248        0.007       69.198        0.753        0.000      331.932        0.264      873.508
12/24/2013  08:10:00      -47.088       10.554        1.723       14.526       12.699       10.109      210.993      161.260      102.185        0.140        0.024       48.256        9.642        0.040      332.002        0.381      873.524
12/24/2013  08:11:00       -7.917        3.045       11.194       10.095        9.600        9.279      101.917       92.153       86.092        0.024        0.014        8.482        5.918        0.487      332.409        1.053      873.541
12/24/2013  08:12:00       -0.400       -6.146        8.301        8.696        7.525        7.218       75.616       56.620       52.095        0.015        0.009        6.160        5.977        0.942      332.492        1.190      873.534
12/24/2013  08:13:00      -39.691      -21.674       -5.935       12.043       11.188        5.969      145.029      125.163       35.625        0.119        0.015       45.223        4.351        0.009      331.980        0.345      873.502
12/24/2013  08:14:00      -72.198       -9.410       -3.633       25.541       20.583       13.330      652.356      423.664      177.696        0.328        0.063       72.809       10.725        0.022      331.874        0.169      873.468
12/24/2013  08:15:00      -66.554       -2.297        1.926       23.016       20.785       16.444      529.756      432.036      270.402        0.284        0.062       66.593       14.849        0.050      331.816        0.076      873.467
12/24/2013  08:16:00      -57.203       13.984       -1.857       24.505       16.732       14.726      600.493      279.973      216.841        0.228        0.055       58.887       10.920        0.034      331.890        0.198      873.490
12/24/2013  08:17:00      -47.385       24.973       -2.959       21.392       21.841       15.374      457.633      477.046      236.357        0.202        0.059       53.562        9.047        0.029      332.115        0.567      873.515
12/24/2013  08:18:00      -62.775       30.487       -7.570       14.722       16.638       10.834      216.752      276.834      117.378        0.277        0.031       69.786        7.000        0.010      332.241        0.776      873.525
12/24/2013  08:19:00      -55.194       -8.314       -7.268       12.860       16.303        7.977      165.385      265.783       63.636        0.183        0.025       55.817        3.929        0.005      332.116        0.571      873.512
12/24/2013  08:20:00      -79.230      -15.428       -5.708       25.142       25.692       15.559      632.131      660.099      242.084        0.404        0.077       80.718       12.886        0.025      331.994        0.369      873.492
12/24/2013  08:21:00     -110.245       -7.700       -9.092       33.910       25.319       18.500     1149.882      641.045      342.268        0.721        0.107      110.514       16.692        0.023      331.997        0.372      873.478
12/24/2013  08:22:00     -150.797       -4.975      -14.128       22.404       17.510       14.538      501.955      306.609      211.359        1.199        0.051      150.879       12.252        0.007      332.052        0.465      873.467
12/24/2013  08:23:00      -91.910      -36.190       -2.711       34.716       32.777       16.101     1205.182     1074.299      259.236        0.615        0.127       98.778       17.272        0.031      332.095        0.535      873.464
12/24/2013  08:24:00      -95.279      -13.876      -11.476       24.085       16.030       13.290      580.111      256.954      176.626        0.521        0.051       96.284       10.104        0.011      332.140        0.608      873.473
12/24/2013  08:25:00      -74.743      -12.963       -2.992       15.546       21.108       12.523      241.687      445.556      156.823        0.330        0.042       75.858        7.393        0.009      332.196        0.703      873.498
12/24/2013  08:26:00      -86.576       -6.075       -6.626       31.390       21.489       12.657      985.307      461.775      160.189        0.459        0.080       86.789       13.905        0.026      332.235        0.767      873.508
12/24/2013  08:27:00      -55.462       -7.200       -7.268       31.524       14.125       13.250      993.739      199.526      175.550        0.227        0.068       55.927       14.228        0.065      332.265        0.815      873.523
12/24/2013  08:28:00      -78.223       -9.545       -5.611       20.783       22.755       16.932      431.951      517.775      286.697        0.374        0.062       78.803       15.525        0.039      332.294        0.864      873.542
12/24/2013  08:29:00      -74.531      -17.552       -8.285       14.737       11.251        9.742      217.188      126.585       94.914        0.319        0.022       76.569        6.102        0.006      332.416        1.063      873.560
12/24/2013  08:30:00      -71.138      -20.520      -11.409        9.048       15.048       10.455       81.872      226.454      109.301        0.301        0.021       74.038        7.276        0.010      332.480        1.170      873.571
12/24/2013  08:31:00      -51.089      -35.011       -7.420       25.464       21.104       13.280      648.431      445.398      176.365        0.258        0.064       61.934       10.612        0.029      332.535        1.260      873.564
12/24/2013  08:32:00      -30.172      -50.724        4.116       26.812       22.928       17.309      718.883      525.679      299.593        0.252        0.077       59.019       15.863        0.072      332.564        1.308      873.544
12/24/2013  08:33:00      -40.819      -37.964       -0.047       22.915       19.013       14.331      525.092      361.499      205.388        0.210        0.055       55.745       13.373        0.058      332.613        1.389      873.519
12/24/2013  08:34:00      -28.676      -24.363       -4.743       13.837       17.452        7.223      191.476      304.576       52.178        0.099        0.027       37.628        4.548        0.015      332.655        1.460      873.502
12/24/2013  08:35:00      -34.412       -5.341      -10.861        5.854        5.866        7.913       34.268       34.411       62.621        0.073        0.007       34.824        3.356        0.009      332.757        1.627      873.495
12/24/2013  08:36:00      -28.636       -3.806       -2.797        3.775        4.600        2.996       14.252       21.163        8.978        0.044        0.002       28.888        1.509        0.003      332.812        1.720      873.517
12/24/2013  08:37:00      -21.536        0.109       -4.232        4.696        3.994        4.966       22.055       15.954       24.662        0.027        0.003       21.536        3.774        0.031      332.894        1.854      873.538
12/24/2013  08:38:00       -7.677        0.847        4.516        5.670        2.419        8.358       32.149        5.851       69.850        0.009        0.005        7.723        4.793        0.385      333.336        2.586      873.543
12/24/2013  08:39:00       35.320       20.215       11.755       29.134       14.514       14.874      848.803      210.663      221.250        0.154        0.064       40.696       17.427        0.183      333.267        2.470      873.555
12/24/2013  08:40:00       55.542       32.784       16.477       25.166       18.546       25.434      633.341      343.941      646.907        0.303        0.081       64.496       16.983        0.069      333.167        2.304      873.573
12/24/2013  08:41:00       41.883       63.385       51.537       28.123       42.553       28.819      790.900     1810.756      830.549        0.593        0.172       75.972       22.790        0.090      333.229        2.407      873.582
12/24/2013  08:42:00       70.928       71.053       43.579       47.128       31.772       37.756     2221.030     1009.458     1425.524        0.832        0.233      100.395       32.749        0.106      333.093        2.183      873.587
12/24/2013  08:43:00       42.621       70.742       64.468       45.134       25.353       30.770     2037.081      642.782      946.801        0.730        0.181       82.590       21.544        0.068      333.155        2.284      873.576
12/24/2013  08:44:00       44.785       59.617       58.589       35.220       31.192       26.173     1240.468      972.945      685.007        0.595        0.145       74.565       20.898        0.079      333.018        2.058      873.561
12/24/2013  08:45:00       40.606       73.844       57.538       38.656       29.613       28.878     1494.280      876.903      833.928        0.681        0.160       84.272       23.187        0.076      333.141        2.262      873.549
12/24/2013  08:46:00       21.107       54.057       67.897       26.873       34.147       24.153      722.150     1166.028      583.383        0.522        0.124       58.032       12.048        0.043      333.203        2.364      873.548
12/24/2013  08:47:00       39.710       94.803       82.486       46.346       36.145       26.936     2147.943     1306.450      725.529        1.077        0.209      102.784       24.272        0.056      333.110        2.211      873.541
12/24/2013  08:48:00       57.216       72.769       64.771       50.237       29.450       31.845     2523.741      867.294     1014.130        0.858        0.220       92.569       26.494        0.082      333.052        2.115      873.533
12/24/2013  08:49:00       12.816       19.804       65.488       26.096       46.604       27.995      680.994     2171.911      783.712        0.424        0.182       23.590       31.990        1.839      333.329        2.573      873.518
12/24/2013  08:50:00       51.197      -32.723       18.932       43.205       69.422       35.310     1866.673     4819.394     1246.824        0.599        0.397       60.761       38.297        0.397      333.245        2.434      873.508
12/24/2013  08:51:00       15.771       44.769       78.460       43.528       45.596       44.010     1894.683     2079.012     1936.917        0.716        0.296       47.466       26.513        0.312      333.419        2.721      873.528
12/24/2013  08:52:00       23.511       64.614       82.251       44.258       36.522       26.330     1958.747     1333.830      693.261        0.774        0.199       68.758       18.641        0.074      333.295        2.516      873.549
12/24/2013  08:53:00      103.697       63.665       43.962       44.476       26.978       36.613     1978.103      727.825     1340.481        1.039        0.202      121.681       20.286        0.028      332.945        1.937      873.559
12/24/2013  08:54:00       52.263       48.585       49.868       53.237       43.560       27.966     2834.156     1897.506      782.111        0.655        0.276       71.358       17.411        0.060      333.057        2.123      873.555
12/24/2013  08:55:00       11.858       63.270       62.047       26.436       37.811       24.449      698.872     1429.683      597.735        0.536        0.136       64.372       17.638        0.075      333.224        2.398      873.565
12/24/2013  08:56:00       24.692      -20.916       36.096       38.030       55.495       34.039     1446.317     3079.707     1158.638        0.402        0.284       32.360       36.586        1.278      333.370        2.641      873.562
12/24/2013  08:57:00       48.925        9.440       41.106       40.342       54.593       35.979     1627.459     2980.445     1294.504        0.504        0.295       49.827       33.578        0.454      333.250        2.442      873.564
12/24/2013  08:58:00       36.815       -4.238       42.907       45.632       53.274       42.880     2082.300     2838.090     1838.704        0.499        0.338       37.058       34.203        0.852      333.290        2.510      873.548
12/24/2013  08:59:00       -3.056       71.141       91.350       30.572       36.636       27.632      934.635     1342.189      763.539        0.823        0.152       71.206       26.656        0.140      333.222        2.396      873.540
12/24/2013  09:00:00        5.455       33.508       72.155       38.842       49.161       29.641     1508.739     2416.833      878.596        0.558        0.240       33.949       29.703        0.766      333.357        2.620      873.512
12/24/2013  09:01:00       29.729      -18.894       43.154       34.979       55.703       38.524     1223.499     3102.773     1484.131        0.446        0.291       35.225       39.961        1.287      333.407        2.701      873.490
12/24/2013  09:02:00       67.173       17.577       50.648       43.303       91.567       42.679     1875.150     8384.550     1821.477        0.973        0.604       69.435       51.703        0.554      333.156        2.286      873.478
12/24/2013  09:03:00       52.687       90.590       86.713       51.860       44.841       35.552     2689.486     2010.727     1263.960        1.223        0.298      104.798       32.428        0.096      333.153        2.281      873.499
12/24/2013  09:04:00      109.481       85.362       62.798       63.969       39.002       41.950     4092.016     1521.134     1759.769        1.529        0.369      138.826       39.970        0.083      332.972        1.982      873.540
12/24/2013  09:05:00       85.115       74.381       47.536       67.349       40.259       41.234     4535.947     1620.799     1700.268        1.145        0.393      113.036       27.511        0.059      333.131        2.244      873.568
12/24/2013  09:06:00       90.842       77.830       56.802       59.539       40.251       36.950     3544.851     1620.160     1365.315        1.203        0.327      119.623       22.214        0.034      333.041        2.096      873.585
12/24/2013  09:07:00       74.300      108.019       99.938       47.454       43.235       31.986     2251.866     1869.280     1023.099        1.616        0.257      131.106       31.563        0.058      332.984        2.001      873.582
12/24/2013  09:08:00       87.982       90.573       78.827       63.444       45.515       42.556     4025.194     2071.609     1811.030        1.503        0.395      126.271       42.505        0.113      333.040        2.094      873.572
12/24/2013  09:09:00       32.585       27.483       39.413       79.434       47.337       25.399     6309.761     2240.778      645.114        0.628        0.460       42.628       17.662        0.172      333.157        2.289      873.579
12/24/2013  09:10:00       45.303       71.655       70.201       83.094       42.099       35.457     6904.628     1772.286     1257.163        1.102        0.497       84.775       39.636        0.219      333.211        2.378      873.591
12/24/2013  09:11:00      106.931       80.283       45.927       52.908       46.794       42.083     2799.300     2189.698     1770.958        1.337        0.338      133.714       35.081        0.069      332.944        1.937      873.610
12/24/2013  09:12:00       54.128       76.006       77.822       53.569       54.983       32.460     2869.691     3023.152     1053.676        1.085        0.347       93.310       31.637        0.115      333.061        2.130      873.637
12/24/2013  09:13:00        4.948       -2.818       64.946       33.396       78.929       48.803     1115.260     6229.824     2381.713        0.699        0.486        5.694       53.859       89.466      333.432        2.742      873.646
12/24/2013  09:14:00       97.548       94.562       72.041       42.319       25.573       36.412     1790.921      653.970     1325.828        1.371        0.189      135.858       21.445        0.025      332.928        1.910      873.637
12/24/2013  09:15:00       16.949       71.353       80.895       36.265       46.415       29.060     1315.181     2154.325      844.476        0.812        0.216       73.339       18.198        0.062      333.272        2.480      873.626
12/24/2013  09:16:00      108.765       80.331       53.664       38.457       36.669       37.865     1478.921     1344.634     1433.756        1.271        0.213      135.214       35.965        0.071      332.849        1.779      873.627
12/24/2013  09:17:00       58.293       72.803       45.679       29.825       24.260       34.865      889.503      588.557     1215.552        0.674        0.135       93.265       24.910        0.071      332.973        1.985      873.615
12/24/2013  09:18:00       17.473       26.942       30.168       23.783       26.006       27.433      565.645      676.307      752.545        0.197        0.100       32.112       19.232        0.359      333.221        2.394      873.607
12/24/2013  09:19:00       74.730       73.320       62.107       36.220       23.859       32.390     1311.919      569.250     1049.126        0.887        0.147      104.692       21.446        0.042      332.998        2.025      873.586
12/24/2013  09:20:00       84.823       61.375       34.499       41.314       30.412       37.286     1706.822      924.905     1390.275        0.809        0.201      104.699       29.899        0.082      333.214        2.383      873.570
12/24/2013  09:21:00       52.612       16.148       21.085       40.237       35.880       36.355     1619.041     1287.376     1321.698        0.385        0.211       55.035       32.177        0.342      333.292        2.512      873.570
12/24/2013  09:22:00       64.857       43.967       12.707       28.346       39.193       27.703      803.494     1536.105      767.448        0.470        0.155       78.355       21.997        0.079      333.090        2.177      873.593
12/24/2013  09:23:00       63.923       50.361       18.515       27.349       27.616       27.268      747.948      762.647      743.566        0.461        0.113       81.378        9.839        0.015      333.254        2.449      873.617
12/24/2013  09:24:00       52.395       92.435       -4.310       39.760       35.492       32.700     1580.845     1259.680     1069.290        0.761        0.195      106.252       25.549        0.058      333.352        2.612      873.646
12/24/2013  09:25:00      115.589       63.523        3.247       35.548       26.683       29.410     1263.633      711.979      864.930        1.012        0.142      131.893       19.904        0.023      333.123        2.233      873.671
12/24/2013  09:26:00       71.505       39.431        1.866       31.530       24.778       24.802      994.130      613.945      615.131        0.445        0.111       81.656       17.358        0.045      333.365        2.632      873.675
12/24/2013  09:27:00       74.223       39.857       -4.561       29.876       27.285       20.905      892.546      744.452      437.003        0.460        0.104       84.247       12.229        0.021      333.079        2.159      873.656
12/24/2013  09:28:00       58.413       25.612        6.827       15.163       20.748       20.193      229.908      430.481      407.768        0.259        0.053       63.782        9.002        0.020      333.131        2.245      873.627
12/24/2013  09:29:00       18.688       33.587       10.422       22.935       20.079       21.951      526.036      403.148      481.828        0.150        0.071       38.436        5.785        0.023      333.513        2.877      873.616
12/24/2013  09:30:00       19.560        9.428        1.869       18.857       28.387       22.969      355.584      805.840      527.582        0.108        0.084       21.713        7.615        0.123      333.541        2.922      873.618
12/24/2013  09:31:00       24.947       12.857        7.690       20.581       29.816       22.040      423.589      889.023      485.784        0.132        0.090       28.066       21.937        0.611      333.440        2.757      873.621
12/24/2013  09:32:00       16.966       38.069        7.771       15.877       19.626       20.980      252.076      385.196      440.181        0.144        0.054       41.679       10.810        0.067      333.666        3.131      873.614
12/24/2013  09:33:00       10.944        0.536        0.455       20.034       19.547       15.139      401.348      382.093      229.200        0.057        0.051       10.957       10.290        0.882      333.632        3.074      873.605
12/24/2013  09:34:00      -14.745      -59.956       -8.731        9.030       12.079        8.583       81.537      145.905       73.675        0.209        0.015       61.743        5.810        0.009      333.323        2.562      873.590
12/24/2013  09:35:00      -18.055      -30.655        4.777       28.884       26.037       11.795      834.267      677.906      139.125        0.147        0.083       35.577       13.114        0.136      333.476        2.815      873.596
12/24/2013  09:36:00      -26.141        6.519        4.066       23.972       13.023       15.230      574.647      169.604      231.955        0.086        0.049       26.942       16.304        0.366      333.809        3.368      873.620
12/24/2013  09:37:00       22.621       76.497       19.635       41.156       47.377       43.449     1693.782     2244.592     1887.843        0.629        0.291       79.771       27.349        0.118      333.958        3.614      873.659
12/24/2013  09:38:00       84.184       38.101        8.944       46.871       25.490       34.802     2196.870      649.758     1211.158        0.634        0.203       92.405       26.366        0.081      333.813        3.375      873.699
12/24/2013  09:39:00      102.420       76.108        9.754       33.879       22.987       24.347     1147.771      528.382      592.782        0.932        0.113      127.602       14.305        0.013      333.635        3.079      873.718
12/24/2013  09:40:00       72.093       72.274      -10.824       21.159       17.883       23.739      447.696      319.810      563.534        0.593        0.067      102.083       14.242        0.019      333.499        2.855      873.735
12/24/2013  09:41:00       55.361       48.026        9.862       24.577       24.272       23.494      604.049      589.137      551.981        0.361        0.087       73.289       16.314        0.050      333.829        3.401      873.723
12/24/2013  09:42:00       36.883       29.388       12.572       25.516       31.733       27.220      651.073     1007.007      740.929        0.239        0.120       47.160       23.080        0.240      334.021        3.719      873.700
12/24/2013  09:43:00       23.999       15.951        4.295       27.337       25.687       20.151      747.313      659.833      406.057        0.133        0.091       28.816       13.205        0.210      333.941        3.586      873.688
12/24/2013  09:44:00       16.205       13.986       16.503       17.607       21.673       19.900      310.022      469.733      396.008        0.095        0.059       21.406       15.409        0.518      334.020        3.718      873.679
12/24/2013  09:45:00       -0.352       28.853      -16.437       16.196       26.112       18.089      262.298      681.834      327.216        0.119        0.064       28.855       12.445        0.186      333.965        3.626      873.678
12/24/2013  09:46:00       52.752       63.741        8.227       39.282       25.888       26.248     1543.079      670.176      688.947        0.491        0.145       82.739       14.067        0.029      333.937        3.580      873.683
12/24/2013  09:47:00       56.856       57.658       15.014       40.209       27.889       40.028     1616.746      777.784     1602.241        0.539        0.200       80.976       28.939        0.128      334.057        3.778      873.695
12/24/2013  09:48:00       62.430       55.894        4.933       33.440       31.202       28.230     1118.244      973.538      796.953        0.497        0.144       83.795       15.700        0.035      333.989        3.666      873.687
12/24/2013  09:49:00       44.912       23.662        5.737       21.038       29.802       29.283      442.605      888.178      857.477        0.240        0.109       50.764       23.378        0.212      333.793        3.341      873.664
12/24/2013  09:50:00       26.877      -24.982        2.886       20.245       21.516       29.098      409.859      462.945      846.691        0.154        0.086       36.694       15.445        0.177      334.106        3.860      873.630
12/24/2013  09:51:00        5.452      -54.946       -2.797       20.921       30.179       17.524      437.686      910.758      307.081        0.236        0.083       55.216       14.917        0.073      334.173        3.971      873.594
12/24/2013  09:52:00      -24.606      -38.503        0.792       23.883       33.923       17.288      570.385     1150.803      298.864        0.205        0.101       45.694       13.371        0.086      334.096        3.845      873.570
12/24/2013  09:53:00      -47.961      -16.736       15.927       29.118       23.429       14.731      847.838      548.898      217.010        0.222        0.081       50.797       12.893        0.064      334.253        4.104      873.561
12/24/2013  09:54:00      -10.672       16.465       19.434       34.468       14.009       17.330     1188.075      196.260      300.315        0.122        0.084       19.621       20.841        1.128      334.359        4.280      873.574
12/24/2013  09:55:00        6.044       39.189       64.462       28.457       28.931       25.173      809.824      837.014      633.668        0.400        0.114       39.653       16.529        0.174      334.594        4.669      873.604
12/24/2013  09:56:00       42.628       81.262       81.033       40.605       30.208       22.943     1648.795      912.523      526.400        0.904        0.154       91.764       19.877        0.047      334.294        4.172      873.627
12/24/2013  09:57:00       91.441       62.279       46.369       28.302       29.569       32.664      800.990      874.346     1066.906        0.857        0.137      110.636       16.961        0.024      334.268        4.128      873.645
12/24/2013  09:58:00       28.201       36.445       37.098       37.940       43.459       26.641     1439.430     1888.664      709.764        0.377        0.202       46.082       16.322        0.125      334.480        4.482      873.644
12/24/2013  09:59:00       54.575       45.600       55.486       37.533       37.599       21.911     1408.690     1413.664      480.071        0.572        0.165       71.118        9.113        0.016      334.448        4.427      873.642
12/24/2013  10:00:00       68.876       81.426       74.017       52.096       34.313       32.623     2713.997     1177.374     1064.262        1.090        0.248      106.649       23.253        0.048      334.265        4.124      873.638
12/24/2013  10:01:00       99.653       80.200       27.248       15.999       11.881       18.315      255.973      141.165      335.456        0.892        0.037      127.917        9.614        0.006      333.980        3.651      873.653
12/24/2013  10:02:00       49.194       55.508       49.851       40.580       25.619       28.803     1646.696      656.318      829.624        0.556        0.157       74.170       27.731        0.140      334.361        4.283      873.678
12/24/2013  10:03:00       34.756       72.710       70.316       49.145       38.406       39.896     2415.231     1475.025     1591.661        0.846        0.274       80.590       36.394        0.204      334.537        4.575      873.689
12/24/2013  10:04:00      105.067       99.085       65.513       36.577       25.419       38.490     1337.876      646.122     1481.514        1.431        0.173      144.419       24.302        0.028      334.293        4.171      873.712
12/24/2013  10:05:00       93.968       97.509       70.472       31.158       27.095       35.247      970.810      734.120     1242.375        1.313        0.147      135.417       15.654        0.013      334.266        4.127      873.721
12/24/2013  10:06:00       36.050       78.291       79.922       36.249       32.592       27.342     1314.010     1062.241      747.580        0.847        0.156       86.192       21.983        0.065      334.435        4.407      873.728
12/24/2013  10:07:00       73.095       91.949       68.552       28.416       24.415       24.940      807.456      596.092      622.013        1.026        0.101      117.463       16.249        0.019      334.333        4.236      873.712
12/24/2013  10:08:00       65.767       96.775       62.792       31.874       31.788       34.383     1015.967     1010.475     1182.190        1.042        0.160      117.007       16.866        0.021      334.396        4.342      873.707
12/24/2013  10:09:00       10.718       87.930       81.189       28.580       41.172       34.486      816.819     1695.098     1189.258        0.907        0.185       88.581       24.297        0.075      334.747        4.924      873.711
12/24/2013  10:10:00       46.060      102.588       88.213       57.634       46.169       42.157     3321.675     2131.560     1777.226        1.383        0.362      112.454       31.764        0.080      334.507        4.525      873.698
12/24/2013  10:11:00      104.624       99.412       56.728       54.761       32.142       40.253     2998.714     1033.078     1620.337        1.485        0.283      144.322       42.510        0.087      334.312        4.201      873.694
12/24/2013  10:12:00       44.852       95.330      102.944       35.818       36.374       23.666     1282.937     1323.103      560.082        1.243        0.158      105.354       23.551        0.050      334.409        4.362      873.678
12/24/2013  10:13:00       59.741       90.559       68.366       38.152       29.883       31.885     1455.613      893.002     1016.629        0.990        0.168      108.489       19.488        0.032      334.522        4.551      873.676
12/24/2013  10:14:00       32.728       41.833       51.788       35.935       31.018       28.578     1291.312      962.123      816.678        0.429        0.154       53.114       18.167        0.117      334.687        4.825      873.663
12/24/2013  10:15:00        2.310      -10.520       13.436       34.328       32.910       22.635     1178.401     1083.085      512.348        0.153        0.139       10.771       18.901        3.079      334.909        5.193      873.641
12/24/2013  10:16:00       37.106       62.144       47.853       48.182       37.309       28.703     2321.458     1391.972      823.876        0.603        0.227       72.379       21.132        0.085      334.872        5.131      873.609
12/24/2013  10:17:00       65.776       46.841       26.897       32.945       23.019       27.121     1085.351      529.870      735.572        0.480        0.118       80.750        8.032        0.010      334.806        5.022      873.570
12/24/2013  10:18:00       47.911       63.703       68.982       32.934       34.148       23.345     1084.663     1166.083      544.987        0.695        0.140       79.710       18.830        0.056      334.871        5.129      873.554
12/24/2013  10:19:00       20.588       40.771       50.452       37.600       30.413       16.188     1413.724      924.976      262.064        0.362        0.130       45.674       15.010        0.108      334.949        5.259      873.543
12/24/2013  10:20:00       28.419      -30.686       18.847       33.512       58.854       28.482     1123.067     3463.852      811.198        0.375        0.270       41.824       35.041        0.702      335.022        5.380      873.559
12/24/2013  10:21:00        3.458       25.257       59.651       28.151       37.912       24.845      792.495     1437.351      617.270        0.353        0.142       25.493       21.384        0.704      335.251        5.762      873.546
12/24/2013  10:22:00       -6.262       28.664       64.870       19.172       28.730       21.229      367.575      825.409      450.689        0.336        0.082       29.340       20.465        0.487      335.255        5.768      873.543
12/24/2013  10:23:00      -13.336      -16.799       11.564       20.316       29.897       24.072      412.748      893.826      579.450        0.124        0.094       21.449       20.932        0.952      335.175        5.635      873.523
12/24/2013  10:24:00      -24.517      -58.200      -26.919       30.652       30.450       23.047      939.549      927.209      531.174        0.356        0.120       63.153       24.627        0.152      334.894        5.166      873.488
12/24/2013  10:25:00      -41.598      -31.761       -2.083       25.790       14.358       11.680      665.140      206.161      136.428        0.188        0.050       52.337        5.296        0.010      334.766        4.955      873.458
12/24/2013  10:26:00      -17.700      -18.334        2.359       21.306       13.978       12.362      453.948      195.372      152.810        0.073        0.040       25.483       11.682        0.210      335.008        5.356      873.447
12/24/2013  10:27:00      -67.531      -10.913        1.383       27.428       30.302       18.209      752.289      918.230      331.566        0.334        0.100       68.407        8.468        0.015      334.918        5.208      873.436
12/24/2013  10:28:00      -60.366      -66.203        6.722       37.284       40.238       21.165     1390.081     1619.062      447.967        0.576        0.173       89.593       21.130        0.056      334.927        5.222      873.436
12/24/2013  10:29:00      -42.544      -54.899        8.346       44.535       49.817       24.774     1983.332     2481.691      613.746        0.499        0.254       69.454       32.699        0.222      335.074        5.469      873.429
12/24/2013  10:30:00      -55.084      -42.927       -3.245       26.732       26.655       14.914      714.576      710.505      222.426        0.327        0.082       69.835       14.076        0.041      334.866        5.122      873.417
12/24/2013  10:31:00      -43.572      -15.509        8.589       47.912       35.536       24.249     2295.547     1262.818      587.999        0.318        0.207       46.250       24.496        0.281      335.233        5.731      873.389
12/24/2013  10:32:00      -51.556      -28.952        2.745       52.959       25.957       23.347     2804.638      673.762      545.087        0.376        0.201       59.129       19.571        0.110      335.213        5.698      873.361
12/24/2013  10:33:00      -76.042      -17.732       -3.409       27.025       22.360       19.255      730.347      499.975      370.757        0.385        0.080       78.082       16.359        0.044      335.058        5.438      873.326
12/24/2013  10:34:00      -31.677       -9.473       -7.956       26.974       16.244       14.925      727.577      263.859      222.762        0.119        0.061       33.063        8.328        0.063      335.281        5.812      873.297
12/24/2013  10:35:00      -38.601      -32.036       -1.057       24.224       20.264       15.928      586.798      410.625      253.686        0.188        0.063       50.163       10.492        0.044      335.170        5.626      873.260
12/24/2013  10:36:00      -35.431        5.959       -1.360       33.534       27.264       22.814     1124.545      743.302      520.479        0.184        0.119       35.929       11.365        0.100      335.411        6.027      873.232
12/24/2013  10:37:00      -40.179      -41.113        0.413       32.901       18.698       16.246     1082.494      349.622      263.922        0.250        0.085       57.486       12.606        0.048      335.248        5.754      873.200
12/24/2013  10:38:00      -95.986      -29.327        5.939       25.686       42.314       26.136      659.789     1790.503      683.069        0.662        0.157      100.366       24.721        0.061      335.216        5.703      873.164
12/24/2013  10:39:00      -28.797       26.741       46.314       28.761       20.801       27.349      827.208      432.685      747.946        0.285        0.100       39.298       20.016        0.259      335.705        6.518      873.149
12/24/2013  10:40:00      -11.811       12.702       65.571       14.738       23.878       19.422      217.198      570.150      377.220        0.288        0.058       17.345       15.305        0.779      335.800        6.676      873.152
12/24/2013  10:41:00      -21.937       11.404       38.493       16.883       18.864       16.517      285.036      355.848      272.805        0.150        0.046       24.724       10.941        0.196      335.887        6.821      873.164
12/24/2013  10:42:00      -21.706       19.507       44.297       17.751       24.651       24.545      315.087      607.683      602.472        0.217        0.076       29.184       17.616        0.364      335.945        6.917      873.171
12/24/2013  10:43:00      -23.248      -28.666       15.524       16.769       19.630       14.205      281.192      385.341      201.772        0.124        0.043       36.908       11.647        0.100      335.599        6.341      873.168
12/24/2013  10:44:00       -7.006      -46.312       43.590       21.986       41.227       29.543      483.401     1699.675      872.810        0.357        0.153       46.839       14.974        0.102      335.964        6.949      873.164
12/24/2013  10:45:00      -12.916      -23.717       32.018       30.722       30.700       22.213      943.837      942.487      493.396        0.207        0.119       27.006       17.904        0.440      335.921        6.877      873.161
12/24/2013  10:46:00      -20.715       31.516       44.505       16.519       34.362       24.559      272.862     1180.718      603.130        0.273        0.103       37.714       24.282        0.415      335.880        6.809      873.160
12/24/2013  10:47:00      -35.908       -0.947       21.007       25.060       30.230       28.961      627.988      913.825      838.715        0.206        0.119       35.920       25.518        0.505      335.880        6.809      873.158
12/24/2013  10:48:00      -20.716      -34.877        7.824       32.588       38.528       34.320     1061.957     1484.382     1177.881        0.271        0.186       40.565       30.584        0.568      335.882        6.813      873.151
12/24/2013  10:49:00       -9.912       18.279       22.955       34.731       22.784       26.276     1206.220      519.107      690.443        0.169        0.121       20.793       17.436        0.703      336.010        7.026      873.148
12/24/2013  10:50:00       -6.598       30.451       48.928       16.169       44.881       33.299      261.428     2014.323     1108.846        0.337        0.169       31.157       32.542        1.091      336.267        7.453      873.136
12/24/2013  10:51:00       35.510        4.166       40.346       31.589       55.192       32.572      997.895     3046.200     1060.917        0.400        0.255       35.754       30.756        0.740      336.097        7.171      873.119
12/24/2013  10:52:00       11.208      -11.817       35.614       24.414       76.114       31.840      596.033     5793.343     1013.773        0.447        0.370       16.287       30.665        3.545      336.083        7.146      873.114
12/24/2013  10:53:00       11.035       33.994       51.627       26.134       40.136       46.431      683.005     1610.866     2155.820        0.420        0.222       35.740       32.350        0.819      336.128        7.223      873.115
12/24/2013  10:54:00       16.948       57.982       79.109       28.111       37.538       16.646      790.242     1409.082      277.073        0.619        0.124       60.409       18.362        0.092      335.927        6.885      873.103
12/24/2013  10:55:00        1.763       62.709       69.817       41.997       34.440       37.954     1763.731     1186.079     1440.513        0.660        0.220       62.733       25.520        0.165      336.162        7.278      873.097
12/24/2013  10:56:00       47.050       79.708       70.190       43.632       43.142       45.415     1903.720     1861.202     2062.547        0.966        0.291       92.558       24.224        0.068      336.028        7.054      873.100
12/24/2013  10:57:00       94.907       65.217       79.804       44.861       46.247       41.714     2012.531     2138.754     1740.045        1.276        0.295      115.154       32.389        0.079      335.779        6.641      873.087
12/24/2013  10:58:00       96.224      114.284       83.735       57.175       43.365       46.985     3268.991     1880.480     2207.631        1.834        0.368      149.398       39.380        0.069      335.806        6.684      873.079
12/24/2013  10:59:00       21.498       54.620       82.576       41.743       46.134       26.919     1742.507     2128.350      724.613        0.743        0.230       58.698       26.641        0.206      336.138        7.238      873.063
12/24/2013  11:00:00       39.619       94.498      108.322       59.382       55.892       42.428     3526.174     3123.892     1800.116        1.534        0.423      102.467       42.639        0.173      336.039        7.073      873.042
12/24/2013  11:01:00       60.619       71.422       34.990       35.302       38.472       39.704     1246.198     1480.101     1576.413        0.715        0.215       93.679       30.344        0.105      335.949        6.923      873.030
12/24/2013  11:02:00       51.540       55.112       31.253       51.321       34.481       37.668     2633.837     1188.913     1418.888        0.596        0.262       75.457       27.935        0.137      335.997        7.005      873.009
12/24/2013  11:03:00       21.467       24.547       60.227       44.331       55.210       29.841     1965.198     3048.113      890.479        0.530        0.295       32.610       25.067        0.591      336.269        7.457      872.991
12/24/2013  11:04:00       54.494       45.186       49.116       52.477       37.636       39.969     2753.822     1416.441     1597.501        0.659        0.288       70.791       29.794        0.177      336.105        7.184      872.978
12/24/2013  11:05:00       40.601       67.237       66.335       47.475       50.777       39.124     2253.841     2578.330     1530.649        0.847        0.318       78.544       27.333        0.121      336.163        7.280      872.979
12/24/2013  11:06:00       67.216       73.931       45.051       65.421       33.573       40.203     4279.861     1127.127     1616.298        0.952        0.351       99.919       33.563        0.113      336.145        7.251      872.975
12/24/2013  11:07:00       -3.085       42.108       66.399       31.761       47.382       34.011     1008.778     2245.015     1156.780        0.530        0.221       42.221       31.837        0.569      336.509        7.858      872.989
12/24/2013  11:08:00      -20.611       96.610      127.033       28.358       59.231       37.734      804.202     3508.325     1423.861        1.582        0.287       98.784       39.900        0.163      336.208        7.355      872.999
12/24/2013  11:09:00      124.051      129.695       86.387       56.553       35.940       51.289     3198.241     1291.667     2630.611        2.340        0.356      179.470       38.907        0.047      335.954        6.931      873.023
12/24/2013  11:10:00      128.382      101.246       43.249       35.237       26.459       40.082     1241.636      700.089     1606.603        1.608        0.177      163.501       31.210        0.036      335.851        6.761      873.029
12/24/2013  11:11:00       64.521       72.958       19.477       51.963       33.857       26.840     2700.134     1146.289      720.378        0.722        0.228       97.396       31.575        0.105      335.911        6.859      873.012
12/24/2013  11:12:00       43.772       89.317       92.344       61.400       31.479       33.511     3769.926      990.950     1123.018        1.215        0.294       99.466       23.544        0.056      336.067        7.122      873.004
12/24/2013  11:13:00       40.642       33.196       49.709       51.774       42.441       41.715     2680.528     1801.219     1740.175        0.572        0.311       52.476       37.506        0.511      336.176        7.302      872.972
12/24/2013  11:14:00       63.278       96.768      122.193       78.859       54.935       42.805     6218.802     3017.872     1832.268        1.968        0.553      115.621       46.531        0.162      336.040        7.076      872.974
12/24/2013  11:15:00       59.285      109.816      101.844       44.740       41.520       26.094     2001.681     1723.907      680.884        1.518        0.220      124.797       24.400        0.038      335.880        6.809      872.975
12/24/2013  11:16:00       76.773      120.383       99.741       66.829       37.988       39.248     4466.077     1443.098     1540.410        1.889        0.372      142.780       35.344        0.061      335.930        6.890      872.966
12/24/2013  11:17:00       82.061      137.384      112.027       74.823       48.028       56.147     5598.439     2306.687     3152.451        2.461        0.553      160.027       50.482        0.100      335.932        6.893      872.958
12/24/2013  11:18:00       76.631       84.679      106.248       99.132       71.694       53.461     9827.131     5139.987     2858.132        2.108        0.891      114.205       60.959        0.285      336.019        7.039      872.954
12/24/2013  11:19:00       49.324      124.989      114.231       62.345       44.290       40.499     3886.952     1961.623     1640.151        1.929        0.374      134.369       36.641        0.074      336.152        7.260      872.967
12/24/2013  11:20:00       24.044      136.401      149.204       71.079       64.286       55.666     5052.202     4132.672     3098.702        2.686        0.614      138.504       49.647        0.128      336.074        7.130      872.972
12/24/2013  11:21:00       94.872      135.703      116.831       55.590       67.194       65.877     3090.278     4515.010     4339.713        2.650        0.597      165.577       55.187        0.111      335.911        6.857      872.971
12/24/2013  11:22:00       99.614       53.291        0.279       61.224       39.209       36.312     3748.328     1537.339     1318.581        0.968        0.330      112.973       22.332        0.039      336.206        7.353      872.971
12/24/2013  11:23:00      109.314       88.839       43.251       60.546       48.418       46.509     3665.848     2344.287     2163.127        1.494        0.409      140.862       24.483        0.030      336.308        7.521      872.950
12/24/2013  11:24:00       93.666      114.994       95.692       62.776       53.969       58.049     3940.825     2912.654     3369.716        2.069        0.511      148.314       42.039        0.080      336.391        7.660      872.928
12/24/2013  11:25:00       80.610      117.446       98.042       68.902       62.091       65.712     4747.543     3855.347     4318.068        2.141        0.646      142.448       59.700        0.176      336.096        7.167      872.909
12/24/2013  11:26:00       93.574      141.096      126.979       61.872       59.391       45.828     3828.200     3527.301     2100.165        2.712        0.473      169.305       44.097        0.068      336.102        7.176      872.898
12/24/2013  11:27:00       91.719       86.619      103.644       63.810       67.379       46.832     4071.672     4539.946     2193.278        1.873        0.540      126.156       45.354        0.129      336.079        7.138      872.890
12/24/2013  11:28:00      115.058       74.011       99.949       94.301       91.632       69.560     8892.717     8396.337     4838.604        2.541        1.106      136.807       75.645        0.306      336.109        7.187      872.869
12/24/2013  11:29:00       74.856      101.294       97.462       85.326       62.498       57.102     7280.565     3906.009     3260.634        1.990        0.722      125.952       52.740        0.175      336.131        7.225      872.863
12/24/2013  11:30:00       89.212       57.013       80.069       89.240       78.301       49.583     7963.752     6131.039     2458.467        1.708        0.828      105.874       44.117        0.174      336.146        7.251      872.867
12/24/2013  11:31:00      117.227       84.934       85.647       83.289       71.669       44.285     6937.114     5136.394     1961.136        2.116        0.702      144.762       35.417        0.060      336.160        7.274      872.857
12/24/2013  11:32:00       72.984        3.106       42.205       37.788       39.825       30.530     1427.913     1586.024      932.107        0.553        0.197       73.050       21.812        0.089      336.196        7.335      872.875
12/24/2013  11:33:00       19.142      -19.501       45.199       37.360       54.988       35.865     1395.769     3023.712     1286.278        0.425        0.285       27.326       25.197        0.850      336.481        7.811      872.871
12/24/2013  11:34:00       55.981       -9.094       57.355       57.018      104.247       57.252     3251.008    10867.503     3277.822        1.195        0.870       56.715       69.403        1.497      336.417        7.704      872.869
12/24/2013  11:35:00       51.607       53.049       79.560       51.325       79.636       46.237     2634.256     6341.813     2137.825        1.146        0.556       74.010       50.248        0.461      336.208        7.354      872.855
12/24/2013  11:36:00       39.880        0.062       34.692       32.927       87.537       40.198     1084.210     7662.753     1615.844        0.658        0.518       39.880       49.706        1.553      336.501        7.846      872.835
12/24/2013  11:37:00       21.544       57.289       70.041       50.464       54.587       46.503     2546.637     2979.785     2162.521        0.817        0.384       61.206       40.357        0.435      336.510        7.861      872.830
12/24/2013  11:38:00       55.291       26.196       56.498       60.482       84.855       41.566     3658.117     7200.412     1727.712        0.976        0.629       61.183       39.022        0.407      336.376        7.634      872.816
12/24/2013  11:39:00       59.443      -13.610       41.013       54.766       66.577       45.321     2999.353     4432.545     2053.962        0.744        0.474       60.981       54.215        0.790      336.452        7.763      872.806
12/24/2013  11:40:00       38.579       70.022       87.764       52.634       92.386       49.875     2770.310     8535.140     2487.494        1.394        0.690       79.946       56.622        0.502      336.333        7.565      872.790
12/24/2013  11:41:00       56.264      -66.790       16.185       50.963       84.759       52.308     2597.232     7184.102     2736.111        1.020        0.626       87.330       56.372        0.417      336.480        7.810      872.782
12/24/2013  11:42:00       87.260      -81.858        9.583       35.067       44.811       32.144     1229.664     2007.992     1033.251        0.934        0.214      119.646       27.343        0.052      336.182        7.311      872.783
12/24/2013  11:43:00       35.998       22.703       60.025       45.503       75.712       41.587     2070.505     5732.248     1729.514        0.747        0.477       42.559       45.843        1.160      336.595        8.003      872.782
12/24/2013  11:44:00      107.047       86.130       53.328       56.273       35.196       44.458     3166.609     1238.761     1976.516        1.405        0.319      137.395       31.758        0.053      336.485        7.819      872.780
12/24/2013  11:45:00       56.502       40.994       78.247       42.629       42.729       29.509     1817.204     1825.735      870.797        0.775        0.226       69.807       28.715        0.169      336.415        7.702      872.774
12/24/2013  11:46:00       33.506       -3.829       27.952       35.273       24.149       24.982     1244.154      583.181      624.103        0.218        0.123       33.724       18.302        0.295      336.424        7.717      872.765
12/24/2013  11:47:00       47.946      -87.683      -14.744       24.560       39.009       22.047      603.213     1521.700      486.071        0.641        0.131       99.935       10.599        0.011      336.249        7.422      872.723
12/24/2013  11:48:00       -7.412      -25.325       -6.401       17.048       30.792       17.147      290.646      948.173      294.007        0.113        0.077       26.388       16.360        0.384      336.442        7.747      872.674
12/24/2013  11:49:00      -59.370        7.220      -12.285       28.271       19.216       15.154      799.251      369.257      229.655        0.256        0.070       59.808        9.743        0.027      336.401        7.677      872.634
12/24/2013  11:50:00       -6.595      -27.872       -4.911       26.311       39.380       20.495      692.258     1550.821      420.038        0.175        0.133       28.642        7.317        0.065      336.715        8.202      872.600
12/24/2013  11:51:00        9.260      -21.042       -4.171       30.918       21.263       17.625      955.948      452.124      310.623        0.113        0.086       22.989       12.950        0.317      336.586        7.987      872.586
12/24/2013  11:52:00      -23.145       18.340       21.661       35.364       33.322       53.244     1250.591     1110.324     2834.939        0.327        0.260       29.531       31.720        1.154      336.890        8.495      872.576
12/24/2013  11:53:00       47.210      -33.525       14.993       56.688       47.998       31.558     3213.584     2303.766      995.928        0.504        0.326       57.902       35.319        0.372      336.838        8.409      872.581
12/24/2013  11:54:00       17.979        2.942       21.804       39.763       28.000       29.070     1581.136      783.993      845.093        0.201        0.161       18.218       24.262        1.774      337.063        8.785      872.560
12/24/2013  11:55:00      -43.651        7.607       -0.045       14.830       28.048       17.403      219.943      786.674      302.863        0.164        0.065       44.309       15.357        0.120      336.646        8.088      872.522
12/24/2013  11:56:00      -24.578       20.358        2.013       18.860       21.932       20.366      355.694      481.019      414.787        0.114        0.063       31.914        6.579        0.042      336.902        8.516      872.488
12/24/2013  11:57:00       10.901       12.541        8.286       15.997       15.726       16.109      255.890      247.293      259.505        0.055        0.038       16.617       10.999        0.438      337.216        9.041      872.455
12/24/2013  11:58:00      -43.245      -24.759       -8.468       35.641       21.318       16.829     1270.308      454.449      283.211        0.228        0.100       49.831       12.700        0.065      336.808        8.360      872.433
12/24/2013  11:59:00      -29.457      -39.784       -1.749       55.328       27.287       19.729     3061.138      744.586      389.218        0.332        0.210       49.502       26.835        0.294      336.865        8.453      872.433
12/24/2013  12:00:00      -26.309      -30.647       12.672       40.243       24.871       17.861     1619.472      618.567      319.007        0.217        0.128       40.391       20.726        0.263      337.191        9.000      872.429
12/24/2013  12:01:00      -16.524       -0.354       17.399       26.038       21.523       17.876      677.965      463.261      319.536        0.102        0.073       16.528       15.167        0.842      337.209        9.029      872.422
12/24/2013  12:02:00       -2.525       27.366       37.799       21.956       29.756       21.039      482.072      885.392      442.649        0.200        0.091       27.483       14.923        0.295      337.464        9.456      872.423
12/24/2013  12:03:00      -48.826       -1.654       14.278       15.914       20.340       11.349      253.249      413.725      128.797        0.169        0.040       48.854        4.777        0.010      336.986        8.655      872.403
12/24/2013  12:04:00      -41.092      -21.065        4.515       29.445       39.534       21.697      867.016     1562.943      470.775        0.253        0.145       46.177       13.032        0.080      337.128        8.893      872.388
12/24/2013  12:05:00        0.929        5.161       28.894       20.425       30.189       24.885      417.164      911.354      619.267        0.140        0.097        5.244       13.984        7.112      337.638        9.747      872.379
12/24/2013  12:06:00      -16.940        3.208       44.550       30.257       39.572       19.462      915.465     1565.947      378.752        0.257        0.143       17.241       17.357        1.014      337.423        9.387      872.352
12/24/2013  12:07:00       16.471       47.642       71.071       34.752       31.926       16.531     1207.680     1019.271      273.282        0.505        0.125       50.409       18.851        0.140      337.278        9.144      872.317
12/24/2013  12:08:00      -11.308       15.086       43.708       20.280       26.611       25.063      411.298      708.147      628.133        0.201        0.087       18.854       16.114        0.731      337.502        9.520      872.274
12/24/2013  12:09:00      -53.459       18.983       15.161       44.059       21.472       30.971     1941.222      461.064      959.232        0.340        0.168       56.730       35.648        0.395      337.161        8.949      872.249
12/24/2013  12:10:00        3.435       45.049       10.613       40.316       35.035       25.615     1625.358     1227.485      656.111        0.283        0.175       45.179       15.238        0.114      337.426        9.392      872.220
12/24/2013  12:11:00       39.993       73.224        0.598       25.097       15.282       26.303      629.835      233.532      691.844        0.426        0.078       83.434       15.763        0.036      336.979        8.644      872.221
12/24/2013  12:12:00       20.003       40.034       24.139       20.746       26.509       24.030      430.389      702.705      577.419        0.215        0.086       44.754       11.196        0.063      337.227        9.059      872.219
12/24/2013  12:13:00        7.602        7.815       15.796       16.032       17.884       11.303      257.026      319.852      127.753        0.054        0.035       10.902        4.773        0.192      337.617        9.712      872.203
12/24/2013  12:14:00       12.009      -24.834       14.669       31.322       41.095       23.650      981.081     1688.768      559.334        0.210        0.161       27.585       22.990        0.695      337.635        9.741      872.196
12/24/2013  12:15:00       10.747      -11.954       17.244       28.238       38.830       35.962      797.385     1507.789     1293.272        0.208        0.180       16.075       31.309        3.794      337.693        9.840      872.168
12/24/2013  12:16:00       72.176      -78.871       -3.456       54.830       77.037       35.071     3006.309     5934.640     1229.987        1.080        0.509      106.911       44.745        0.175      337.324        9.221      872.147
12/24/2013  12:17:00       40.557      -23.674       31.673       39.088       71.905       45.665     1527.837     5170.373     2085.279        0.599        0.439       46.961       50.898        1.175      337.637        9.745      872.121
12/24/2013  12:18:00       53.548      -88.611       18.518       61.149       71.690       46.408     3739.203     5139.405     2153.666        1.105        0.552      103.535       40.302        0.152      337.433        9.403      872.128
12/24/2013  12:19:00       36.227       -0.639       45.131       38.742       56.684       41.259     1500.965     3213.039     1702.268        0.488        0.321       36.233       36.370        1.008      337.464        9.455      872.145
12/24/2013  12:20:00       33.743       30.889       48.485       45.580       49.516       40.836     2077.532     2451.803     1667.585        0.532        0.310       45.746       44.338        0.939      337.490        9.499      872.162
12/24/2013  12:21:00       62.829        4.752       37.868       64.964       37.513       37.542     4220.358     1407.208     1409.378        0.622        0.352       63.008       37.284        0.350      337.332        9.235      872.165
12/24/2013  12:22:00       71.568       82.045       68.385       58.027       44.644       43.104     3367.131     1993.109     1857.958        1.187        0.361      108.873       42.287        0.151      337.365        9.290      872.159
12/24/2013  12:23:00       66.091      -10.676       20.565       49.176       65.525       27.262     2418.296     4293.564      743.233        0.618        0.373       66.947       32.566        0.237      337.301        9.183      872.154
12/24/2013  12:24:00       48.376       79.160       85.567       44.228       49.442       31.475     1956.100     2444.544      990.646        1.066        0.270       92.771       31.840        0.118      337.597        9.679      872.125
12/24/2013  12:25:00       69.090      107.549      100.809       69.928       39.468       40.858     4889.891     1557.706     1669.338        1.731        0.406      127.829       43.007        0.113      337.302        9.184      872.105
12/24/2013  12:26:00      116.238      118.835       80.482       69.448       37.390       39.403     4823.050     1398.034     1552.602        2.094        0.389      166.232       37.917        0.052      337.291        9.166      872.076
12/24/2013  12:27:00       72.530      113.085      108.409       49.618       42.591       32.906     2461.921     1814.016     1082.805        1.758        0.268      134.346       13.467        0.010      337.187        8.992      872.069
12/24/2013  12:28:00       84.294       70.072       56.863       51.972       36.381       33.381     2701.050     1323.558     1114.287        1.019        0.257      109.616       28.525        0.068      337.154        8.937      872.071
12/24/2013  12:29:00       24.005       58.653       69.597       47.076       43.268       32.835     2216.171     1872.140     1078.132        0.701        0.258       63.375       25.806        0.166      337.671        9.802      872.066
12/24/2013  12:30:00       58.732       93.719      101.533       56.022       70.509       57.099     3138.444     4971.500     3260.341        1.695        0.569      110.601       56.360        0.260      337.402        9.350      872.057
12/24/2013  12:31:00       82.780       97.543       93.270       41.529       62.460       51.210     1724.682     3901.230     2622.457        1.666        0.412      127.934       44.968        0.124      337.355        9.274      872.044
12/24/2013  12:32:00      115.144       58.944       73.338       63.001       48.449       55.863     3969.181     2347.270     3120.719        1.577        0.472      129.354       30.943        0.057      337.238        9.077      872.030
12/24/2013  12:33:00       77.692       83.640       68.704       43.010       30.712       32.144     1849.900      943.215     1033.210        1.079        0.191      114.156       20.693        0.033      337.239        9.079      872.012
12/24/2013  12:34:00       14.356      -62.324       21.751       45.411       67.352       37.946     2062.141     4536.315     1439.929        0.630        0.402       63.956       37.493        0.344      337.657        9.778      871.990
12/24/2013  12:35:00       91.076     -106.553       -5.557       57.426       95.241       39.700     3297.702     9070.834     1576.129        1.681        0.697      140.173       47.000        0.112      337.483        9.486      871.992
12/24/2013  12:36:00       91.364     -102.803       -4.916       59.752       98.496       50.221     3570.294     9701.480     2522.157        1.736        0.790      137.534       65.379        0.226      337.380        9.315      871.988
12/24/2013  12:37:00       44.957      -10.663       -9.835       69.944       96.359       45.640     4892.202     9284.982     2083.001        0.924        0.813       46.205       36.954        0.640      337.578        9.646      871.974
12/24/2013  12:38:00        3.692       66.719       78.948       57.187       66.937       64.191     3270.350     4480.509     4120.425        1.128        0.594       66.822       57.685        0.745      337.750        9.934      871.974
12/24/2013  12:39:00       82.857       72.348       63.083       72.500       62.289       48.209     5256.282     3879.909     2324.073        1.377        0.573      109.998       44.738        0.165      337.491        9.500      871.948
12/24/2013  12:40:00       64.873       49.006       15.489       35.826       30.274       34.397     1283.538      916.496     1183.147        0.512        0.169       81.303       19.343        0.057      337.594        9.673      871.924
12/24/2013  12:41:00       15.081       17.534       18.781       15.726       16.837       19.810      247.323      283.493      392.417        0.091        0.046       23.128       10.731        0.215      337.575        9.641      871.901
12/24/2013  12:42:00       49.337       18.237       34.844       40.551       66.286       40.264     1644.354     4393.885     1621.203        0.582        0.383       52.600       39.683        0.569      337.704        9.857      871.883
12/24/2013  12:43:00       22.133       54.007       95.407       54.942       53.208       36.142     3018.592     2831.136     1306.232        0.983        0.358       58.367       38.525        0.436      337.594        9.674      871.887
12/24/2013  12:44:00       42.140       19.890       53.072       53.777       70.609       42.023     2891.955     4985.667     1765.957        0.731        0.482       46.598       43.141        0.857      337.560        9.616      871.899
12/24/2013  12:45:00       94.121      113.245      101.802       74.830       69.351       70.590     5599.485     4809.566     4982.985        2.372        0.770      147.252       64.202        0.190      337.343        9.253      871.914
12/24/2013  12:46:00      133.423       95.791       65.251       52.605       41.726       49.614     2767.294     1741.037     2461.564        1.910        0.348      164.249       34.204        0.043      337.357        9.276      871.910
12/24/2013  12:47:00       43.847       54.847       56.904       56.690       43.408       36.514     3213.745     1884.272     1333.268        0.730        0.322       70.220       24.683        0.124      337.618        9.714      871.904
12/24/2013  12:48:00      161.278       70.744       12.001       72.056       42.248       32.861     5192.035     1784.857     1079.873        1.961        0.403      176.112       15.417        0.008      337.217        9.039      871.885
12/24/2013  12:49:00       73.913       74.745       69.576       56.344       51.020       42.901     3174.605     2603.030     1840.510        1.175        0.381      105.119       36.146        0.118      337.532        9.570      871.864
12/24/2013  12:50:00       56.184       40.437       36.418       44.348       34.477       29.412     1966.759     1188.654      865.045        0.507        0.201       69.223       24.494        0.125      337.473        9.470      871.835
12/24/2013  12:51:00       91.156       20.551       50.078       54.652       56.841       39.065     2986.872     3230.918     1526.077        0.949        0.387       93.444       34.894        0.139      337.483        9.487      871.803
12/24/2013  12:52:00       47.743       66.518       23.298       37.824       24.863       23.946     1430.688      618.157      573.420        0.493        0.131       81.879       24.125        0.087      337.395        9.339      871.789
12/24/2013  12:53:00       43.534      -45.962       -3.204       31.391       38.446       23.393      985.404     1478.069      547.220        0.351        0.151       63.307       20.485        0.105      337.617        9.711      871.791
12/24/2013  12:54:00       19.272       -0.669        9.645       22.045       43.192       19.803      485.996     1865.566      392.153        0.160        0.137       19.284       17.143        0.790      337.824       10.059      871.798
12/24/2013  12:55:00       33.971       21.945       32.822       30.114       38.954       27.404      906.863     1517.377      750.960        0.294        0.159       40.443       28.985        0.514      337.928       10.232      871.806
12/24/2013  12:56:00       33.651       50.647       54.529       39.499       41.374       40.096     1560.133     1711.799     1607.687        0.577        0.244       60.808       32.921        0.293      338.053       10.444      871.805
12/24/2013  12:57:00       80.764       30.242       16.832       54.090       53.867       41.169     2925.752     2901.670     1694.905        0.762        0.376       86.240       19.683        0.052      337.970       10.304      871.791
12/24/2013  12:58:00      163.676      108.392       18.850       42.234       43.505       42.431     1783.672     1892.711     1800.431        2.218        0.274      196.313       19.237        0.010      337.536        9.574      871.772
12/24/2013  12:59:00       59.523       46.892       12.875       69.605       30.654       30.296     4844.882      939.687      917.864        0.630        0.335       75.775       26.266        0.120      337.584        9.656      871.754
12/24/2013  13:00:00       -2.095       12.476       -7.537       44.869       24.359       23.048     2013.190      593.340      531.221        0.168        0.157       12.650       25.970        4.215      337.748        9.930      871.721
12/24/2013  13:01:00       51.225       35.788       36.066       46.788       73.042       40.555     2189.089     5335.200     1644.707        0.719        0.458       62.488       40.891        0.428      337.841       10.088      871.707
12/24/2013  13:02:00       12.257      -12.108       41.368       37.398       80.931       46.978     1398.607     6549.906     2206.919        0.608        0.508       17.229       45.993        7.126      338.012       10.375      871.711
12/24/2013  13:03:00       20.609       48.174       54.722       39.161       48.541       38.032     1533.615     2356.194     1446.426        0.554        0.267       52.397       26.222        0.250      338.079       10.486      871.713
12/24/2013  13:04:00       68.622       74.247       59.756       69.522       42.692       39.232     4833.344     1822.634     1539.186        1.099        0.410      101.102       24.252        0.058      337.904       10.193      871.731
12/24/2013  13:05:00      107.312       89.974       36.037       56.777       44.366       37.303     3223.620     1968.355     1391.526        1.375        0.329      140.040       36.025        0.066      337.730        9.902      871.743
12/24/2013  13:06:00       71.004       90.445       50.428       63.413       54.369       69.994     4021.162     2956.020     4899.218        1.382        0.594      114.986       45.966        0.160      337.806       10.029      871.746
12/24/2013  13:07:00      131.783      141.960      108.948      100.174       83.306       81.291    10034.767     6939.907     6608.282        3.648        1.179      193.700       78.180        0.163      337.633        9.736      871.732
12/24/2013  13:08:00      204.459      141.999       71.370       63.160       58.777       52.912     3989.197     3454.773     2799.652        3.865        0.512      248.932       36.422        0.021      337.542        9.582      871.732
12/24/2013  13:09:00       56.932       40.516       68.387       86.067       68.764       59.358     7407.556     4728.491     3523.335        1.261        0.783       69.877       49.380        0.499      337.831       10.071      871.737
12/24/2013  13:10:00      108.756       76.502       53.718       67.783       55.004       57.116     4594.514     3025.404     3262.294        1.572        0.544      132.968       47.929        0.130      337.739        9.916      871.748
12/24/2013  13:11:00       73.901       39.455        8.738       71.840       47.888       33.596     5160.923     2293.299     1128.703        0.784        0.429       83.774       20.851        0.062      337.700        9.850      871.753
12/24/2013  13:12:00       45.846       76.943       90.003       61.520       66.181       54.502     3784.663     4379.981     2970.416        1.363        0.557       89.566       48.298        0.291      337.775        9.977      871.737
12/24/2013  13:13:00       48.941       29.566       65.620       55.467       63.979       48.192     3076.627     4093.358     2322.472        0.853        0.475       57.179       45.539        0.634      337.787        9.997      871.748
12/24/2013  13:14:00      118.787      -81.233       13.205       87.708       60.018       47.133     7692.626     3602.140     2221.566        1.720        0.676      143.907       50.154        0.121      337.793       10.006      871.733
12/24/2013  13:15:00       95.451      -80.493       18.428       85.266       99.126       56.477     7270.209     9825.945     3189.702        1.810        1.014      124.860       74.738        0.358      337.926       10.229      871.725
12/24/2013  13:16:00       91.330      -72.805        4.795       51.621       50.871       34.761     2664.737     2587.901     1208.307        1.006        0.323      116.798       42.292        0.131      337.690        9.835      871.734
12/24/2013  13:17:00       78.385      -63.005       16.932       46.976       69.376       40.860     2206.704     4813.033     1669.567        0.954        0.434      100.568       36.474        0.132      337.796       10.013      871.726
12/24/2013  13:18:00      121.527      113.227       93.148       63.811       68.481       49.983     4071.793     4689.647     2498.250        2.376        0.563      166.100       37.548        0.051      337.675        9.808      871.718
12/24/2013  13:19:00       83.059       87.856       95.786       57.660       78.578       51.624     3324.634     6174.544     2665.033        1.798        0.608      120.902       54.204        0.201      337.739        9.917      871.718
12/24/2013  13:20:00       85.214       83.342       81.051       62.187       62.275       50.488     3867.182     3878.232     2549.000        1.553        0.515      119.195       51.273        0.185      337.847       10.097      871.724
12/24/2013  13:21:00       44.822       97.867       73.769       57.823       45.122       47.770     3343.501     2036.009     2281.961        1.234        0.383      107.643       43.426        0.163      337.992       10.340      871.724
12/24/2013  13:22:00      107.070       73.311       13.716       70.936       41.539       44.941     5031.904     1725.454     2019.662        1.290        0.439      129.764       24.149        0.035      338.076       10.481      871.726
12/24/2013  13:23:00       37.533       63.044       53.522       49.175       42.223       57.521     2418.225     1782.758     3308.622        0.788        0.375       73.371       33.558        0.209      338.075       10.479      871.720
12/24/2013  13:24:00       66.585       70.772       71.885       58.502       44.758       51.060     3422.456     2003.280     2607.137        1.132        0.402       97.171       49.986        0.265      338.117       10.550      871.716
12/24/2013  13:25:00       41.945       37.154       20.123       46.837       34.294       27.533     2193.717     1176.102      758.078        0.384        0.206       56.034       14.472        0.067      337.948       10.268      871.719
12/24/2013  13:26:00       29.541       61.859        0.718       26.618       45.539       23.098      708.536     2073.763      533.497        0.401        0.166       68.551       18.304        0.071      337.910       10.203      871.700
12/24/2013  13:27:00        1.481       82.026      -14.044       41.652       24.718       17.920     1734.906      610.978      321.125        0.480        0.133       82.039        9.731        0.014      337.761        9.953      871.695
12/24/2013  13:28:00       43.574       60.100      -13.955       37.533       34.562       22.791     1408.709     1194.526      519.430        0.441        0.156       74.234       19.474        0.069      338.040       10.421      871.678
12/24/2013  13:29:00       -5.198        2.822        8.630       23.932       26.546       18.783      572.727      704.681      352.802        0.087        0.082        5.914       17.026        8.287      338.418       11.056      871.665
12/24/2013  13:30:00       28.295       21.608       17.328       22.631       15.397       17.917      512.165      237.067      321.004        0.132        0.054       35.602       10.115        0.081      338.123       10.562      871.642
12/24/2013  13:31:00       10.034      -38.935       29.798       25.857       47.229       27.978      668.561     2230.547      782.777        0.309        0.184       40.207       24.902        0.384      338.443       11.099      871.637
12/24/2013  13:32:00       80.138       82.095       57.115       63.352       41.372       64.858     4013.440     1711.672     4206.506        1.318        0.497      114.725       57.161        0.248      337.922       10.224      871.643
12/24/2013  13:33:00       40.133       -0.799       34.074       35.899       69.625       43.216     1288.745     4847.629     1867.636        0.539        0.400       40.141       46.487        1.341      337.994       10.343      871.645
12/24/2013  13:34:00       67.174       81.115       89.462       60.085       38.973       40.213     3610.222     1518.899     1617.105        1.292        0.337      105.318       30.545        0.084      338.041       10.425      871.635
12/24/2013  13:35:00      103.910       92.382       69.690       39.993       36.533       28.565     1599.410     1334.636      815.951        1.397        0.187      139.038       22.063        0.025      337.926       10.230      871.633
12/24/2013  13:36:00       72.867       56.789       56.346       37.440       38.459       39.962     1401.733     1479.124     1596.997        0.809        0.224       92.383       29.865        0.105      337.978       10.319      871.635
12/24/2013  13:37:00       39.203      -49.423      -11.487       14.672       15.913       15.227      215.268      253.225      231.867        0.241        0.035       63.083        9.588        0.023      337.804       10.025      871.639
12/24/2013  13:38:00       55.403      -58.883        1.385       30.819       26.142       18.255      949.830      683.389      333.263        0.425        0.098       80.849        5.952        0.005      337.925       10.228      871.635
12/24/2013  13:39:00       11.862        1.842       30.826       17.850       42.528       17.202      318.627     1808.592      295.904        0.176        0.121       12.004       10.839        0.815      338.310       10.875      871.630
12/24/2013  13:40:00      -12.508       44.560      -15.834       18.421       23.983       15.143      339.322      575.187      229.318        0.177        0.057       46.282        5.050        0.012      337.989       10.336      871.616
12/24/2013  13:41:00        1.764       11.584        9.828       13.668       12.088       11.549      186.821      146.131      133.390        0.035        0.023       11.718        9.694        0.684      338.425       11.068      871.611
12/24/2013  13:42:00       29.565       15.390        4.278       23.240       19.487       15.884      540.111      379.744      252.312        0.115        0.059       33.331        9.954        0.089      338.313       10.880      871.596
12/24/2013  13:43:00      -21.503      -15.485       -2.405       16.600       30.127       14.666      275.547      907.638      215.097        0.105        0.070       26.498       10.868        0.168      338.572       11.315      871.590
12/24/2013  13:44:00       66.262       13.826       25.490       46.828       38.329       31.203     2192.879     1469.133      973.637        0.493        0.232       67.689       25.515        0.142      338.274       10.812      871.591
12/24/2013  13:45:00       59.386       50.700       50.351       45.224       33.069       32.631     2045.183     1093.534     1064.807        0.642        0.210       78.085       17.104        0.048      338.417       11.054      871.585
12/24/2013  13:46:00       13.478       30.545       56.490       38.777       37.772       30.474     1503.667     1426.728      928.680        0.408        0.193       33.386       23.312        0.488      338.592       11.348      871.591
12/24/2013  13:47:00      101.818       70.790        6.149       57.178       43.710       40.159     3269.282     1910.553     1612.760        1.110        0.340      124.009       10.491        0.007      338.316       10.884      871.591
12/24/2013  13:48:00       72.743       83.960       -3.787       70.154       61.133       33.137     4921.609     3737.282     1098.072        1.105        0.488      111.089       31.648        0.081      338.165       10.632      871.604
12/24/2013  13:49:00       56.999       48.779       -4.792       38.290       30.817       32.931     1466.161      949.684     1084.480        0.458        0.175       75.022       22.006        0.086      338.193       10.678      871.576
12/24/2013  13:50:00       39.611       34.154       17.187       44.018       31.034       29.179     1937.606      963.101      851.422        0.339        0.188       52.302       26.701        0.261      338.507       11.205      871.583
12/24/2013  13:51:00       64.407       37.937       57.957       49.845       41.974       30.658     2484.553     1761.819      939.918        0.707        0.259       74.749       26.383        0.125      338.441       11.095      871.581
12/24/2013  13:52:00       81.081       61.848       52.726       26.031       31.064       25.997      677.634      964.976      675.822        0.775        0.116      101.977       17.971        0.031      338.275       10.816      871.569
12/24/2013  13:53:00       17.545       34.016       40.699       39.528       38.615       33.596     1562.430     1491.108     1128.714        0.365        0.209       38.275       28.730        0.563      338.612       11.383      871.558
12/24/2013  13:54:00       21.494       12.621       27.402       38.210       37.480       30.053     1460.007     1404.763      903.203        0.257        0.188       24.926       22.460        0.812      338.738       11.595      871.553
12/24/2013  13:55:00       81.370      102.611       79.336       64.816       51.245       60.576     4201.139     2626.068     3669.411        1.697        0.525      130.959       58.337        0.198      338.236       10.751      871.536
12/24/2013  13:56:00      128.053       72.906       33.582       57.163       47.227       47.751     3267.622     2230.385     2280.191        1.531        0.389      147.353       25.147        0.029      338.174       10.645      871.535
12/24/2013  13:57:00       77.132       65.255       51.520       36.171       44.777       41.709     1308.346     2004.939     1739.628        0.896        0.253      101.033       34.132        0.114      338.269       10.805      871.543
12/24/2013  13:58:00       62.419       89.244       68.693       55.896       49.182       47.907     3124.333     2418.893     2295.128        1.221        0.392      108.906       37.521        0.119      338.380       10.992      871.544
12/24/2013  13:59:00        8.331      -26.723       35.189       30.730       55.007       32.219      944.334     3025.719     1038.070        0.351        0.250       27.991       32.402        1.340      338.798       11.693      871.542
12/24/2013  14:00:00       83.870      -68.506       25.102       70.245       68.132       46.509     4934.293     4641.903     2163.055        1.205        0.587      108.293       53.158        0.241      338.459       11.125      871.551
12/24/2013  14:01:00       94.265       64.004       74.318       55.333       86.448       53.536     3061.734     7473.262     2866.154        1.595        0.670      113.940       55.738        0.239      338.379       10.990      871.565
12/24/2013  14:02:00       94.305       95.897       19.659       75.601       39.902       43.613     5715.477     1592.149     1902.054        1.384        0.460      134.498       41.648        0.096      338.247       10.767      871.570
12/24/2013  14:03:00       48.691       47.885       11.737       35.002       29.739       25.128     1225.141      884.433      631.401        0.377        0.137       68.292       14.577        0.046      338.425       11.069      871.574
12/24/2013  14:04:00       73.001       68.325       60.906       46.525       45.485       50.369     2164.560     2068.904     2537.042        1.024        0.339       99.987       27.960        0.078      338.509       11.208      871.588
12/24/2013  14:05:00      119.515       79.976        9.230       57.245       30.074       28.141     3277.002      904.446      791.916        1.287        0.249      143.806       12.694        0.008      338.274       10.812      871.603
12/24/2013  14:06:00        6.861       37.449      -18.287       43.756       27.451       16.361     1914.553      753.558      267.682        0.236        0.147       38.072       16.159        0.180      338.222       10.725      871.597
12/24/2013  14:07:00       13.472      -29.198        1.389       10.695       13.657       13.264      114.390      186.520      175.937        0.076        0.024       32.156        7.995        0.062      338.291       10.844      871.575
12/24/2013  14:08:00       40.402       33.571       15.975       26.025       23.096       21.433      677.325      533.414      459.354        0.234        0.084       52.529       14.976        0.081      338.384       10.999      871.565
12/24/2013  14:09:00       84.849       51.130       49.558       50.339       45.037       35.138     2533.985     2028.363     1234.677        0.903        0.290       99.064       31.338        0.100      338.443       11.097      871.567
12/24/2013  14:10:00       44.757       32.193       79.257       58.634       73.184       40.001     3437.908     5355.846     1600.072        0.986        0.520       55.133       38.023        0.476      338.594       11.351      871.571
12/24/2013  14:11:00       27.450        8.256       51.016       35.803       64.802       37.615     1281.829     4199.344     1414.898        0.516        0.345       28.665       43.039        2.254      338.579       11.326      871.581
12/24/2013  14:12:00        3.334       31.390       71.169       39.837       44.649       33.588     1586.984     1993.492     1128.167        0.538        0.235       31.566       27.185        0.742      338.692       11.517      871.582
12/24/2013  14:13:00       31.653      -56.593        7.842       29.917       26.487       28.586      895.016      701.578      817.178        0.334        0.121       64.844       13.091        0.041      338.324       10.900      871.595
12/24/2013  14:14:00       14.520      -15.460       15.681       15.125       21.941       19.637      228.751      481.403      385.630        0.090        0.055       21.209       14.606        0.474      338.702       11.532      871.601
12/24/2013  14:15:00       16.762       28.975        7.798       20.779       22.949       20.697      431.783      526.649      428.375        0.128        0.069       33.474       11.436        0.117      338.567       11.307      871.607
12/24/2013  14:16:00       -4.390      -17.243        4.449       22.775       29.336       26.372      518.723      860.613      695.482        0.121        0.104       17.793       16.880        0.900      338.785       11.673      871.611
12/24/2013  14:17:00        8.235      -25.254        3.343       21.465       50.725       30.157      460.743     2573.005      909.441        0.233        0.197       26.563       14.699        0.306      338.784       11.671      871.609
12/24/2013  14:18:00       50.870      -29.643       -1.291       30.175       39.859       19.728      910.508     1588.775      389.181        0.318        0.144       58.877       17.513        0.088      338.541       11.262      871.622
12/24/2013  14:19:00        9.196       -4.712        7.138       17.726       15.167       15.830      314.195      230.033      250.587        0.048        0.040       10.333       10.964        1.126      338.919       11.898      871.631
12/24/2013  14:20:00       37.653       62.093       45.228       28.008       29.386       26.280      784.453      863.508      690.623        0.483        0.117       72.617       23.461        0.104      338.543       11.265      871.623
12/24/2013  14:21:00       58.352       69.052       21.672       54.589       34.613       47.784     2979.928     1198.077     2283.352        0.755        0.323       90.406       39.254        0.189      338.496       11.187      871.613
12/24/2013  14:22:00       33.484       17.539        6.132       21.996       38.958       22.143      483.811     1517.761      490.325        0.198        0.125       37.800       19.327        0.261      338.506       11.205      871.607
12/24/2013  14:23:00        0.283        3.661       -3.955       25.467       29.799       15.849      648.584      887.993      251.192        0.091        0.089        3.672       10.384        7.998      338.783       11.669      871.596
12/24/2013  14:24:00       28.465      -32.654       -8.725       27.081       30.146       21.048      733.354      908.762      443.022        0.202        0.104       43.319       15.400        0.126      338.499       11.191      871.590
12/24/2013  14:25:00       14.934       19.293        3.427       18.203       16.477       15.421      331.364      271.491      237.797        0.072        0.042       24.398       10.681        0.192      338.617       11.389      871.566
12/24/2013  14:26:00       32.445      -89.626        0.337       64.086       71.739       34.671     4107.075     5146.434     1202.090        0.977        0.523       95.318       30.590        0.103      338.728       11.576      871.557
12/24/2013  14:27:00       69.470      -30.203       34.621       62.032       87.686       52.399     3847.992     7688.805     2745.687        1.061        0.714       75.752       50.875        0.451      338.636       11.422      871.554
12/24/2013  14:28:00       56.312      -14.561       52.040       62.440      123.240       61.031     3898.766    15188.016     3724.826        1.445        1.141       58.164       81.002        1.939      338.561       11.296      871.574
12/24/2013  14:29:00       78.167      -47.215       30.039       46.830       72.774       43.479     2193.048     5296.049     1890.417        0.931        0.469       91.319       38.930        0.182      338.679       11.495      871.584
12/24/2013  14:30:00       38.027       13.560       47.925       59.670       66.603       51.421     3560.518     4435.922     2644.101        0.728        0.532       40.373       45.703        1.282      338.675       11.487      871.595
12/24/2013  14:31:00       39.195      -83.323        8.053       36.645       62.915       39.463     1342.892     3958.301     1557.333        0.770        0.343       92.082       42.971        0.218      338.615       11.388      871.603
12/24/2013  14:32:00       45.268       29.597       63.057       45.236       99.095       58.123     2046.261     9819.867     3378.227        1.107        0.762       54.085       64.902        1.440      338.694       11.519      871.606
12/24/2013  14:33:00      104.997       81.481       57.573       52.360       39.302       50.133     2741.532     1544.619     2513.277        1.389        0.340      132.904       30.687        0.053      338.480       11.160      871.608
12/24/2013  14:34:00      107.562       84.669       44.354       45.230       24.221       32.840     2045.722      586.633     1078.496        1.221        0.186      136.888       22.094        0.026      338.534       11.251      871.597
12/24/2013  14:35:00       80.632      -37.249       -1.093       69.499       80.446       49.080     4830.110     6471.600     2408.882        1.080        0.686       88.820       33.952        0.146      338.651       11.447      871.575
12/24/2013  14:36:00       72.194       27.851       58.507       66.130      103.740       56.424     4373.121    10762.053     3183.618        1.386        0.916       77.381       64.858        0.703      338.597       11.355      871.562
12/24/2013  14:37:00       44.449      -36.929       27.696       43.215       60.754       40.009     1867.503     3691.086     1600.699        0.563        0.358       57.788       39.515        0.468      338.700       11.530      871.554
12/24/2013  14:38:00       63.113        0.613       28.070       47.349       53.346       36.080     2241.936     2845.821     1301.757        0.558        0.319       63.116       43.317        0.471      338.696       11.522      871.548
12/24/2013  14:39:00       35.486       55.845       53.681       30.907       27.094       28.067      955.236      734.063      787.752        0.487        0.124       66.166       23.407        0.125      338.573       11.315      871.547
12/24/2013  14:40:00       58.378       50.821       46.924       31.633       25.999       13.458     1000.627      675.943      181.124        0.502        0.093       77.400       10.399        0.018      338.587       11.340      871.534
12/24/2013  14:41:00       57.197       64.742       45.693       30.640       27.337       27.989      938.818      747.287      783.367        0.601        0.123       86.389       18.232        0.045      338.548       11.275      871.529
12/24/2013  14:42:00       25.950      -52.736       -0.823       38.834       58.631       29.390     1508.069     3437.651      863.791        0.463        0.290       58.774       21.333        0.132      338.761       11.632      871.521
12/24/2013  14:43:00       23.448      -51.562        0.619       35.263       48.757       29.138     1243.461     2377.274      849.017        0.384        0.223       56.643       27.241        0.231      338.699       11.527      871.514
12/24/2013  14:44:00       10.373       28.358       28.419       20.785       24.139       23.725      432.013      582.708      562.866        0.165        0.079       30.196       11.992        0.158      338.776       11.657      871.513
12/24/2013  14:45:00       25.067       91.929       -9.126       25.045       28.808       19.202      627.255      829.888      368.735        0.549        0.091       95.285       14.728        0.024      338.615       11.385      871.517
12/24/2013  14:46:00      -28.555       80.568        9.800       36.261       59.698       35.449     1314.871     3563.844     1256.662        0.677        0.307       85.479       25.392        0.088      338.798       11.695      871.525
12/24/2013  14:47:00        1.760       71.266      -11.634       27.652       57.695       19.498      764.650     3328.766      380.171        0.484        0.224       71.287       22.937        0.104      338.785       11.672      871.536
12/24/2013  14:48:00       22.911       62.210        4.569       44.936       36.478       23.358     2019.287     1330.653      545.594        0.416        0.195       66.295       17.186        0.067      338.761       11.634      871.536
12/24/2013  14:49:00       30.187       27.671       -2.857       36.765       28.200       21.745     1351.671      795.251      472.842        0.215        0.131       40.951       11.960        0.085      338.791       11.682      871.548
12/24/2013  14:50:00       17.608       18.387        6.153       27.849       18.633       16.647      775.541      347.203      277.131        0.104        0.070       25.458       12.809        0.253      338.856       11.792      871.566
12/24/2013  14:51:00       24.352       29.112        1.315       34.490       20.927       14.706     1189.572      437.919      216.268        0.164        0.092       37.954       12.078        0.101      338.756       11.623      871.579
12/24/2013  14:52:00       32.216       53.859        2.298       38.404       37.708       23.554     1474.841     1421.926      554.770        0.370        0.173       62.759       16.333        0.068      338.643       11.434      871.604
12/24/2013  14:53:00       17.109       93.133      -12.340       20.604       27.517       21.383      424.506      757.171      457.227        0.538        0.082       94.691       19.057        0.041      338.614       11.385      871.631
12/24/2013  14:54:00       39.406       36.867       14.779       28.306       31.492       26.898      801.240      991.727      723.489        0.282        0.126       53.963       16.133        0.089      338.781       11.665      871.644
12/24/2013  14:55:00       19.414       34.919       18.710       25.406       30.988       21.339      645.461      960.239      455.335        0.200        0.103       39.953       12.375        0.096      338.932       11.919      871.652
12/24/2013  14:56:00        0.035       26.069       33.841       14.964       32.124       18.468      223.931     1031.925      341.063        0.171        0.080       26.069        6.623        0.065      339.001       12.037      871.658
12/24/2013  14:57:00        8.530       36.057       65.301       37.028       33.180       23.481     1371.053     1100.887      551.363        0.433        0.151       37.053       19.089        0.265      338.937       11.928      871.664
12/24/2013  14:58:00       71.709       48.083       45.317       52.373       48.258       42.319     2742.922     2328.810     1790.939        0.818        0.343       86.338       31.829        0.136      338.647       11.441      871.673
12/24/2013  14:59:00      100.559       54.106       10.718       26.793       26.326       30.086      717.890      693.034      905.175        0.773        0.116      114.191       11.476        0.010      338.670       11.479      871.676
12/24/2013  15:00:00       65.103       10.944       24.056       42.624       31.011       32.582     1816.782      961.660     1061.589        0.439        0.192       66.016       26.241        0.158      338.750       11.613      871.671
12/24/2013  15:01:00       78.206       34.184       21.191       52.936       40.376       35.870     2802.218     1630.205     1286.671        0.673        0.286       85.350       35.113        0.169      338.710       11.547      871.678
12/24/2013  15:02:00       88.360       62.677        7.587       31.560       27.183       27.213      996.039      738.933      740.564        0.713        0.124      108.332       15.347        0.020      338.618       11.392      871.692
12/24/2013  15:03:00      152.497       92.143       11.172       43.069       45.804       29.686     1854.899     2097.998      881.258        1.835        0.242      178.174       30.270        0.029      338.571       11.311      871.700
12/24/2013  15:04:00       54.332       28.096       31.170       46.770       33.263       29.752     2187.400     1106.437      885.159        0.445        0.209       61.166       33.779        0.305      338.671       11.480      871.700
12/24/2013  15:05:00        1.524       44.571       51.803       21.275       29.321       29.166      452.615      859.720      850.627        0.342        0.108       44.597       27.451        0.379      338.875       11.823      871.695
12/24/2013  15:06:00       23.256       83.951       91.029       40.773       34.004       22.335     1662.436     1156.249      498.845        0.960        0.166       87.113       20.795        0.057      338.708       11.543      871.682
12/24/2013  15:07:00       58.216       36.443       29.764       38.496       38.131       30.844     1481.910     1454.007      951.361        0.474        0.194       68.682       20.440        0.089      338.676       11.489      871.674
12/24/2013  15:08:00       22.625      -60.270        4.323       56.526       49.423       34.727     3195.218     2442.604     1205.957        0.550        0.342       64.377       39.394        0.374      338.856       11.791      871.657
12/24/2013  15:09:00       51.359      -78.063       -9.250       32.674       41.596       24.102     1067.558     1730.244      580.912        0.610        0.169       93.443       16.470        0.031      338.736       11.589      871.654
12/24/2013  15:10:00       25.852      -14.997        5.898       22.719       39.470       22.960      516.151     1557.874      527.141        0.176        0.130       29.887       12.156        0.165      338.879       11.829      871.660
12/24/2013  15:11:00       23.627       79.009      -17.740       34.251       72.209       26.714     1173.151     5214.173      713.650        0.711        0.355       82.466       35.266        0.183      338.753       11.619      871.678
12/24/2013  15:12:00        1.250       54.244       -2.646       26.785       43.217       21.271      717.440     1867.717      452.457        0.299        0.152       54.259       23.650        0.190      338.784       11.671      871.679
12/24/2013  15:13:00       21.182      196.303      -27.515       41.304       93.997       31.817     1706.034     8835.350     1012.329        2.565        0.578      197.443       37.283        0.036      338.710       11.543      871.662
12/24/2013  15:14:00      106.395      102.246        9.342       83.474       57.381       47.896     6967.828     3292.528     2294.034        1.721        0.628      147.561       30.044        0.041      338.768       11.642      871.658
12/24/2013  15:15:00       63.914       44.150        9.556       62.192       43.684       35.108     3867.822     1908.325     1232.540        0.657        0.350       77.681        6.320        0.007      338.748       11.611      871.655
12/24/2013  15:16:00       84.822       59.176       10.867       81.986       40.597       37.682     6721.731     1648.141     1419.960        1.030        0.489      103.424       37.268        0.130      338.717       11.558      871.659
12/24/2013  15:17:00       61.994       94.173        3.875       75.070       68.501       52.658     5635.575     4692.372     2772.893        1.291        0.655      112.746       46.433        0.170      338.666       11.472      871.670
12/24/2013  15:18:00       24.676      150.569      -16.305       52.684       92.302       35.888     2775.624     8519.580     1287.952        1.806        0.629      152.577       35.698        0.055      338.633       11.416      871.664
12/24/2013  15:19:00       86.497      145.645       -3.497      109.419      105.468       75.820    11972.496    11123.433     5748.693        2.877        1.442      169.394       66.467        0.154      338.588       11.339      871.669
12/24/2013  15:20:00       68.690      141.363       -6.774       91.352       72.654       56.085     8345.243     5278.621     3145.524        2.076        0.838      157.168       44.230        0.079      338.530       11.243      871.660
12/24/2013  15:21:00       53.420      109.276      -19.580       40.608       68.929       34.211     1649.034     4751.212     1170.385        1.137        0.379      121.634       33.654        0.077      338.514       11.218      871.650
12/24/2013  15:22:00        9.175      178.206      -36.253       77.876       61.817       36.862     6064.644     3821.400     1358.810        2.220        0.562      178.442       21.232        0.014      338.568       11.306      871.651
12/24/2013  15:23:00       14.354      140.832       -3.542       56.867       96.064       53.676     3233.809     9228.388     2881.138        1.770        0.767      141.562       58.331        0.170      338.582       11.330      871.641
12/24/2013  15:24:00       11.166      273.540      -32.990       59.019      101.421       42.931     3483.233    10286.149     1843.085        4.582        0.781      273.768       49.941        0.033      338.558       11.287      871.654
12/24/2013  15:25:00       28.654      160.060       -7.617       57.898       88.817       45.615     3352.170     7888.387     2080.766        1.991        0.666      162.604       44.084        0.074      338.558       11.289      871.662
12/24/2013  15:26:00      106.015      153.082        9.446      100.763       83.491       55.043    10153.087     6970.795     3029.694        2.745        1.008      186.208       46.796        0.063      338.535       11.249      871.677
12/24/2013  15:27:00      125.240      155.517       -3.601       92.861       66.787       58.234     8623.204     4460.536     3391.161        2.818        0.824      199.677       44.788        0.050      338.493       11.178      871.674
12/24/2013  15:28:00       62.920       84.937       11.751       51.380       75.330       52.795     2639.935     5674.545     2787.284        1.120        0.555      105.703       49.894        0.223      338.572       11.313      871.667
12/24/2013  15:29:00       41.588      123.119      -15.163       58.617       46.115       34.874     3435.945     2126.547     1216.222        1.195        0.339      129.953       32.676        0.063      338.552       11.281      871.653
12/24/2013  15:30:00       56.655       99.500       -5.233       66.199       67.471       46.064     4382.318     4552.383     2121.885        1.210        0.553      114.499       44.355        0.150      338.539       11.258      871.649
12/24/2013  15:31:00       57.499       59.592        1.537       64.561       50.714       46.637     4168.118     2571.905     2174.969        0.789        0.446       82.809       34.643        0.175      338.525       11.236      871.647
12/24/2013  15:32:00       53.425      103.015        0.914       66.326       65.679       45.552     4399.153     4313.736     2074.957        1.213        0.539      116.045       39.327        0.115      338.561       11.297      871.653
12/24/2013  15:33:00       50.722       84.643       14.870       60.304       60.892       43.076     3636.548     3707.866     1855.565        0.958        0.460       98.678       38.173        0.150      338.553       11.284      871.658
12/24/2013  15:34:00       38.229      105.043        0.743       69.266       60.297       49.336     4797.775     3635.718     2434.004        1.168        0.543      111.783       36.708        0.108      338.546       11.272      871.659
12/24/2013  15:35:00      208.683      143.593       25.436      100.951       70.451       58.121    10191.096     4963.382     3378.069        4.167        0.927      253.313       28.422        0.013      338.446       11.099      871.663
12/24/2013  15:36:00       80.565      106.460        8.033       81.264       74.126       63.021     6603.814     5494.595     3971.584        1.698        0.803      133.508       45.411        0.116      338.462       11.128      871.674
12/24/2013  15:37:00       46.161      144.772       -7.597       71.124       87.274       53.530     5058.664     7616.724     2865.416        1.934        0.777      151.953       46.918        0.095      338.476       11.151      871.671
12/24/2013  15:38:00       19.914      184.874      -16.584       56.352       80.136       42.475     3175.604     6421.726     1804.106        2.312        0.570      185.943       32.889        0.031      338.447       11.101      871.676
12/24/2013  15:39:00      105.859       89.493       15.576       68.680       45.947       31.674     4716.943     2111.095     1003.244        1.364        0.392      138.618       25.285        0.033      338.412       11.043      871.687
12/24/2013  15:40:00       50.325       49.390       16.922       36.343       38.217       38.232     1320.846     1460.554     1461.680        0.475        0.212       70.512       25.880        0.135      338.453       11.114      871.690
12/24/2013  15:41:00       43.614       94.821       -0.816       56.195       56.635       35.067     3157.924     3207.490     1229.718        0.924        0.380      104.371       28.189        0.073      338.473       11.148      871.701
12/24/2013  15:42:00      104.358       73.244       14.105       76.452       56.500       45.043     5844.974     3192.296     2028.893        1.376        0.553      127.496       27.889        0.048      338.465       11.132      871.698
12/24/2013  15:43:00       73.313      147.447      -16.549       68.081       68.357       54.031     4635.024     4672.700     2919.399        1.981        0.611      164.668       43.399        0.069      338.417       11.053      871.710
12/24/2013  15:44:00       25.493       75.404       -3.130       56.397       63.288       36.276     3180.633     4005.355     1315.963        0.742        0.425       79.597       37.568        0.223      338.453       11.116      871.722
12/24/2013  15:45:00       43.987      160.412      -19.629       51.129       95.830       45.223     2614.179     9183.295     2045.119        2.095        0.692      166.334       52.203        0.098      338.429       11.071      871.719
12/24/2013  15:46:00       38.404       74.245        5.286       51.104       43.144       34.438     2611.640     1861.420     1185.953        0.634        0.283       83.590       29.064        0.121      338.437       11.088      871.722
12/24/2013  15:47:00       13.891       77.423       -3.027       33.549       51.961       33.135     1125.529     2699.894     1097.900        0.556        0.246       78.659       30.260        0.148      338.454       11.116      871.725
12/24/2013  15:48:00       90.134       46.515       13.721       37.009       38.074       32.803     1369.656     1449.616     1076.020        0.719        0.195      101.429       21.446        0.045      338.395       11.017      871.730
12/24/2013  15:49:00       82.451      119.314      -12.211       64.161       47.291       41.281     4116.691     2236.430     1704.094        1.462        0.403      145.031       24.170        0.028      338.418       11.055      871.744
12/24/2013  15:50:00       53.446       85.251        3.101       59.200       64.729       51.754     3504.674     4189.906     2678.522        1.025        0.519      100.619       38.209        0.144      338.413       11.047      871.751
12/24/2013  15:51:00       77.258       83.551        5.801       54.826       56.618       42.369     3005.852     3205.543     1795.128        1.049        0.400      113.796       34.532        0.092      338.369       10.973      871.755
12/24/2013  15:52:00      113.861      112.688        5.340       99.484       62.851       45.229     9897.023     3950.219     2045.697        2.079        0.795      160.196       37.589        0.055      338.360       10.956      871.751
12/24/2013  15:53:00       94.968      129.373        2.954       76.909       79.672       64.589     5915.053     6347.617     4171.760        2.110        0.822      160.488       54.232        0.114      338.351       10.942      871.740
12/24/2013  15:54:00       77.403       95.895       -4.512       74.991       55.481       51.855     5623.583     3078.182     2688.938        1.330        0.570      123.236       42.814        0.121      338.334       10.913      871.726
12/24/2013  15:55:00       52.593      155.530      -22.262       52.304       90.036       42.464     2735.707     8106.542     1803.204        2.005        0.632      164.182       46.804        0.081      338.300       10.857      871.731
12/24/2013  15:56:00      103.201      120.560       -1.925       94.115       75.201       60.747     8857.686     5655.191     3690.176        2.169        0.910      158.698       45.696        0.083      338.280       10.822      871.737
12/24/2013  15:57:00      164.219      120.376       30.336       90.064       53.510       53.133     8111.566     2863.334     2823.153        2.809        0.690      203.613       26.044        0.016      338.170       10.637      871.747
12/24/2013  15:58:00      150.996       85.335       18.542       68.579       47.212       37.155     4703.133     2228.940     1380.484        1.937        0.416      173.441       25.618        0.022      338.138       10.585      871.774
12/24/2013  15:59:00       84.488       84.138        1.285       66.594       54.566       39.481     4434.699     2977.416     1558.778        1.159        0.449      119.237       25.226        0.045      338.145       10.597      871.791
12/24/2013  16:00:00      136.847      112.420       10.885      102.563       67.909       55.558    10519.174     4611.569     3086.742        2.485        0.911      177.102       33.162        0.035      338.114       10.542      871.800
12/24/2013  16:01:00       76.487      113.325        2.931       83.661       79.084       73.947     6999.112     6254.306     5468.090        1.871        0.936      136.722       50.506        0.136      338.075       10.480      871.805
12/24/2013  16:02:00       52.203      137.374       -7.742       74.573       95.810       58.095     5561.103     9179.646     3374.994        1.988        0.906      146.959       54.239        0.136      338.071       10.472      871.814
12/24/2013  16:03:00       75.186      119.188      -14.230       57.777       72.076       45.257     3338.161     5194.926     2048.161        1.532        0.529      140.921       38.759        0.076      338.049       10.435      871.829
12/24/2013  16:04:00       66.358      126.833       -7.329       51.357       71.895       47.235     2637.533     5168.952     2231.172        1.529        0.502      143.143       45.599        0.101      338.073       10.476      871.847
12/24/2013  16:05:00      101.211       95.800       13.995       74.139       64.002       51.732     5496.562     4096.250     2676.189        1.594        0.613      139.360       35.961        0.067      338.048       10.435      871.858
12/24/2013  16:06:00       73.914       87.554       16.058       85.299       61.904       47.205     7275.867     3832.136     2228.301        1.336        0.667      114.582       22.731        0.039      338.056       10.448      871.851
12/24/2013  16:07:00       56.170       97.606        0.191       65.318       55.514       40.167     4266.441     3081.841     1613.389        1.082        0.448      112.615       36.290        0.104      338.034       10.412      871.856
12/24/2013  16:08:00       65.487      116.913       -7.180       54.985       66.166       45.243     3023.384     4377.893     2046.934        1.373        0.472      134.004       43.035        0.103      338.044       10.428      871.854
12/24/2013  16:09:00       71.228      101.286      -16.793       63.188       46.894       37.853     3992.662     2199.027     1432.864        1.162        0.381      123.824       29.438        0.057      338.024       10.395      871.849
12/24/2013  16:10:00       36.206      179.938      -12.456       56.668       87.246       50.922     3211.290     7611.793     2593.005        2.363        0.671      183.544       48.979        0.071      338.007       10.364      871.851
12/24/2013  16:11:00       64.679      177.065      -29.905       47.966       66.031       39.644     2300.710     4360.061     1571.649        2.233        0.412      188.509       40.148        0.045      337.993       10.341      871.857
12/24/2013  16:12:00       57.185       72.023        5.050       65.149       42.942       34.608     4244.453     1844.056     1197.688        0.788        0.364       91.964       23.680        0.066      337.976       10.314      871.862
12/24/2013  16:13:00       71.767      100.032      -11.127       62.384       54.421       40.524     3891.815     2961.592     1642.206        1.189        0.425      123.114       32.465        0.070      337.955       10.279      871.879
12/24/2013  16:14:00       34.468       84.767        0.743       42.525       66.528       45.094     1808.400     4425.995     2033.472        0.832        0.413       91.507       47.749        0.272      337.951       10.271      871.894
12/24/2013  16:15:00       57.660      124.681      -11.340       48.658       83.434       39.971     2367.568     6961.222     1597.713        1.496        0.546      137.368       41.684        0.092      337.922       10.222      871.902
12/24/2013  16:16:00       55.707       88.102       -6.401       37.162       51.947       33.087     1381.022     2698.469     1094.762        0.804        0.259      104.236       29.013        0.077      337.885       10.160      871.908
12/24/2013  16:17:00       38.307       98.105        0.184       50.175       92.529       50.361     2517.563     8561.633     2536.274        1.235        0.681      105.319       54.287        0.266      337.880       10.152      871.923
12/24/2013  16:18:00       63.978       85.736       -0.628       56.930       52.006       31.140     3241.003     2704.593      969.711        0.918        0.346      106.976       28.115        0.069      337.839       10.084      871.927
12/24/2013  16:19:00       38.923      102.035      -11.552       58.704       57.590       45.739     3446.134     3316.609     2092.052        1.046        0.443      109.207       39.691        0.132      337.853       10.107      871.914
12/24/2013  16:20:00       61.521      140.651      -17.604       43.472       75.152       37.575     1889.848     5647.798     1411.899        1.641        0.447      153.518       36.987        0.058      337.871       10.135      871.917
12/24/2013  16:21:00       48.686      121.751      -15.526       48.352       62.843       45.863     2337.896     3949.263     2103.393        1.291        0.420      131.125       42.099        0.103      337.857       10.115      871.909
12/24/2013  16:22:00       32.450      107.575       -4.394       42.101       68.062       38.921     1772.467     4632.465     1514.856        1.028        0.396      112.363       41.258        0.135      337.794       10.010      871.904
12/24/2013  16:23:00       27.331      104.926       -2.000       51.107       76.978       36.547     2611.905     5925.595     1335.676        1.082        0.494      108.428       41.037        0.143      337.738        9.912      871.927
12/24/2013  16:24:00       62.204       77.501       -7.886       50.474       55.052       37.476     2547.636     3030.696     1404.485        0.846        0.349       99.377       26.638        0.072      337.671        9.802      871.936
12/24/2013  16:25:00       56.336       84.417        0.599       45.655       47.488       26.944     2084.405     2255.125      725.989        0.768        0.253      101.489       23.901        0.055      337.623        9.722      871.966
12/24/2013  16:26:00       82.211       70.496        5.439       56.746       30.479       28.441     3220.060      928.974      808.911        0.836        0.248      108.298       23.200        0.046      337.597        9.679      871.973
12/24/2013  16:27:00      119.336       83.520       16.686       45.135       43.303       31.308     2037.134     1875.158      980.183        1.319        0.245      145.659       18.242        0.016      337.575        9.642      871.992
12/24/2013  16:28:00      133.849       84.346       20.844       39.938       41.979       34.337     1595.062     1762.214     1179.030        1.500        0.227      158.208       19.318        0.015      337.630        9.734      872.005
12/24/2013  16:29:00      136.296      107.145       13.706       63.452       54.645       42.631     4026.188     2986.029     1817.401        1.954        0.441      173.369       36.354        0.044      337.632        9.736      871.997
12/24/2013  16:30:00      107.777       85.883       15.484       47.675       42.796       39.090     2272.885     1831.475     1528.063        1.243        0.282      137.811       20.055        0.021      337.563        9.620      871.981
12/24/2013  16:31:00       88.659       63.969       16.234       55.474       33.345       32.691     3077.334     1111.896     1068.715        0.874        0.263      109.327       31.799        0.085      337.537        9.577      871.964
12/24/2013  16:32:00       30.061       38.353       14.122       37.917       29.407       23.052     1437.686      864.792      531.410        0.270        0.142       48.730       16.753        0.118      337.445        9.424      871.955
12/24/2013  16:33:00       84.824       70.674       14.276       61.679       32.931       29.054     3804.292     1084.461      844.161        0.906        0.287      110.408       30.074        0.074      337.526        9.559      871.959
12/24/2013  16:34:00       87.719       57.428       12.072       35.412       31.472       27.685     1253.989      990.462      766.439        0.707        0.151      104.845       17.741        0.029      337.471        9.468      871.973
12/24/2013  16:35:00      112.341       93.951       11.721       45.699       48.276       36.789     2088.354     2330.590     1353.460        1.368        0.289      146.449       27.993        0.037      337.421        9.382      871.993
12/24/2013  16:36:00       54.701       61.968        1.054       45.982       32.407       30.300     2114.342     1050.223      918.079        0.546        0.204       82.657       19.429        0.055      337.393        9.336      872.027
12/24/2013  16:37:00       64.373       59.719        1.959       45.433       28.698       24.560     2064.195      823.579      603.176        0.560        0.175       87.808       14.919        0.029      337.383        9.320      872.064
12/24/2013  16:38:00       54.427       35.263       -0.231       39.597       29.854       22.186     1567.945      891.261      492.241        0.358        0.148       64.852        9.419        0.021      337.309        9.197      872.097
12/24/2013  16:39:00       79.662       41.907       -2.276       26.653       22.358       16.548      710.358      499.862      273.847        0.480        0.074       90.013        3.996        0.002      337.243        9.086      872.126
12/24/2013  16:40:00       76.972       55.388       15.082       33.646       24.884       22.925     1132.063      619.225      525.555        0.575        0.114       94.829       17.587        0.034      337.257        9.109      872.133
12/24/2013  16:41:00       66.783       52.245        9.515       29.999       29.482       18.237      899.926      869.172      332.591        0.469        0.105       84.791       14.739        0.030      337.259        9.113      872.126
12/24/2013  16:42:00       58.729       44.870       13.259       34.854       29.484       32.223     1214.814      869.304     1038.336        0.438        0.156       73.908       20.903        0.080      337.282        9.152      872.107
12/24/2013  16:43:00       31.400       66.871       -2.655       26.544       35.236       27.157      704.561     1241.604      737.490        0.407        0.134       73.877       15.837        0.046      337.276        9.142      872.097
12/24/2013  16:44:00       56.578       79.059        2.368       44.893       45.412       33.882     2015.364     2062.289     1147.957        0.734        0.261       97.218       30.061        0.096      337.317        9.209      872.102
12/24/2013  16:45:00       18.775       74.836        1.691       37.757       45.584       35.149     1425.593     2077.878     1235.482        0.535        0.237       77.155       31.674        0.169      337.242        9.085      872.110
12/24/2013  16:46:00       39.832       79.686        0.928       30.547       41.538       30.899      933.139     1725.367      954.719        0.577        0.181       89.087       23.582        0.070      337.220        9.048      872.126
12/24/2013  16:47:00       61.161       80.102        1.566       34.796       49.286       34.511     1210.742     2429.126     1191.001        0.749        0.242      100.782       29.499        0.086      337.270        9.132      872.136
12/24/2013  16:48:00       41.189      107.442      -13.918       37.880       57.088       34.769     1434.929     3259.055     1208.889        0.967        0.295      115.066       34.839        0.092      337.250        9.099      872.138
12/24/2013  16:49:00       46.154       84.702       -1.965       42.485       47.068       35.066     1804.942     2215.413     1229.633        0.728        0.262       96.461       33.299        0.119      337.202        9.018      872.143
12/24/2013  16:50:00       45.468       76.480        5.338       36.097       42.033       28.808     1302.986     1766.737      829.890        0.592        0.195       88.975       21.585        0.059      337.166        8.957      872.160
12/24/2013  16:51:00       84.674       73.748       11.447       54.248       42.366       38.026     2942.809     1794.885     1445.960        0.946        0.309      112.288       26.914        0.057      337.184        8.985      872.178
12/24/2013  16:52:00       43.415       48.229        5.364       37.311       35.387       27.940     1392.134     1252.205      780.634        0.383        0.171       64.891       16.465        0.064      337.091        8.830      872.192
12/24/2013  16:53:00       43.115       67.501       -3.795       47.923       40.243       27.323     2296.657     1619.461      746.526        0.555        0.233       80.096       21.510        0.072      337.070        8.795      872.206
12/24/2013  16:54:00       30.767       82.954        0.924       39.167       54.108       27.301     1534.048     2927.662      745.348        0.652        0.260       88.476       18.143        0.042      337.115        8.871      872.212
12/24/2013  16:55:00       59.621       78.254       13.846       57.131       58.309       36.465     3263.959     3399.984     1329.693        0.893        0.400       98.379       38.307        0.152      337.113        8.866      872.237
12/24/2013  16:56:00       59.705       53.539       11.159       48.243       32.890       31.118     2327.358     1081.736      968.302        0.547        0.219       80.194       24.954        0.097      337.057        8.773      872.261
12/24/2013  16:57:00       55.811       84.221       -4.414       50.534       30.011       27.403     2553.639      900.689      750.923        0.722        0.210      101.035       19.103        0.036      337.038        8.740      872.290
12/24/2013  16:58:00       28.941       57.700       -4.999       32.004       30.342       22.632     1024.251      920.645      512.223        0.332        0.123       64.552       17.809        0.076      336.946        8.589      872.310
12/24/2013  16:59:00       35.990       80.018       -8.457       27.749       52.521       22.754      770.016     2758.414      517.722        0.591        0.202       87.739       26.994        0.095      336.922        8.548      872.336
12/24/2013  17:00:00       21.906      166.001      -25.142       36.726       26.959       24.570     1348.824      726.792      603.675        1.567        0.134      167.441       19.053        0.013      336.917        8.540      872.353
12/24/2013  17:01:00       28.537      129.189      -12.662       39.108       53.015       28.465     1529.413     2810.565      810.282        1.141        0.258      132.303       30.598        0.053      336.910        8.528      872.369
12/24/2013  17:02:00       20.568      120.389      -14.884       36.539       47.961       34.385     1335.063     2300.264     1182.300        0.998        0.241      122.134       31.737        0.068      336.813        8.369      872.378
12/24/2013  17:03:00       37.026      121.085       -7.944       38.312       68.050       34.990     1467.846     4630.867     1224.289        1.171        0.366      126.619       41.532        0.108      336.753        8.265      872.385
12/24/2013  17:04:00       37.591      103.350       -3.040       64.573       56.744       45.751     4169.621     3219.857     2093.145        1.079        0.474      109.974       40.612        0.136      336.720        8.212      872.394
12/24/2013  17:05:00       63.671      120.965      -17.682       49.984       57.038       39.571     2498.433     3253.360     1565.877        1.316        0.366      136.699       38.963        0.081      336.715        8.203      872.405
12/24/2013  17:06:00       55.449       79.178       -9.690       35.750       45.973       29.708     1278.091     2113.505      882.568        0.686        0.214       96.663       26.399        0.075      336.654        8.101      872.417
12/24/2013  17:07:00       36.269      109.207       -6.173       34.954       69.198       33.296     1221.756     4788.426     1108.643        1.020        0.356      115.073       36.295        0.099      336.676        8.139      872.420
12/24/2013  17:08:00       52.287      106.978       -7.523       43.622       51.849       32.485     1902.885     2688.366     1055.285        0.994        0.282      119.072       27.531        0.053      336.652        8.098      872.423
12/24/2013  17:09:00       34.521       70.468        4.204       35.281       37.365       33.561     1244.729     1396.132     1126.323        0.497        0.188       78.470       30.303        0.149      336.617        8.039      872.418
12/24/2013  17:10:00       28.871      106.386       -6.645       27.117       52.616       28.181      735.345     2768.400      794.145        0.825        0.215      110.234       32.428        0.087      336.639        8.075      872.427
12/24/2013  17:11:00       59.937       76.891        6.007       43.394       44.562       28.769     1883.024     1985.804      827.657        0.712        0.235       97.491       26.400        0.073      336.649        8.095      872.448
12/24/2013  17:12:00       55.869       55.602       13.767       42.187       44.034       38.227     1779.716     1938.982     1461.278        0.579        0.259       78.822       27.725        0.124      336.591        7.997      872.483
12/24/2013  17:13:00       65.871       97.270        4.049       46.043       76.245       41.093     2119.937     5813.247     1688.665        1.172        0.481      117.475       41.269        0.123      336.653        8.099      872.524
12/24/2013  17:14:00       28.065       72.760        2.787       33.117       44.532       33.928     1096.760     1983.108     1151.105        0.516        0.212       77.985       23.355        0.090      336.572        7.965      872.549
12/24/2013  17:15:00       24.306       97.060       -3.855       36.795       46.428       29.582     1353.857     2155.517      875.065        0.720        0.219      100.057       27.435        0.075      336.549        7.926      872.557
12/24/2013  17:16:00       28.726      112.277      -10.325       34.384       45.803       29.080     1182.229     2097.878      845.659        0.883        0.206      115.893       29.388        0.064      336.557        7.940      872.549
12/24/2013  17:17:00       17.869      131.034      -11.576       34.298       49.532       28.800     1176.324     2453.373      829.438        1.104        0.223      132.247       30.065        0.052      336.582        7.983      872.543
12/24/2013  17:18:00       42.253      117.774       -0.436       50.733       73.555       42.912     2573.810     5410.326     1841.478        1.274        0.491      125.124       46.748        0.140      336.576        7.970      872.538
12/24/2013  17:19:00       38.780      163.701      -23.025       43.907       56.227       34.088     1927.808     3161.520     1161.979        1.754        0.313      168.232       34.587        0.042      336.647        8.089      872.542
12/24/2013  17:20:00       24.906      140.327      -12.694       45.056       59.850       37.001     2030.042     3581.972     1369.058        1.373        0.349      142.520       33.748        0.056      336.597        8.007      872.558
12/24/2013  17:21:00       36.550      136.290      -13.126       51.897       73.720       40.438     2693.262     5434.625     1635.266        1.492        0.488      141.106       31.743        0.051      336.581        7.980      872.577
12/24/2013  17:22:00       11.851       82.377        2.253       38.334       59.172       34.041     1469.470     3501.301     1158.813        0.653        0.306       83.225       27.046        0.106      336.535        7.901      872.594
12/24/2013  17:23:00       23.956      129.307       -5.642       44.688       79.364       44.795     1997.045     6298.667     2006.560        1.381        0.515      131.507       46.381        0.124      336.531        7.895      872.605
12/24/2013  17:24:00       35.501      133.229       -0.107       52.662      104.132       48.855     2773.254    10843.506     2386.817        1.750        0.800      137.878       53.293        0.149      336.514        7.866      872.613
12/24/2013  17:25:00       44.263      123.395       -3.758       42.651       54.444       40.405     1819.122     2964.118     1632.544        1.181        0.321      131.094       35.180        0.072      336.524        7.883      872.609
12/24/2013  17:26:00       20.004      115.979       -2.695       35.401       63.463       34.708     1253.262     4027.594     1204.645        1.017        0.324      117.692       38.012        0.104      336.511        7.861      872.602
12/24/2013  17:27:00       32.267       87.311        4.994       42.100       58.925       43.843     1772.452     3472.111     1922.244        0.793        0.358       93.083       36.727        0.156      336.471        7.796      872.603
12/24/2013  17:28:00       17.329      134.983      -11.264       33.487       55.938       30.809     1121.368     3129.109      949.179        1.192        0.260      136.091       26.881        0.039      336.517        7.871      872.600
12/24/2013  17:29:00       28.196       88.613       -8.829       49.887       56.406       33.359     2488.748     3181.678     1112.855        0.775        0.339       92.991       29.196        0.099      336.503        7.849      872.607
12/24/2013  17:30:00       16.359      133.085      -18.275       38.834       46.677       26.203     1508.103     2178.724      686.592        1.134        0.219      134.087       22.384        0.028      336.495        7.836      872.617
12/24/2013  17:31:00       30.548      165.156      -22.321       46.678       47.465       28.322     2178.880     2252.881      802.146        1.697        0.262      167.957       24.128        0.021      336.479        7.808      872.626
12/24/2013  17:32:00        6.777      126.006       -2.788       34.198       36.526       25.896     1169.523     1334.148      670.612        0.955        0.159      126.188       21.966        0.030      336.476        7.802      872.625
12/24/2013  17:33:00       25.360      179.731      -16.603       40.594       42.289       29.246     1647.885     1788.396      855.300        1.876        0.215      181.511       10.880        0.004      336.472        7.797      872.635
12/24/2013  17:34:00        3.145      157.749      -22.112       28.218       45.906       21.687      796.255     2107.360      470.332        1.438        0.169      157.780       23.575        0.022      336.463        7.781      872.647
12/24/2013  17:35:00        0.725      178.234      -21.781       44.426       40.748       18.484     1973.630     1660.395      341.666        1.811        0.199      178.236       19.677        0.012      336.456        7.768      872.649
12/24/2013  17:36:00       11.449      143.257      -20.521       46.824       74.393       32.027     2192.508     5534.345     1025.701        1.491        0.438      143.714       43.499        0.092      336.435        7.734      872.654
12/24/2013  17:37:00       12.991      119.427      -21.857       30.649       44.985       20.745      939.373     2023.656      430.375        0.915        0.170      120.131       19.383        0.026      336.399        7.675      872.658
12/24/2013  17:38:00        8.095      128.395      -19.902       30.151       47.907       20.017      909.101     2295.058      400.688        1.028        0.180      128.650       17.056        0.018      336.401        7.677      872.674
12/24/2013  17:39:00       -7.084      157.592      -19.868       33.068       30.192       18.001     1093.508      911.541      324.048        1.380        0.116      157.751        8.456        0.003      336.414        7.701      872.685
12/24/2013  17:40:00        0.395      111.841      -10.160       26.381       41.057       23.743      695.973     1685.678      563.742        0.778        0.147      111.842       25.200        0.051      336.383        7.648      872.684
12/24/2013  17:41:00       -8.584      140.114      -19.161       40.622       31.887       21.511     1650.185     1016.787      462.741        1.160        0.156      140.377       18.842        0.018      336.402        7.679      872.677
12/24/2013  17:42:00      -25.931       61.662       -4.986       36.361       35.454       19.455     1322.121     1256.993      378.478        0.373        0.148       66.893       19.544        0.085      336.399        7.674      872.660
12/24/2013  17:43:00      -54.610      116.709      -18.889       53.561       61.921       21.590     2868.733     3834.266      466.127        1.206        0.358      128.853       18.852        0.021      336.396        7.669      872.646
12/24/2013  17:44:00      -24.179       33.043       -4.885       32.170       25.222       11.669     1034.882      636.132      136.167        0.175        0.090       40.945       10.779        0.069      336.394        7.666      872.648
12/24/2013  17:45:00      -53.255       28.501      -14.437       23.533       29.087       13.442      553.818      846.078      180.678        0.272        0.079       60.402        4.847        0.006      336.325        7.550      872.651
12/24/2013  17:46:00      -50.045      -10.183      -12.986       18.497       20.289       14.343      342.133      411.626      205.732        0.187        0.048       51.071       10.156        0.040      336.231        7.395      872.656
12/24/2013  17:47:00      -92.732       -0.312      -15.296       25.518       16.362       11.840      651.168      267.704      140.194        0.495        0.053       92.732        6.535        0.005      336.135        7.233      872.666
12/24/2013  17:48:00      -93.518        9.019      -14.108       30.842       22.781       15.904      951.204      518.973      252.943        0.537        0.086       93.952       15.555        0.027      336.081        7.143      872.672
12/24/2013  17:49:00     -105.911        2.695      -19.115       37.470       23.068       18.743     1404.023      532.112      351.284        0.694        0.114      105.946       19.310        0.033      336.016        7.034      872.684
12/24/2013  17:50:00      -71.046        6.184       -9.463       35.089       24.352       19.012     1231.203      593.029      361.474        0.368        0.109       71.314       18.871        0.070      336.031        7.059      872.707
12/24/2013  17:51:00      -72.954       -2.900       -8.345       23.614       36.344       17.687      557.638     1320.857      312.816        0.380        0.110       73.011       16.727        0.052      336.110        7.191      872.735
12/24/2013  17:52:00      -51.954        2.392      -10.650       19.751       21.850       16.645      390.082      477.424      277.039        0.198        0.057       52.010       13.215        0.065      336.048        7.087      872.757
12/24/2013  17:53:00      -43.795        6.329       -7.177       17.100       14.184       13.898      292.411      201.186      193.164        0.135        0.034       44.250        6.793        0.024      336.064        7.115      872.766
12/24/2013  17:54:00      -56.465       16.397       -5.761       19.687       22.353       19.607      387.581      499.639      384.431        0.238        0.064       58.797       16.526        0.079      336.146        7.252      872.768
12/24/2013  17:55:00      -47.518       40.720       -9.978       19.994       23.170       11.827      399.757      536.857      139.878        0.255        0.054       62.579        5.392        0.007      336.209        7.355      872.779
12/24/2013  17:56:00      -59.177       25.980      -15.121       20.213       30.759       13.654      408.558      946.107      186.426        0.297        0.077       64.629       14.670        0.052      336.091        7.159      872.788
12/24/2013  17:57:00      -58.732        2.150       -9.209       16.349       22.320       10.387      267.275      498.201      107.887        0.221        0.044       58.771        7.362        0.016      335.968        6.955      872.807
12/24/2013  17:58:00      -62.041       16.958       -9.255       20.226       24.523       15.550      409.111      601.402      241.818        0.274        0.063       64.317        8.760        0.019      336.022        7.045      872.820
12/24/2013  17:59:00      -66.512       63.165      -20.947       27.104       41.255       12.414      734.614     1701.993      154.115        0.572        0.130       91.726       19.526        0.045      336.245        7.417      872.820
12/24/2013  18:00:00      -69.938       23.642       -6.385       24.376       29.667       14.300      594.212      880.158      204.500        0.358        0.084       73.826        8.096        0.012      336.092        7.163      872.821
12/24/2013  18:01:00      -52.519       23.527       -9.065       22.114       24.853       13.826      489.017      617.671      191.152        0.235        0.065       57.548       12.395        0.046      336.119        7.207      872.806
12/24/2013  18:02:00      -64.552        2.402      -12.478       13.652       16.670        9.375      186.376      277.879       87.893        0.244        0.028       64.597        6.677        0.011      335.880        6.809      872.805
12/24/2013  18:03:00      -53.959        6.590      -13.078       15.795       23.261       10.162      249.479      541.055      103.267        0.201        0.045       54.360        9.743        0.032      336.014        7.031      872.793
12/24/2013  18:04:00      -34.418        9.500       -6.705       12.114       17.077        8.010      146.739      291.607       64.154        0.091        0.025       35.705        8.036        0.051      336.053        7.097      872.798
12/24/2013  18:05:00      -48.207       58.697       -8.510       35.018       33.967       16.272     1226.295     1153.761      264.769        0.424        0.132       75.956        7.688        0.010      336.130        7.226      872.789
12/24/2013  18:06:00      -40.800       50.446      -11.264       25.939       19.973       10.827      672.851      398.918      117.232        0.276        0.059       64.880       10.512        0.026      336.267        7.453      872.768
12/24/2013  18:07:00      -38.915        4.146       -7.471       16.960       28.804       10.921      287.627      829.652      119.278        0.141        0.062       39.135       10.695        0.075      336.036        7.067      872.752
12/24/2013  18:08:00      -72.225       42.743      -21.145       23.875       40.600       16.743      570.030     1648.365      280.333        0.499        0.125       83.924       19.393        0.053      336.198        7.338      872.726
12/24/2013  18:09:00      -86.103       60.711      -15.855       29.384       37.647       19.029      863.394     1417.282      362.088        0.700        0.132      105.355       15.585        0.022      336.156        7.269      872.722
12/24/2013  18:10:00      -83.641       80.066      -20.663       25.991       39.117       17.410      675.549     1530.156      303.124        0.817        0.125      115.786       19.987        0.030      336.153        7.262      872.727
12/24/2013  18:11:00      -99.598       92.955      -24.419       24.745       29.904       16.946      612.327      894.264      287.165        1.047        0.090      136.237       16.449        0.015      336.180        7.307      872.730
12/24/2013  18:12:00      -69.363      107.077      -19.532       33.698       40.049       21.538     1135.531     1603.896      463.876        0.993        0.160      127.580       19.904        0.024      336.230        7.391      872.742
12/24/2013  18:13:00      -34.771      118.536      -17.259       26.545       35.240       15.743      704.650     1241.880      247.836        0.888        0.110      123.531       13.735        0.012      336.211        7.359      872.765
12/24/2013  18:14:00      -36.952      174.185      -20.443       29.463       38.979       26.438      868.057     1519.351      698.989        1.760        0.154      178.062       17.894        0.010      336.182        7.312      872.772
12/24/2013  18:15:00      -40.036      160.993      -24.874       29.166       32.818       18.300      850.637     1077.000      334.875        1.520        0.113      165.896       15.466        0.009      336.213        7.363      872.763
12/24/2013  18:16:00      -38.989       42.870       -2.772       29.181       27.953       19.137      851.504      781.388      366.225        0.268        0.100       57.948       14.345        0.061      336.117        7.204      872.754
12/24/2013  18:17:00      -53.436       60.479      -15.951       32.594       46.101       17.140     1062.391     2125.320      293.772        0.512        0.174       80.703       12.258        0.023      336.154        7.264      872.751
12/24/2013  18:18:00      -53.426       88.275      -12.751       38.481       42.588       23.553     1480.813     1813.744      554.729        0.733        0.192      103.183       23.786        0.053      336.114        7.199      872.767
12/24/2013  18:19:00      -56.782       83.787      -17.519       36.960       41.290       21.799     1366.066     1704.876      475.217        0.705        0.177      101.215       17.490        0.030      336.105        7.183      872.771
12/24/2013  18:20:00      -68.605       57.955      -11.535       34.237       49.197       23.642     1172.152     2420.318      558.940        0.617        0.208       89.808       16.129        0.032      336.013        7.030      872.767
12/24/2013  18:21:00      -70.275      105.865      -22.688       33.224       41.553       23.181     1103.802     1726.647      537.368        1.001        0.168      127.067       19.018        0.022      336.095        7.166      872.779
12/24/2013  18:22:00      -74.556       97.519      -20.884       27.410       46.884       23.663      751.312     2198.100      559.936        0.951        0.175      122.754       15.170        0.015      336.061        7.110      872.776
12/24/2013  18:23:00      -72.621       43.508      -17.329       13.802       38.774       16.211      190.484     1503.442      262.783        0.471        0.098       84.656       19.336        0.052      336.018        7.038      872.769
12/24/2013  18:24:00      -62.037       99.339      -13.623       38.246       54.022       25.082     1462.775     2918.401      629.108        0.946        0.251      117.119       22.948        0.038      336.012        7.027      872.769
12/24/2013  18:25:00      -68.272       42.270      -16.792       31.577       34.235       18.707      997.092     1172.030      349.941        0.462        0.126       80.298       16.581        0.043      336.050        7.090      872.770
12/24/2013  18:26:00      -53.153       45.006      -13.559       25.978       32.862       17.855      674.857     1079.916      318.798        0.355        0.104       69.648       18.289        0.069      335.954        6.931      872.775
12/24/2013  18:27:00      -70.481       51.440      -11.691       33.385       44.869       23.783     1114.531     2013.228      565.611        0.572        0.185       87.256       29.146        0.112      335.928        6.888      872.791
12/24/2013  18:28:00      -69.319       58.907      -14.936       30.925       40.771       16.731      956.357     1662.296      279.914        0.570        0.145       90.968       14.198        0.024      335.960        6.940      872.813
12/24/2013  18:29:00      -62.245       65.718      -12.663       31.586       40.290       22.634      997.683     1623.278      512.287        0.574        0.157       90.517       21.692        0.057      335.910        6.859      872.829
12/24/2013  18:30:00      -99.365       75.661      -15.434       36.954       43.275       24.204     1365.580     1872.706      585.837        0.983        0.191      124.892       21.750        0.030      335.889        6.824      872.857
12/24/2013  18:31:00      -65.695       77.546      -24.873       30.789       38.747       17.475      947.968     1501.333      305.393        0.685        0.138      101.633       17.516        0.030      335.938        6.904      872.877
12/24/2013  18:32:00      -63.981       72.237      -16.654       30.889       35.198       14.539      954.158     1238.884      211.386        0.600        0.120       96.498        9.745        0.010      335.877        6.802      872.891
12/24/2013  18:33:00      -58.548       95.341      -17.407       40.892       42.030       24.787     1672.178     1766.506      614.394        0.844        0.203      111.883       24.626        0.048      335.925        6.883      872.901
12/24/2013  18:34:00      -65.610      123.609      -25.989       42.265       46.917       21.482     1786.325     2201.179      461.465        1.235        0.222      139.942       17.727        0.016      335.950        6.924      872.922
12/24/2013  18:35:00      -60.680       58.122      -18.272       29.882       33.087       14.587      892.936     1094.760      212.779        0.480        0.110       84.025       14.676        0.031      335.946        6.917      872.921
12/24/2013  18:36:00      -56.510       70.326      -16.344       32.390       38.435       15.015     1049.143     1477.261      225.453        0.558        0.138       90.217       15.087        0.028      335.913        6.863      872.910
12/24/2013  18:37:00      -36.920       35.766      -11.881       22.739       60.345       23.673      517.052     3641.579      560.392        0.375        0.236       51.404       20.837        0.164      335.844        6.749      872.914
12/24/2013  18:38:00      -38.145       57.391      -12.266       21.549       30.688       18.146      464.353      941.778      329.259        0.332        0.087       68.911       17.593        0.065      335.847        6.754      872.918
12/24/2013  18:39:00      -28.853       60.357       -3.181       31.611       30.572       22.225      999.265      934.667      493.969        0.346        0.121       66.899       15.066        0.051      335.849        6.755      872.919
12/24/2013  18:40:00      -47.426       84.837      -17.881       31.763       48.836       22.697     1008.889     2384.927      515.157        0.684        0.195       97.193       22.780        0.055      335.890        6.826      872.938
12/24/2013  18:41:00      -11.366       75.623       -9.461       31.123       31.078       14.590      968.667      965.865      212.858        0.404        0.107       76.473       11.713        0.023      335.917        6.869      872.952
12/24/2013  18:42:00      -22.777       70.697       -9.264       36.538       41.242       18.639     1335.006     1700.862      347.403        0.449        0.169       74.276       16.465        0.049      335.851        6.760      872.956
12/24/2013  18:43:00      -17.149       92.969      -13.265       25.713       42.409       16.352      661.140     1798.552      267.376        0.592        0.136       94.537       18.779        0.039      335.966        6.953      872.956
12/24/2013  18:44:00      -44.791       35.295      -14.888       30.000       34.438       16.588      900.012     1185.952      275.156        0.292        0.118       57.026       14.269        0.063      335.809        6.691      872.946
12/24/2013  18:45:00      -39.661      -18.222       -4.907       27.031       23.189       14.969      730.683      537.742      224.074        0.171        0.075       43.647        7.104        0.026      335.637        6.404      872.930
12/24/2013  18:46:00      -53.245       -3.243       -9.319       21.208       23.831       16.039      449.795      567.934      257.260        0.210        0.064       53.344       10.675        0.040      335.368        5.955      872.927
12/24/2013  18:47:00      -18.846       19.491      -10.242       23.256       19.839       12.712      540.860      393.605      161.589        0.097        0.055       27.112        8.659        0.102      335.706        6.519      872.941
12/24/2013  18:48:00        9.998       22.280        9.592       25.114       18.658       11.301      630.738      348.120      127.709        0.090        0.055       24.420        8.971        0.135      335.703        6.513      872.963
12/24/2013  18:49:00      -35.544       65.520       -6.351       39.527       42.651       20.567     1562.385     1819.085      423.019        0.470        0.190       74.540       10.594        0.020      335.718        6.538      872.960
12/24/2013  18:50:00      -37.673       -5.170        0.850       19.584       12.537       13.918      383.515      157.187      193.712        0.109        0.037       38.026       12.385        0.106      335.578        6.305      872.976
12/24/2013  18:51:00      -56.281        7.267       -4.915       18.341       15.806       12.177      336.402      249.826      148.278        0.199        0.037       56.748       12.016        0.045      335.669        6.458      872.992
12/24/2013  18:52:00      -44.648       40.497      -12.478       22.997       33.498       20.421      528.882     1122.148      417.003        0.293        0.103       60.278       16.334        0.073      335.747        6.586      872.998
12/24/2013  18:53:00      -21.357       50.167      -12.953       37.342       31.192        9.658     1394.399      972.952       93.271        0.280        0.123       54.524        5.724        0.011      335.754        6.598      873.003
12/24/2013  18:54:00       -5.535       33.050       -0.315       32.786       38.056       15.353     1074.937     1448.273      235.712        0.194        0.138       33.510       16.141        0.232      335.653        6.430      873.002
12/24/2013  18:55:00      -17.122       24.605       -3.599       25.903       21.665       20.319      670.944      469.355      412.876        0.123        0.078       29.977       12.040        0.161      335.711        6.528      873.018
12/24/2013  18:56:00      -45.992       -1.109        0.070       26.285       19.675       15.103      690.908      387.124      228.098        0.171        0.065       46.005       13.149        0.082      335.589        6.323      873.033
12/24/2013  18:57:00      -23.530       19.547       -7.383       23.439       22.862       12.501      549.389      522.669      156.266        0.111        0.061       30.590        7.421        0.059      335.561        6.277      873.048
12/24/2013  18:58:00       -4.568       32.594      -15.981       24.580       39.197       11.841      604.156     1536.424      140.201        0.181        0.114       32.913       10.710        0.106      335.609        6.356      873.053
12/24/2013  18:59:00      -39.311       40.117      -10.654       25.088       26.277       16.234      629.402      690.467      263.538        0.243        0.079       56.167       16.559        0.087      335.677        6.469      873.047
12/24/2013  19:00:00       -4.639       58.784       -3.810       25.424       29.510       20.677      646.380      870.869      427.548        0.272        0.097       58.967       21.058        0.128      335.707        6.520      873.045
12/24/2013  19:01:00      -57.753       42.367      -15.346       16.279       26.386       15.172      265.016      696.199      230.189        0.328        0.060       71.627        5.922        0.007      335.577        6.304      873.049
12/24/2013  19:02:00      -38.483       32.502      -13.965       14.111       32.445       13.884      199.130     1052.691      192.779        0.209        0.072       50.371        7.134        0.020      335.639        6.408      873.063
12/24/2013  19:03:00      -42.011       10.835      -10.443       27.306       24.209       11.406      745.616      586.055      130.088        0.173        0.073       43.386        8.282        0.036      335.517        6.203      873.079
12/24/2013  19:04:00      -44.498       25.085      -15.931       34.192       27.218       12.601     1169.105      740.833      158.793        0.247        0.103       51.081       12.897        0.064      335.596        6.336      873.099
12/24/2013  19:05:00      -42.777       15.385       -0.065       41.431       26.331       24.559     1716.548      693.331      603.139        0.254        0.151       45.459       27.524        0.367      335.587        6.321      873.102
12/24/2013  19:06:00      -47.863       -2.172      -17.517       21.119       21.317       12.213      446.020      454.426      149.167        0.183        0.052       47.913       11.355        0.056      335.421        6.041      873.098
12/24/2013  19:07:00      -61.158      -13.177       -5.702       18.783       24.464       16.712      352.806      598.485      279.285        0.259        0.062       62.561       12.608        0.041      335.308        5.855      873.086
12/24/2013  19:08:00      -60.830       -9.504      -13.333       10.755       16.106        8.634      115.668      259.414       74.543        0.221        0.022       61.568        3.785        0.004      335.342        5.912      873.086
12/24/2013  19:09:00      -68.931       18.900       -7.181       25.341       19.967       15.910      642.144      398.665      253.126        0.323        0.065       71.475       14.015        0.038      335.475        6.133      873.098
12/24/2013  19:10:00      -66.882       18.570      -10.103       19.940       22.929       16.398      397.622      525.727      268.899        0.306        0.060       69.412       13.069        0.035      335.487        6.154      873.105
12/24/2013  19:11:00      -45.720       -5.036       -3.311       16.809       19.090       13.601      282.531      364.431      184.992        0.148        0.042       45.996       13.104        0.081      335.497        6.169      873.105
12/24/2013  19:12:00      -44.866       10.205      -12.889       29.459       22.830       15.796      867.847      521.198      249.499        0.196        0.082       46.012       14.198        0.095      335.538        6.239      873.101
12/24/2013  19:13:00      -70.553      -24.414      -10.454       27.055       19.599       16.164      731.980      384.106      261.266        0.353        0.069       74.657       12.116        0.026      335.354        5.931      873.102
12/24/2013  19:14:00      -73.855      -12.216      -15.418       22.730       21.999       15.145      516.635      483.961      229.378        0.354        0.061       74.858        2.691        0.001      335.334        5.898      873.117
12/24/2013  19:15:00      -70.931       -0.058      -16.886       13.822       15.776       11.529      191.057      248.885      132.915        0.294        0.029       70.931       11.030        0.024      335.481        6.143      873.131
12/24/2013  19:16:00      -51.212      -14.813       -4.949       17.023       16.644       11.773      289.771      277.022      138.606        0.179        0.035       53.311       10.116        0.036      335.411        6.026      873.139
12/24/2013  19:17:00      -37.898        2.316       -6.539       24.675       13.933       13.816      608.871      194.134      190.877        0.124        0.050       37.969       16.668        0.193      335.506        6.186      873.147
12/24/2013  19:18:00      -25.043       44.663       -6.102       28.146       28.945       19.280      792.175      837.821      371.709        0.233        0.100       51.205       18.738        0.134      335.547        6.255      873.163
12/24/2013  19:19:00       -4.425       38.395       -1.433       24.158       19.037        9.595      583.604      362.405       92.059        0.127        0.052       38.650        5.084        0.017      335.593        6.331      873.183
12/24/2013  19:20:00       24.196       78.720      -11.027       22.577       23.404       12.415      509.727      547.742      154.134        0.406        0.061       82.355       10.207        0.015      335.583        6.314      873.206
12/24/2013  19:21:00       14.775      114.956      -11.787       16.382       27.052       14.516      268.355      731.812      210.715        0.739        0.061      115.901       11.899        0.011      335.576        6.301      873.214
12/24/2013  19:22:00       14.764       79.890       -5.762       23.564       34.282       19.817      555.249     1175.227      392.698        0.438        0.106       81.243       18.228        0.050      335.482        6.144      873.220
12/24/2013  19:23:00        0.235       63.909       -8.190       16.141       26.191       19.870      260.531      685.988      394.815        0.275        0.067       63.910       18.595        0.085      335.519        6.206      873.228
12/24/2013  19:24:00      -22.007       61.837       -6.232       27.559       27.711       17.414      759.507      767.878      303.231        0.309        0.092       65.636       19.046        0.084      335.620        6.375      873.233
12/24/2013  19:25:00      -14.445       80.127      -16.995       20.895       36.607       14.985      436.604     1340.109      224.540        0.446        0.100       81.419       18.690        0.053      335.683        6.481      873.231
12/24/2013  19:26:00       -5.997       99.206      -12.670       27.176       29.518       16.032      738.528      871.305      257.036        0.595        0.093       99.387       13.386        0.018      335.672        6.463      873.249
12/24/2013  19:27:00      -32.266       47.914      -11.022       29.751       31.191       13.042      885.098      972.909      170.090        0.274        0.101       57.766        7.626        0.017      335.470        6.125      873.259
12/24/2013  19:28:00      -33.891       56.941       -6.509       23.527       35.715       19.786      553.513     1275.552      391.487        0.333        0.111       66.264       18.294        0.076      335.490        6.158      873.260
12/24/2013  19:29:00      -30.945       89.083      -13.282       19.303       28.208       15.289      372.602      795.665      233.741        0.524        0.070       94.305       13.367        0.020      335.583        6.312      873.269
12/24/2013  19:30:00      -31.344       73.169       -3.826       26.438       37.301       19.186      698.963     1391.370      368.097        0.440        0.123       79.600       17.121        0.046      335.461        6.111      873.267
12/24/2013  19:31:00      -44.851       83.093      -18.118       22.465       21.223       16.413      504.675      450.434      269.385        0.523        0.061       94.424        6.947        0.005      335.453        6.098      873.279
12/24/2013  19:32:00      -10.997       56.364       -1.463       31.826       38.124       17.766     1012.876     1453.432      315.640        0.304        0.139       57.427       16.708        0.085      335.433        6.063      873.302
12/24/2013  19:33:00        3.381       41.665        2.820       25.304       42.360       21.943      640.312     1794.372      481.517        0.234        0.146       41.802       21.972        0.276      335.386        5.986      873.328
12/24/2013  19:34:00        5.530       62.365       -0.031       24.619       34.872       23.403      606.089     1216.068      547.695        0.314        0.118       62.610       20.889        0.111      335.319        5.873      873.360
12/24/2013  19:35:00        4.723       99.543      -17.562       23.774       22.597       13.608      565.213      510.604      185.165        0.575        0.063       99.655        8.723        0.008      335.451        6.092      873.366
12/24/2013  19:36:00       -4.050      106.166      -17.156       20.558       27.885       12.977      422.650      777.555      168.393        0.648        0.068      106.243       14.042        0.017      335.393        5.997      873.368
12/24/2013  19:37:00       -1.167       88.074       -8.035       21.218       21.817       20.611      450.206      475.973      424.808        0.459        0.068       88.082       17.262        0.038      335.299        5.840      873.357
12/24/2013  19:38:00       -7.904       89.039      -15.052       16.647       16.615       10.325      277.114      276.055      106.616        0.444        0.033       89.390        8.162        0.008      335.399        6.007      873.347
12/24/2013  19:39:00      -23.323       44.631       -3.486       23.049       32.573       14.713      531.261     1060.982      216.461        0.218        0.090       50.357        7.861        0.024      335.255        5.768      873.347
12/24/2013  19:40:00        5.657       98.826      -14.060       22.932       22.025       13.868      525.895      485.091      192.330        0.560        0.060       98.988       11.881        0.014      335.434        6.065      873.365
12/24/2013  19:41:00        2.301      102.340       -9.233       23.604       24.101       17.047      557.138      580.845      290.612        0.600        0.071      102.366       11.050        0.012      335.374        5.964      873.384
12/24/2013  19:42:00       21.081       80.544       -9.673       17.519       24.114       17.612      306.903      581.495      310.197        0.411        0.060       83.257       15.911        0.037      335.281        5.808      873.387
12/24/2013  19:43:00        2.157      112.440      -21.176       18.489       43.938       16.927      341.837     1930.587      286.526        0.783        0.128      112.460       21.622        0.037      335.290        5.825      873.387
12/24/2013  19:44:00        7.876      134.994      -14.445       19.263       21.905       10.623      371.045      479.826      112.859        0.973        0.048      135.224       11.012        0.007      335.293        5.828      873.367
12/24/2013  19:45:00       15.816      131.375      -13.859       21.809       30.578       20.239      475.646      934.989      409.612        0.976        0.091      132.324       16.769        0.016      335.303        5.846      873.377
12/24/2013  19:46:00        5.051      123.342      -18.993       15.367       17.945       10.454      236.155      322.020      109.286        0.813        0.033      123.446        7.621        0.004      335.309        5.854      873.378
12/24/2013  19:47:00       21.598       99.008      -14.082       21.411       47.972       20.260      458.416     2301.325      410.471        0.682        0.159      101.337       19.411        0.037      335.235        5.733      873.402
12/24/2013  19:48:00       13.392      140.023      -16.935       20.261       44.567       20.181      410.514     1986.233      407.266        1.144        0.140      140.662       19.986        0.020      335.232        5.729      873.427
12/24/2013  19:49:00       17.102      110.096      -10.182       29.311       48.253       23.724      859.160     2328.355      562.844        0.813        0.188      111.416       25.764        0.053      335.168        5.623      873.449
12/24/2013  19:50:00       17.936      120.065      -11.119       30.339       30.618       25.971      920.437      937.484      674.469        0.870        0.127      121.398       14.483        0.014      335.221        5.710      873.464
12/24/2013  19:51:00       22.067      159.228      -20.414       29.727       29.995       21.337      883.717      899.673      455.263        1.425        0.112      160.750       11.081        0.005      335.340        5.907      873.474
12/24/2013  19:52:00       21.487       83.404       -1.677       23.628       55.614       32.533      558.303     3092.959     1058.427        0.606        0.235       86.128       36.416        0.179      335.178        5.639      873.468
12/24/2013  19:53:00       18.207       97.616      -12.606       20.196       26.701       18.724      407.880      712.950      350.603        0.575        0.074       99.299       14.570        0.022      335.283        5.814      873.471
12/24/2013  19:54:00       15.091      100.674      -19.301       17.657       19.452       10.967      311.767      378.381      120.280        0.577        0.041      101.799        8.214        0.007      335.328        5.888      873.468
12/24/2013  19:55:00        9.133       92.043      -14.469       17.240       13.489       10.972      297.230      181.949      120.385        0.468        0.030       92.495        6.496        0.005      335.327        5.888      873.488
12/24/2013  19:56:00       18.705       78.830      -10.665       22.120       22.053       15.367      489.287      486.340      236.142        0.394        0.061       81.019       14.137        0.030      335.220        5.709      873.502
12/24/2013  19:57:00       10.249       97.774      -14.470       21.753       24.556       12.091      473.209      602.985      146.197        0.555        0.061       98.310       12.601        0.016      335.288        5.821      873.511
12/24/2013  19:58:00       -0.358      100.024      -15.091       15.834       17.437        9.268      250.704      304.033       85.898        0.544        0.032      100.024        9.520        0.009      335.323        5.880      873.520
12/24/2013  19:59:00       -3.782       86.178      -14.076       18.964       19.570       10.408      359.629      383.003      108.318        0.424        0.043       86.261        9.056        0.011      335.414        6.032      873.528
12/24/2013  20:00:00       -6.163       82.845      -12.718       17.342       25.503       13.684      300.742      650.419      187.250        0.410        0.057       83.073       13.103        0.025      335.380        5.974      873.535
12/24/2013  20:01:00       -3.259       85.582       -9.908       19.635       17.412       10.546      385.528      303.188      111.227        0.412        0.040       85.644        8.224        0.009      335.423        6.047      873.544
12/24/2013  20:02:00       -7.430       67.262       -6.000       18.187       22.189       15.286      330.758      492.336      233.662        0.284        0.053       67.671       13.781        0.041      335.392        5.995      873.561
12/24/2013  20:03:00        3.906       99.511       -9.798       33.939       21.825       16.351     1151.862      476.337      267.363        0.595        0.095       99.587        9.703        0.009      335.451        6.094      873.565
12/24/2013  20:04:00      -15.923       82.640       -5.609       31.043       27.880       23.239      963.667      777.316      540.040        0.470        0.114       84.160       12.429        0.022      335.504        6.182      873.574
12/24/2013  20:05:00      -33.803       73.442       -8.999       28.890       26.893       18.733      834.653      723.212      350.917        0.426        0.095       80.848       15.873        0.039      335.274        5.798      873.570
12/24/2013  20:06:00      -12.780       34.755        2.005       14.312       25.976       11.414      204.830      674.735      130.273        0.119        0.050       37.030        7.651        0.043      335.333        5.897      873.570
12/24/2013  20:07:00      -38.865       -3.761       -4.928       31.622       12.863       12.977      999.941      165.445      168.414        0.144        0.067       39.046       13.420        0.118      335.000        5.344      873.557
12/24/2013  20:08:00      -80.156       -8.584       -8.939       14.994       16.009       12.181      224.830      256.301      148.368        0.360        0.031       80.614        8.253        0.010      334.734        4.902      873.545
12/24/2013  20:09:00      -84.549      -11.365      -11.367       25.145       21.070       12.442      632.262      443.946      154.803        0.432        0.062       85.309        5.604        0.004      334.684        4.820      873.549
12/24/2013  20:10:00      -81.546       -0.484      -10.379       33.010       26.110       16.416     1089.657      681.744      269.479        0.440        0.102       81.547       13.654        0.028      334.690        4.830      873.556
12/24/2013  20:11:00      -25.942        0.014        3.657       22.275       12.953       12.365      496.195      167.778      152.888        0.075        0.041       25.942       11.038        0.181      334.645        4.753      873.575
12/24/2013  20:12:00      -60.643      -30.412      -10.112       18.524       21.989       13.519      343.124      483.521      182.768        0.286        0.050       67.841        8.186        0.015      334.643        4.749      873.581
12/24/2013  20:13:00      -41.816      -47.140       -1.883       18.068       17.723       16.649      326.470      314.112      277.198        0.245        0.046       63.014       13.335        0.045      334.664        4.787      873.559
12/24/2013  20:14:00      -61.474      -28.957       -7.567       26.249       21.516       16.504      689.011      462.958      272.390        0.305        0.071       67.952       16.659        0.060      334.577        4.640      873.546
12/24/2013  20:15:00      -82.665      -38.492      -12.645       16.602       20.417       11.724      275.639      416.838      137.463        0.465        0.041       91.187        7.894        0.007      334.567        4.624      873.524
12/24/2013  20:16:00      -99.545      -31.721      -10.017       28.234       21.488       15.440      797.162      461.732      238.381        0.626        0.075      104.477       12.237        0.014      334.545        4.589      873.520
12/24/2013  20:17:00      -85.359      -25.601       -7.486       29.425       21.307       14.475      865.826      454.005      209.516        0.476        0.076       89.116       13.292        0.022      334.507        4.526      873.525
12/24/2013  20:18:00      -68.793      -26.343       -7.148       27.853       16.925       15.268      775.805      286.469      233.114        0.339        0.065       73.664       15.362        0.043      334.506        4.525      873.535
12/24/2013  20:19:00      -54.816      -14.561      -13.303       17.097       24.286       16.682      292.316      589.794      278.300        0.228        0.058       56.717       14.716        0.067      334.619        4.711      873.548
12/24/2013  20:20:00      -59.357      -14.762       -8.151       10.598       13.833       11.358      112.324      191.350      129.012        0.212        0.022       61.165        7.085        0.013      334.608        4.692      873.537
12/24/2013  20:21:00      -25.903      -10.165       -2.745       18.573       13.724        7.007      344.965      188.359       49.093        0.068        0.029       27.826        6.453        0.054      334.599        4.677      873.538
12/24/2013  20:22:00      -34.506      -24.943       -1.871        9.883       11.592        6.563       97.679      134.365       43.078        0.105        0.014       42.577        5.757        0.018      334.648        4.760      873.526
12/24/2013  20:23:00      -27.157       -8.174       -8.718        9.193       12.944        7.897       84.512      167.536       62.368        0.060        0.016       28.361        7.585        0.072      334.694        4.836      873.525
12/24/2013  20:24:00      -47.684       -9.625      -10.950       12.302       11.745       10.144      151.344      137.937      102.892        0.144        0.020       48.645        7.939        0.027      334.671        4.798      873.531
12/24/2013  20:25:00      -45.135        0.428       -3.911       16.261        9.460       10.436      264.415       89.497      108.913        0.126        0.023       45.137        9.417        0.044      334.646        4.756      873.535
12/24/2013  20:26:00      -57.284      -14.530      -12.321       10.390        9.363        8.176      107.949       87.670       66.852        0.195        0.013       59.098        4.263        0.005      334.455        4.438      873.534
12/24/2013  20:27:00      -56.128      -21.488       -9.358        9.758       15.227        7.220       95.218      231.855       52.126        0.204        0.019       60.101        4.126        0.005      334.413        4.370      873.529
12/24/2013  20:28:00      -47.890      -21.659      -14.048        8.388       13.227        8.254       70.361      174.956       68.127        0.164        0.016       52.560        4.812        0.008      334.507        4.525      873.522
12/24/2013  20:29:00      -66.085       -9.197      -14.585       12.031       10.297        9.319      144.752      106.032       86.846        0.250        0.017       66.722        6.804        0.010      334.384        4.320      873.531
12/24/2013  20:30:00      -74.264      -10.450      -16.506       11.533       14.801        8.067      133.009      219.061       65.084        0.316        0.021       74.996        6.574        0.008      334.557        4.608      873.528
12/24/2013  20:31:00      -73.528       -7.007      -10.344       14.177       13.795        8.346      200.990      190.296       69.661        0.301        0.023       73.861        3.601        0.002      334.466        4.456      873.532
12/24/2013  20:32:00      -65.807       -6.188      -11.368       15.837       19.898       12.619      250.795      395.918      159.242        0.265        0.040       66.097        7.460        0.013      334.453        4.436      873.523
12/24/2013  20:33:00      -62.067      -28.542       -9.249       17.914       17.427       11.295      320.902      303.697      127.578        0.275        0.038       68.315        2.986        0.002      334.407        4.360      873.511
12/24/2013  20:34:00      -63.984        0.910       -8.202       14.024       13.836        9.168      196.680      191.435       84.059        0.232        0.024       63.991        5.091        0.006      334.522        4.550      873.511
12/24/2013  20:35:00      -67.141       -0.172       -7.909       15.864       14.430       12.092      251.667      208.231      146.222        0.259        0.030       67.142        8.657        0.017      334.456        4.443      873.521
12/24/2013  20:36:00      -59.464       13.997      -14.484       14.022       16.080        9.434      196.613      258.574       89.004        0.224        0.027       61.089        4.506        0.005      334.536        4.573      873.522
12/24/2013  20:37:00      -54.333       -4.707       -8.911       14.343       18.131       10.187      205.731      328.745      103.776        0.185        0.032       54.537        9.603        0.031      334.397        4.343      873.529
12/24/2013  20:38:00      -54.655       -9.398      -12.600       11.017        9.954       10.067      121.378       99.074      101.344        0.178        0.016       55.457        7.196        0.017      334.273        4.139      873.536
12/24/2013  20:39:00      -44.739       -3.198      -12.318       15.553       18.821       11.821      241.895      354.229      139.738        0.145        0.037       44.853       10.531        0.055      334.365        4.291      873.547
12/24/2013  20:40:00      -58.420       -2.868       -8.951       17.166       15.654        9.605      294.672      245.049       92.262        0.207        0.032       58.491        7.563        0.017      334.182        3.985      873.553
12/24/2013  20:41:00      -58.579      -14.302       -7.247       15.962       15.807       10.373      254.782      249.868      107.601        0.215        0.031       60.300        6.772        0.013      334.255        4.106      873.549
12/24/2013  20:42:00      -80.723       -8.437      -13.362       17.983       14.189        9.584      323.398      201.323       91.860        0.369        0.031       81.163        5.882        0.005      334.149        3.932      873.544
12/24/2013  20:43:00      -65.923      -15.999      -10.578       12.850       12.566       11.860      165.117      157.892      140.658        0.259        0.023       67.837        7.422        0.012      334.097        3.845      873.536
12/24/2013  20:44:00      -70.502      -15.963      -12.724       16.513       16.336       10.167      272.684      266.872      103.376        0.301        0.032       72.286       10.367        0.021      334.110        3.864      873.524
12/24/2013  20:45:00      -41.967      -32.587       -6.975       10.421       17.255       10.417      108.599      297.718      108.520        0.169        0.026       53.133        6.296        0.014      334.119        3.881      873.537
12/24/2013  20:46:00      -37.433      -31.734       -5.741       18.463       13.470       11.271      340.884      181.439      127.029        0.155        0.032       49.074        9.561        0.038      334.081        3.819      873.540
12/24/2013  20:47:00      -31.551      -23.009       -7.852       15.360       22.149       12.932      235.926      490.564      167.247        0.124        0.045       39.050        9.006        0.053      334.199        4.014      873.550
12/24/2013  20:48:00      -33.168       -8.726       -6.092       14.665       13.279        8.842      215.048      176.327       78.184        0.084        0.023       34.296        6.463        0.036      334.363        4.287      873.552
12/24/2013  20:49:00      -36.973       -2.590       -8.099       20.723       13.575        9.178      429.438      184.272       84.240        0.107        0.035       37.064        3.750        0.010      334.390        4.332      873.554
12/24/2013  20:50:00       -7.377       -4.666        0.554       23.324        8.980       16.724      544.026       80.647      279.699        0.049        0.045        8.729       11.148        1.631      334.409        4.363      873.574
12/24/2013  20:51:00      -33.725      -26.398       -1.422       10.065       13.582       12.552      101.310      184.483      157.546        0.114        0.022       42.828        5.529        0.017      334.161        3.952      873.586
12/24/2013  20:52:00      -24.980      -24.343      -12.724       10.563       11.627        6.888      111.571      135.195       47.442        0.084        0.015       34.879        4.291        0.015      334.153        3.937      873.595
12/24/2013  20:53:00      -36.670      -29.316       -3.169       27.856       14.368       15.947      775.945      206.446      254.310        0.173        0.062       46.948       15.914        0.115      334.191        4.002      873.619
12/24/2013  20:54:00      -49.903      -27.007       -7.050       17.146       17.704       12.580      293.988      313.423      158.265        0.202        0.038       56.742       13.229        0.054      334.200        4.015      873.621
12/24/2013  20:55:00      -64.703      -27.105      -10.234        8.067        8.353        6.972       65.074       69.775       48.602        0.260        0.009       70.151        4.200        0.004      334.038        3.747      873.616
12/24/2013  20:56:00      -79.881      -20.107      -16.020       18.386        9.031        6.283      338.054       81.554       39.475        0.375        0.023       82.373        3.558        0.002      333.940        3.584      873.609
12/24/2013  20:57:00      -85.788      -12.772      -14.788        7.005        6.774        7.149       49.067       45.882       51.110        0.394        0.007       86.734        2.799        0.001      333.945        3.593      873.604
12/24/2013  20:58:00      -66.967      -11.778      -13.180       15.578       17.251       12.656      242.682      297.594      160.179        0.275        0.035       67.995       12.964        0.036      333.880        3.485      873.614
12/24/2013  20:59:00      -44.559       -7.658       -6.638       19.281       11.579        9.061      371.747      134.075       82.096        0.134        0.029       45.212        9.274        0.042      334.146        3.929      873.624
12/24/2013  21:00:00      -26.191        8.155       -3.763       29.542       24.844       17.567      872.732      617.212      308.589        0.128        0.090       27.432       10.538        0.148      334.536        4.574      873.640
12/24/2013  21:01:00      -30.493       -3.282      -10.769       12.627       13.373        7.154      159.429      178.825       51.174        0.072        0.019       30.669        6.723        0.048      334.328        4.229      873.670
12/24/2013  21:02:00       18.690       32.607       -7.186       16.151       21.741        9.419      260.846      472.661       88.709        0.114        0.041       37.583        9.398        0.063      334.801        5.014      873.685
12/24/2013  21:03:00       10.740       23.635       -4.463       14.459       15.433       10.635      209.072      238.176      113.113        0.063        0.028       25.961        9.340        0.129      334.680        4.813      873.693
12/24/2013  21:04:00       -7.524       60.025       -5.852       18.438       14.444        9.627      339.966      208.621       92.684        0.217        0.032       60.495        7.796        0.017      334.763        4.951      873.718
12/24/2013  21:05:00        3.544       57.378       -5.410        8.003        9.260        5.845       64.041       85.754       34.169        0.176        0.009       57.487        4.929        0.007      334.786        4.988      873.728
12/24/2013  21:06:00        8.686       14.274        4.683        7.814       19.774        9.213       61.063      390.996       84.875        0.042        0.027       16.709        4.574        0.075      334.488        4.494      873.745
12/24/2013  21:07:00        4.119        2.739       -0.999        5.876        7.086        7.567       34.523       50.208       57.258        0.008        0.007        4.947        3.582        0.524      334.451        4.434      873.761
12/24/2013  21:08:00      -21.877      -20.281       -8.570       18.033        8.632        6.916      325.185       74.517       47.834        0.071        0.022       29.831        6.310        0.045      333.982        3.654      873.766
12/24/2013  21:09:00      -55.547      -24.720       -5.754        7.400        6.090        6.900       54.765       37.091       47.609        0.193        0.007       60.799        2.316        0.001      333.718        3.216      873.783
12/24/2013  21:10:00      -69.975      -25.532       -5.002        8.893        8.934        7.798       79.093       79.808       60.806        0.290        0.011       74.487        4.883        0.004      333.684        3.159      873.789
12/24/2013  21:11:00      -78.091      -21.319      -14.120        9.192        9.218        6.547       84.487       84.962       42.862        0.348        0.011       80.948        3.428        0.002      333.692        3.172      873.794
12/24/2013  21:12:00      -67.715      -12.284       -8.355        7.554        7.848        5.791       57.070       61.597       33.530        0.248        0.008       68.820        3.122        0.002      333.655        3.111      873.801
12/24/2013  21:13:00      -49.858       -5.362       -5.760        7.095        7.418        7.303       50.333       55.025       53.339        0.135        0.008       50.145        4.334        0.007      333.765        3.294      873.824
12/24/2013  21:14:00      -27.281        4.086       -2.504       16.838       10.046       10.579      283.527      100.930      111.911        0.063        0.025       27.586        7.444        0.073      334.132        3.903      873.831
12/24/2013  21:15:00       -6.861       23.106       -4.092       12.041       15.938        6.110      144.976      254.020       37.329        0.052        0.022       24.103        4.884        0.041      334.395        4.338      873.829
12/24/2013  21:16:00       -6.502       15.984        4.473       11.007        7.524        8.582      121.158       56.616       73.650        0.028        0.013       17.256        4.915        0.081      334.204        4.023      873.839
12/24/2013  21:17:00        4.853       26.280       -1.254        5.704        8.409        5.089       32.535       70.719       25.901        0.042        0.006       26.724        2.267        0.007      334.405        4.356      873.843
12/24/2013  21:18:00       23.662        8.570        2.520        9.721        9.393        7.918       94.507       88.228       62.696        0.044        0.012       25.166        4.951        0.039      334.303        4.187      873.848
12/24/2013  21:19:00        2.612       -0.298        4.581       10.880        3.082        5.329      118.365        9.501       28.401        0.009        0.008        2.628        4.731        3.240      334.170        3.966      873.860
12/24/2013  21:20:00      -17.891       -9.705        0.691        6.920       10.328        4.032       47.888      106.667       16.254        0.029        0.009       20.354        3.690        0.033      333.996        3.678      873.881
12/24/2013  21:21:00      -23.166      -22.311       -5.304       10.487       10.347        6.137      109.986      107.067       37.665        0.066        0.013       32.163        5.007        0.024      333.899        3.517      873.898
12/24/2013  21:22:00      -64.123      -21.150      -11.214       10.687        7.600        5.525      114.203       57.762       30.527        0.244        0.010       67.521        2.685        0.002      333.640        3.086      873.904
12/24/2013  21:23:00      -63.101      -22.420       -6.443        9.628        7.167        5.028       92.704       51.368       25.283        0.235        0.008       66.966        5.311        0.006      333.570        2.970      873.923
12/24/2013  21:24:00      -54.835       -2.042       -6.507       14.272       16.161        8.062      203.700      261.177       64.994        0.179        0.026       54.873        7.290        0.018      333.487        2.833      873.943
12/24/2013  21:25:00      -55.091       -9.221      -11.799       12.066        9.508       10.052      145.582       90.397      101.033        0.180        0.017       55.858        6.917        0.015      333.602        3.024      873.947
12/24/2013  21:26:00      -47.527       -6.207      -11.636       12.935        9.246        6.818      167.304       85.489       46.484        0.137        0.015       47.930        4.815        0.010      333.614        3.044      873.945
12/24/2013  21:27:00      -20.270        5.604       -1.105       16.174       14.311        7.798      261.589      204.792       60.807        0.049        0.026       21.031        3.205        0.023      333.978        3.648      873.946
12/24/2013  21:28:00       -3.299       22.682        3.451        8.807        9.334        8.538       77.565       87.115       72.905        0.039        0.012       22.920        7.134        0.097      334.240        4.084      873.947
12/24/2013  21:29:00        8.929       17.088        3.406        9.802        7.873        6.168       96.079       61.987       38.049        0.029        0.010       19.280        4.657        0.058      334.148        3.930      873.942
12/24/2013  21:30:00       25.104       27.789        5.604        5.237        9.542        5.675       27.431       91.048       32.211        0.079        0.008       37.449        5.007        0.018      334.091        3.835      873.938
12/24/2013  21:31:00       25.367       33.752       -4.865       10.557       12.041        7.547      111.455      144.980       56.951        0.106        0.016       42.222        4.824        0.013      334.156        3.941      873.935
12/24/2013  21:32:00        3.824        8.625        2.807       16.460       16.953       14.233      270.920      287.402      202.577        0.043        0.038        9.435       13.979        2.195      334.052        3.770      873.938
12/24/2013  21:33:00       23.675       16.805      -10.149       13.301        9.488        8.751      176.922       90.030       76.576        0.064        0.017       29.034        6.627        0.052      334.132        3.904      873.936
12/24/2013  21:34:00       12.504        2.003        1.690       10.911        6.023        6.034      119.045       36.271       36.410        0.018        0.010       12.663        4.206        0.110      334.033        3.739      873.942
12/24/2013  21:35:00       17.828        8.065        1.373       12.701       10.048        3.948      161.321      100.963       15.587        0.033        0.014       19.567        3.666        0.035      334.093        3.839      873.952
12/24/2013  21:36:00       24.354        9.801        0.189        8.756        6.047        5.228       76.666       36.564       27.328        0.041        0.007       26.252        4.112        0.025      334.072        3.804      873.965
12/24/2013  21:37:00        3.374        6.830        4.814       10.585        7.425        4.897      112.049       55.123       23.981        0.014        0.010        7.618        4.196        0.303      334.069        3.800      873.968
12/24/2013  21:38:00      -32.052       -3.752       -2.044       15.825       16.658        7.991      250.427      277.501       63.857        0.082        0.030       32.271        9.598        0.088      333.778        3.317      873.978
12/24/2013  21:39:00      -53.716       -6.746      -10.223        9.175        8.417        6.967       84.183       70.842       48.537        0.162        0.010       54.138        4.371        0.007      333.423        2.727      873.993
12/24/2013  21:40:00      -62.400        0.568      -13.660        6.863        5.513        4.805       47.095       30.397       23.087        0.209        0.005       62.403        1.380        0.000      333.493        2.841      873.999
12/24/2013  21:41:00      -68.317      -14.798      -14.414        6.954        8.010        5.080       48.364       64.168       25.802        0.262        0.007       69.901        3.862        0.003      333.476        2.814      874.001
12/24/2013  21:42:00      -65.511      -23.776      -12.691       13.540        7.721        6.705      183.338       59.611       44.953        0.265        0.014       69.692        6.266        0.008      333.458        2.783      873.999
12/24/2013  21:43:00      -76.400      -10.680       -9.953       17.825       13.884        8.257      317.729      192.758       68.173        0.331        0.029       77.143        8.006        0.011      333.376        2.650      873.986
12/24/2013  21:44:00      -76.403        0.456      -13.381       11.651       11.992       12.548      135.747      143.818      157.442        0.323        0.022       76.405        6.535        0.007      333.478        2.819      873.988
12/24/2013  21:45:00      -55.899       -3.722       -8.895       16.028       10.467        9.393      256.912      109.555       88.235        0.184        0.023       56.023        9.160        0.027      333.528        2.902      873.988
12/24/2013  21:46:00      -53.383        6.244       -8.020       16.693       16.221       12.378      278.662      263.134      153.205        0.182        0.035       53.747        8.630        0.026      333.411        2.708      873.997
12/24/2013  21:47:00      -15.296        4.786       -2.873       14.574       12.491       14.433      212.411      156.034      208.308        0.042        0.029       16.027       10.827        0.456      333.413        2.712      874.012
12/24/2013  21:48:00      -30.931       -8.359      -22.101       14.100       17.480        9.448      198.823      305.551       89.268        0.105        0.030       32.041        5.326        0.028      333.544        2.929      874.036
12/24/2013  21:49:00      -54.235       -4.503      -13.854       11.791        7.559        9.448      139.028       57.141       89.259        0.172        0.014       54.422        5.525        0.010      333.390        2.674      874.042
12/24/2013  21:50:00      -45.857       -6.156       -8.952       10.786       12.649        9.155      116.328      159.989       83.820        0.129        0.018       46.268        4.816        0.011      333.444        2.761      874.044
12/24/2013  21:51:00      -55.555      -13.497       -8.686       11.775       10.009        9.233      138.661      100.181       85.255        0.183        0.016       57.171        6.530        0.013      333.325        2.566      874.031
12/24/2013  21:52:00      -40.845       -3.336       -6.977       21.298       13.012       12.474      453.606      169.318      155.602        0.125        0.039       40.981       11.281        0.076      333.179        2.323      874.020
12/24/2013  21:53:00      -76.431       -9.465      -12.695       17.698       15.309       10.760      313.205      234.372      115.786        0.338        0.033       77.015        8.907        0.013      333.236        2.417      874.001
12/24/2013  21:54:00      -69.830        0.039      -13.109       21.641       10.587       13.355      468.314      112.092      178.364        0.290        0.038       69.830       11.984        0.029      333.140        2.259      873.979
12/24/2013  21:55:00      -66.533      -11.898      -15.212       17.031       15.618       10.296      290.059      243.924      106.016        0.272        0.032       67.588        7.642        0.013      333.200        2.358      873.970
12/24/2013  21:56:00      -57.300      -21.234      -16.181       13.606       14.275       11.902      185.129      203.775      141.667        0.226        0.027       61.108        8.031        0.017      333.304        2.529      873.959
12/24/2013  21:57:00      -78.647      -14.332      -13.651       18.200       13.449        9.015      331.251      180.866       81.271        0.359        0.030       79.942        6.070        0.006      333.402        2.693      873.964
12/24/2013  21:58:00      -47.183      -32.232       -8.330       28.870       16.425       14.330      833.492      269.787      205.347        0.232        0.065       57.141       14.570        0.065      333.445        2.763      873.981
12/24/2013  21:59:00      -46.044      -28.464       -3.597       23.723       13.075       13.065      562.763      170.959      170.698        0.192        0.045       54.132       13.943        0.066      333.274        2.482      873.985
12/24/2013  22:00:00      -51.369      -39.079       -1.868       33.255       14.285       20.506     1105.920      204.051      420.493        0.295        0.087       64.544       21.815        0.114      333.225        2.401      873.985
12/24/2013  22:01:00      -68.544      -47.292       -2.094       16.431       13.341       14.367      269.988      177.984      206.406        0.380        0.033       83.275        8.515        0.010      333.320        2.557      874.005
12/24/2013  22:02:00      -42.853      -31.421       -0.241       28.307       15.200       14.718      801.281      231.055      216.609        0.204        0.062       53.138       10.429        0.039      333.356        2.617      874.043
12/24/2013  22:03:00      -34.364      -51.227       -1.919       27.348       25.026       13.348      747.901      626.297      178.166        0.268        0.078       61.686       10.926        0.031      333.389        2.671      874.088
12/24/2013  22:04:00      -21.548      -28.312       -5.411       17.403       17.714       12.462      302.874      313.781      155.312        0.103        0.039       35.579       10.004        0.079      333.446        2.767      874.122
12/24/2013  22:05:00       -8.824       -8.966       -1.306        7.789        9.619        6.129       60.668       92.521       37.570        0.018        0.010       12.580        5.042        0.161      333.455        2.779      874.133
12/24/2013  22:06:00      -23.121       -9.305       -3.830        8.672       15.508        9.333       75.205      240.491       87.098        0.052        0.020       24.923        8.379        0.113      333.421        2.725      874.147
12/24/2013  22:07:00      -21.985      -11.912       -0.017        9.440        7.636        6.899       89.122       58.306       47.601        0.041        0.010       25.004        2.757        0.012      333.303        2.529      874.164
12/24/2013  22:08:00      -61.944       -5.207      -12.757       18.795       15.353        9.432      353.265      235.726       88.968        0.235        0.034       62.163        3.490        0.003      333.257        2.453      874.178
12/24/2013  22:09:00      -68.720      -25.893       -5.204       14.605       14.584        9.055      213.303      212.688       81.984        0.296        0.025       73.437        5.753        0.006      333.234        2.414      874.191
12/24/2013  22:10:00      -50.301       -9.593       -1.215       17.363       15.574       11.041      301.465      242.554      121.914        0.164        0.033       51.208       10.215        0.040      333.209        2.374      874.197
12/24/2013  22:11:00      -70.621      -10.850      -12.214       15.219        9.185        8.930      231.606       84.366       79.737        0.282        0.020       71.450        7.123        0.010      333.208        2.371      874.195
12/24/2013  22:12:00      -80.794      -17.052      -13.392       13.859       11.402        8.194      192.074      130.003       67.138        0.369        0.019       82.574        5.286        0.004      333.219        2.388      874.197
12/24/2013  22:13:00     -100.254       -8.994      -15.741       11.571       10.891        9.322      133.899      118.606       86.909        0.536        0.017      100.657        3.272        0.001      333.209        2.372      874.190
12/24/2013  22:14:00      -88.999      -18.361      -10.803       14.630       14.249       10.463      214.044      203.040      109.474        0.445        0.026       90.874        8.553        0.009      333.180        2.324      874.189
12/24/2013  22:15:00      -85.262       -8.712      -10.829       30.592       16.886       13.175      935.864      285.135      173.585        0.443        0.070       85.705       15.286        0.032      333.065        2.136      874.200
12/24/2013  22:16:00      -85.507      -14.953      -15.092       15.278       11.198        7.741      233.425      125.405       59.917        0.409        0.021       86.805        7.123        0.007      333.057        2.121      874.210
12/24/2013  22:17:00      -58.827       -8.853      -13.049       14.455       13.530       10.989      208.938      183.068      120.759        0.211        0.026       59.490        6.968        0.014      333.075        2.154      874.220
12/24/2013  22:18:00      -49.864      -34.386      -14.694       13.563       17.178       11.979      183.967      295.099      143.505        0.225        0.031       60.570        8.706        0.021      333.086        2.171      874.216
12/24/2013  22:19:00      -53.386      -19.482       -6.725       18.048       28.012       13.617      325.727      784.691      185.428        0.229        0.065       56.830       10.412        0.034      333.154        2.282      874.218
12/24/2013  22:20:00      -35.355      -45.067       -4.334       22.266       21.081       12.421      495.767      444.388      154.289        0.220        0.055       57.281        8.726        0.023      333.123        2.231      874.234
12/24/2013  22:21:00      -60.254      -37.940        2.565       23.510       24.794       17.692      552.697      614.747      312.989        0.328        0.074       71.204       13.188        0.034      333.088        2.173      874.243
12/24/2013  22:22:00      -42.006      -36.142        3.939       28.181       27.800       18.919      794.195      772.850      357.934        0.251        0.096       55.415       17.121        0.095      333.112        2.213      874.256
12/24/2013  22:23:00      -89.518      -37.675       -0.818       21.996       15.377       14.593      483.832      236.454      212.944        0.518        0.047       97.123       12.209        0.016      333.032        2.082      874.262
12/24/2013  22:24:00     -105.797      -34.771       -6.134       18.801       18.073       12.912      353.493      326.629      166.728        0.664        0.042      111.364       12.188        0.012      333.164        2.298      874.267
12/24/2013  22:25:00     -121.034      -43.193      -14.862       17.590       16.253        9.387      309.395      264.169       88.119        0.870        0.033      128.510        4.221        0.001      333.240        2.426      874.264
12/24/2013  22:26:00     -113.245      -38.673      -11.856       21.088       14.787       11.201      444.713      218.649      125.472        0.762        0.039      119.666        6.459        0.003      333.250        2.442      874.268
12/24/2013  22:27:00     -106.316      -21.573      -10.569       16.954       15.392        9.696      287.431      236.909       94.004        0.625        0.031      108.483        7.333        0.005      333.267        2.469      874.274
12/24/2013  22:28:00      -94.088      -19.529      -13.418       21.789       14.261       11.796      474.755      203.383      139.148        0.512        0.041       96.093       10.193        0.011      333.112        2.213      874.286
12/24/2013  22:29:00      -99.410      -28.908      -19.034       27.489       21.381       11.855      755.666      457.152      140.547        0.622        0.068      103.528       10.700        0.011      333.047        2.105      874.299
12/24/2013  22:30:00      -75.790      -50.350      -10.635       20.737       19.650       15.205      430.033      386.135      231.188        0.472        0.052       90.991        9.824        0.012      333.043        2.099      874.302
12/24/2013  22:31:00      -77.503      -29.915      -11.988       19.475       13.748       11.873      379.283      189.010      140.969        0.388        0.035       83.076       11.035        0.018      332.970        1.978      874.301
12/24/2013  22:32:00      -73.390      -33.853       -8.073       14.714       16.281       10.458      216.512      265.058      109.366        0.359        0.030       80.822        9.912        0.015      332.989        2.010      874.293
12/24/2013  22:33:00      -61.360      -41.288       -3.255       23.794       19.547       13.552      566.158      382.067      183.664        0.331        0.057       73.958       13.987        0.036      332.956        1.955      874.298
12/24/2013  22:34:00      -47.719      -24.555       -7.266       15.523       14.616       12.338      240.961      213.626      152.227        0.177        0.030       53.666        8.182        0.023      332.989        2.009      874.299
12/24/2013  22:35:00      -45.004      -19.748      -11.108       18.268       19.695       12.063      333.704      387.900      145.523        0.170        0.043       49.146       12.617        0.066      333.055        2.120      874.297
12/24/2013  22:36:00      -52.546      -25.910       -9.442       20.530       20.058       12.678      421.462      402.304      160.720        0.225        0.049       58.587        9.927        0.029      333.017        2.057      874.301
12/24/2013  22:37:00      -78.620       -5.595       -8.428       14.652       13.397        8.272      214.685      179.469       68.426        0.337        0.023       78.819        3.735        0.002      333.021        2.064      874.301
12/24/2013  22:38:00      -66.392       -5.596      -11.603        9.993       10.860        8.430       99.863      117.934       71.069        0.243        0.014       66.627        5.302        0.006      333.027        2.072      874.307
12/24/2013  22:39:00      -78.311       -6.945       -7.336       13.657       15.837       10.537      186.515      250.816      111.035        0.339        0.027       78.619        5.013        0.004      333.014        2.052      874.322
12/24/2013  22:40:00      -58.255      -22.022      -13.235       14.256       16.096       13.591      203.233      259.074      184.707        0.235        0.032       62.279        8.015        0.017      332.995        2.020      874.339
12/24/2013  22:41:00      -82.890       -5.191      -11.592       25.069       15.654       14.149      628.450      245.056      200.185        0.405        0.054       83.053       13.317        0.026      332.948        1.942      874.347
12/24/2013  22:42:00      -81.929      -10.151      -13.718       14.535       12.491        8.312      211.256      156.024       69.092        0.372        0.022       82.555        5.115        0.004      332.904        1.871      874.341
12/24/2013  22:43:00      -89.646      -17.825      -15.350       12.320       10.445       10.811      151.788      109.103      116.879        0.448        0.019       91.401        7.197        0.006      332.881        1.832      874.331
12/24/2013  22:44:00      -80.462      -38.577      -16.188       11.783       11.851        9.571      138.851      140.458       91.605        0.430        0.019       89.232        6.018        0.005      332.860        1.799      874.312
12/24/2013  22:45:00      -76.330      -26.715      -19.948       15.459       13.476       10.435      238.967      181.611      108.883        0.373        0.026       80.870        7.213        0.008      332.895        1.856      874.304
12/24/2013  22:46:00      -55.959      -38.111      -20.330       14.572       16.144       11.015      212.357      260.642      121.324        0.280        0.030       67.704        7.709        0.013      332.908        1.878      874.311
12/24/2013  22:47:00      -81.067      -33.934       -9.691       17.570       10.659        8.893      308.707      113.604       79.090        0.416        0.025       87.883        6.220        0.005      332.932        1.916      874.315
12/24/2013  22:48:00      -90.559      -30.015      -14.601        9.081        7.699        8.028       82.458       59.269       64.445        0.476        0.010       95.403        3.653        0.001      332.994        2.019      874.324
12/24/2013  22:49:00      -83.110      -36.259       -8.477       10.493       12.952        8.949      110.095      167.755       80.076        0.433        0.018       90.675        6.237        0.005      332.902        1.868      874.335
12/24/2013  22:50:00      -76.583      -52.839        0.712       26.845       19.677       14.676      720.639      387.174      215.373        0.499        0.066       93.043       12.387        0.018      332.905        1.873      874.345
12/24/2013  22:51:00      -85.309      -41.627        0.829       24.035       15.658       13.423      577.672      245.184      180.184        0.501        0.050       94.923       13.179        0.019      332.804        1.706      874.346
12/24/2013  22:52:00      -58.186      -33.706       -8.040       20.493       14.816        8.058      419.957      219.527       64.929        0.265        0.035       67.243        6.930        0.011      332.770        1.651      874.348
12/24/2013  22:53:00      -97.294      -45.097       -8.465       11.935       14.369       11.029      142.446      206.483      121.644        0.602        0.024      107.238        7.299        0.005      332.701        1.536      874.351
12/24/2013  22:54:00      -65.924      -49.648       -1.678       35.950       28.901       16.202     1292.408      835.246      262.510        0.460        0.120       82.528        9.724        0.014      332.643        1.438      874.369
12/24/2013  22:55:00      -91.464      -60.998       -4.099       27.530       27.346       17.135      757.909      747.810      293.620        0.695        0.090      109.938       14.787        0.018      332.641        1.436      874.387
12/24/2013  22:56:00      -54.717      -32.622        6.031       46.977       27.641       20.930     2206.876      764.049      438.082        0.375        0.170       63.703       21.589        0.115      332.617        1.396      874.400
12/24/2013  22:57:00     -109.492      -56.361       -7.173       30.898       20.032       15.855      954.662      401.287      251.383        0.841        0.080      123.147       10.712        0.008      332.558        1.298      874.398
12/24/2013  22:58:00     -108.910      -49.182       -7.356       24.207       18.959       15.426      585.962      359.432      237.970        0.776        0.059      119.500       15.031        0.016      332.528        1.248      874.397
12/24/2013  22:59:00     -104.675      -33.743      -11.346       20.825       18.634       10.992      433.682      347.212      120.829        0.656        0.045      109.979        6.734        0.004      332.527        1.246      874.395
12/24/2013  23:00:00      -99.112      -29.575      -16.865       16.308       16.676       10.206      265.937      278.099      104.171        0.582        0.032      103.430        3.836        0.001      332.530        1.253      874.400
12/24/2013  23:01:00     -122.735      -52.507       -6.832       18.738       19.422       12.388      351.108      377.197      153.455        0.937        0.044      133.495        8.675        0.004      332.598        1.363      874.394
12/24/2013  23:02:00     -115.776      -41.360       -0.876       18.555       16.539       11.825      344.293      273.524      139.833        0.794        0.038      122.942        8.358        0.005      332.597        1.362      874.382
12/24/2013  23:03:00      -99.130      -41.173       -4.398       20.576       16.289       11.394      423.389      265.329      129.813        0.618        0.041      107.341        6.325        0.003      332.537        1.263      874.375
12/24/2013  23:04:00      -89.623      -42.190      -15.720       14.859       13.374       11.550      220.782      178.868      133.404        0.530        0.027       99.057        7.574        0.006      332.509        1.216      874.372
12/24/2013  23:05:00      -58.760      -34.511       -5.362       18.194       15.064       12.751      331.036      226.910      162.585        0.270        0.036       68.145       10.242        0.023      332.563        1.307      874.376
12/24/2013  23:06:00      -99.962      -28.509      -12.559       12.629       11.465        8.633      159.502      131.449       74.532        0.566        0.018      103.948        6.709        0.004      332.541        1.270      874.373
12/24/2013  23:07:00     -116.965      -44.714       -8.352       10.577       11.053        8.677      111.883      122.159       75.288        0.803        0.015      125.220        3.921        0.001      332.518        1.233      874.355
12/24/2013  23:08:00     -111.923      -34.997       -4.409       16.169       14.470       10.352      261.447      209.385      107.159        0.717        0.029      117.267        9.517        0.007      332.516        1.228      874.332
12/24/2013  23:09:00      -96.626      -35.207       -5.928       15.750        9.529       11.552      248.071       90.794      133.439        0.554        0.024      102.841        8.950        0.008      332.498        1.198      874.330
12/24/2013  23:10:00      -81.817      -34.497      -10.649        7.738        8.462        6.335       59.872       71.605       40.132        0.408        0.009       88.792        3.033        0.001      332.535        1.260      874.330
12/24/2013  23:11:00      -95.711      -26.308      -11.492        9.948        9.167        7.287       98.953       84.041       53.103        0.511        0.012       99.261        3.989        0.002      332.633        1.423      874.338
12/24/2013  23:12:00      -76.547      -33.536      -10.883       10.141       11.401        8.053      102.846      129.993       64.848        0.370        0.015       83.571        5.562        0.004      332.600        1.367      874.345
12/24/2013  23:13:00      -99.827      -38.510      -13.753       14.666       10.169        7.549      215.096      103.405       56.994        0.601        0.019      106.997        6.228        0.003      332.673        1.488      874.356
12/24/2013  23:14:00     -104.064      -31.627      -16.827        9.470       11.397        7.940       89.680      129.889       63.042        0.620        0.014      108.764        5.297        0.002      332.608        1.381      874.371
12/24/2013  23:15:00      -95.372      -21.722      -12.472       11.398       12.035        8.535      129.908      144.840       72.846        0.504        0.017       97.814        5.704        0.003      332.559        1.301      874.383
12/24/2013  23:16:00      -87.346      -24.377       -9.277       10.912       14.328       10.395      119.069      205.290      108.055        0.437        0.022       90.684        5.294        0.003      332.511        1.220      874.391
12/24/2013  23:17:00     -100.015      -10.584       -8.632       15.940       15.809       10.107      254.072      249.916      102.146        0.540        0.030      100.574        7.676        0.006      332.541        1.271      874.390
12/24/2013  23:18:00      -94.105      -21.281      -18.617       16.105       18.157       11.873      259.368      329.673      140.960        0.519        0.037       96.481       12.178        0.016      332.538        1.265      874.366
12/24/2013  23:19:00     -103.953       -4.253      -15.369       20.068       18.996       11.516      402.729      360.833      132.627        0.598        0.045      104.040        9.429        0.008      332.474        1.160      874.344
12/24/2013  23:20:00      -67.470       -1.616       -7.430       15.731       25.331       13.238      247.457      641.665      175.257        0.284        0.053       67.489       10.496        0.024      332.514        1.225      874.342
12/24/2013  23:21:00      -71.586       10.594      -11.459       10.037       12.366        9.642      100.744      152.928       92.977        0.286        0.017       72.366        5.552        0.006      332.608        1.381      874.332
12/24/2013  23:22:00      -50.968       -6.527       -5.981       11.457       10.592        6.898      131.271      112.193       47.585        0.148        0.015       51.384        6.991        0.019      332.622        1.404      874.320
12/24/2013  23:23:00      -52.390      -17.722      -13.511        9.607       10.040        6.622       92.300      100.804       43.852        0.174        0.012       55.306        5.249        0.009      332.745        1.607      874.313
12/24/2013  23:24:00      -40.627      -26.078       -6.704        7.358        7.743        6.428       54.134       59.949       41.325        0.127        0.008       48.277        5.225        0.012      332.707        1.546      874.315
12/24/2013  23:25:00      -44.297      -22.264       -8.197        8.373        7.124        5.995       70.100       50.758       35.935        0.134        0.008       49.577        3.389        0.005      332.645        1.444      874.332
12/24/2013  23:26:00      -52.673      -11.376      -12.448       14.253        7.845        6.138      203.140       61.537       37.671        0.168        0.015       53.887        3.226        0.004      332.706        1.543      874.330
12/24/2013  23:27:00      -71.951      -17.500      -10.336       21.735       17.304       15.441      472.404      299.436      238.423        0.330        0.051       74.049       14.116        0.036      332.552        1.288      874.334
12/24/2013  23:28:00     -102.251      -10.669      -20.797       18.485       16.976        9.583      341.686      288.192       91.843        0.586        0.036      102.806        6.881        0.004      332.469        1.150      874.319
12/24/2013  23:29:00      -80.155      -36.010       -2.715       19.168       18.876       13.708      367.423      356.318      187.899        0.432        0.046       87.872       11.270        0.016      332.439        1.101      874.318
12/24/2013  23:30:00      -79.329      -39.026      -11.427       13.704       16.537       12.263      187.812      273.458      150.393        0.428        0.031       88.408        9.868        0.012      332.496        1.195      874.324
12/24/2013  23:31:00     -117.087      -30.268      -13.594       15.077       11.138        8.396      227.322      124.063       70.494        0.762        0.021      120.936        5.001        0.002      332.529        1.251      874.346
12/24/2013  23:32:00     -106.736      -39.480      -11.768       14.432       15.732       12.709      208.279      247.486      161.529        0.685        0.031      113.803        7.907        0.005      332.504        1.208      874.363
12/24/2013  23:33:00      -94.397      -52.454       -3.358       22.960       19.201       14.752      527.141      368.682      217.616        0.639        0.056      107.992        8.547        0.006      332.496        1.195      874.380
12/24/2013  23:34:00      -94.699      -60.323       -2.071       32.756       20.667       20.969     1072.925      427.132      439.681        0.728        0.097      112.280       16.041        0.020      332.487        1.182      874.380
12/24/2013  23:35:00     -111.127      -60.337       -8.019       22.081       20.588       14.217      487.560      423.858      202.129        0.858        0.056      126.451       10.238        0.007      332.406        1.046      874.377
12/24/2013  23:36:00     -114.163      -59.580       -7.665       31.888       19.375       15.438     1016.857      375.384      238.326        0.914        0.082      128.775       15.782        0.015      332.335        0.931      874.377
12/24/2013  23:37:00     -117.961      -60.625       -5.168       23.439       23.619       16.176      549.395      557.840      261.658        0.949        0.068      132.628       12.805        0.009      332.300        0.872      874.377
12/24/2013  23:38:00     -114.038      -60.055      -13.956       19.108       15.474       13.091      365.114      239.451      171.363        0.879        0.039      128.885        9.576        0.006      332.327        0.917      874.376
12/24/2013  23:39:00      -90.657      -48.299       -9.090       13.985       14.700       10.541      195.584      216.080      111.105        0.558        0.026      102.720        5.377        0.003      332.324        0.912      874.384
12/24/2013  23:40:00      -88.860      -40.079      -14.618       13.776       11.614        8.822      189.769      134.874       77.834        0.506        0.020       97.480        4.668        0.002      332.358        0.968      874.380
12/24/2013  23:41:00     -104.344      -45.172      -14.953        9.183       11.137        8.762       84.331      124.034       76.776        0.672        0.014      113.703        6.500        0.003      332.369        0.984      874.381
12/24/2013  23:42:00      -84.435      -52.351       -5.907       12.822       13.082        9.381      164.397      171.151       88.011        0.516        0.021       99.348        6.573        0.004      332.317        0.899      874.377
12/24/2013  23:43:00      -75.213      -39.784      -13.644        9.475       10.443        6.799       89.784      109.053       46.231        0.384        0.012       85.087        3.736        0.002      332.315        0.899      874.383
12/24/2013  23:44:00      -80.919      -35.553      -11.306        8.929        8.205        7.126       79.728       67.321       50.779        0.407        0.010       88.385        2.029        0.001      332.500        1.202      874.395
12/24/2013  23:45:00      -72.571      -31.311       -5.936       10.451        7.965        5.836      109.227       63.438       34.058        0.324        0.010       79.037        4.917        0.004      332.551        1.286      874.388
12/24/2013  23:46:00      -65.671      -25.903       -8.126        9.746        6.855        6.062       94.977       46.987       36.752        0.261        0.009       70.595        2.542        0.001      332.441        1.105      874.386
12/24/2013  23:47:00      -68.597      -22.174       -4.561       11.255        7.694        5.442      126.668       59.190       29.612        0.272        0.011       72.092        5.821        0.007      332.394        1.027      874.377
12/24/2013  23:48:00      -63.527      -21.434       -6.141        9.474        8.673        7.148       89.755       75.218       51.088        0.237        0.011       67.045        6.534        0.009      332.433        1.092      874.356
12/24/2013  23:49:00      -66.594      -24.911      -11.033        9.826        4.926        4.938       96.548       24.266       24.385        0.266        0.007       71.101        3.953        0.003      332.497        1.197      874.339
12/24/2013  23:50:00      -43.781      -18.609      -12.190        5.054        6.439        4.061       25.540       41.456       16.493        0.125        0.004       47.572        1.956        0.002      332.477        1.165      874.327
12/24/2013  23:51:00      -54.708       -3.644      -12.219       13.306        7.022        7.599      177.052       49.309       57.750        0.172        0.014       54.829        6.087        0.012      332.558        1.297      874.311
12/24/2013  23:52:00      -55.002      -11.576      -12.823       10.132        5.899        6.825      102.664       34.796       46.576        0.175        0.009       56.207        5.467        0.009      332.431        1.089      874.294
12/24/2013  23:53:00      -67.594      -19.926      -15.229        8.484        9.643        7.279       71.979       92.997       52.984        0.271        0.011       70.470        4.007        0.003      332.351        0.957      874.274
12/24/2013  23:54:00      -66.498      -26.142      -12.842        7.990       10.404        5.016       63.848      108.243       25.157        0.273        0.010       71.452        3.667        0.003      332.289        0.852      874.272
12/24/2013  23:55:00      -72.728      -19.681      -14.298       10.201       13.148        7.337      104.060      172.881       53.832        0.311        0.017       75.344        6.628        0.008      332.286        0.848      874.287
12/24/2013  23:56:00      -80.891      -10.961      -12.665       17.303       14.149        9.599      299.395      200.201       92.146        0.371        0.030       81.630        9.614        0.014      332.295        0.863      874.298
12/24/2013  23:57:00     -102.208       -5.590      -13.575       15.062       12.452       12.759      226.857      155.050      162.800        0.560        0.027      102.361       10.968        0.011      332.258        0.804      874.300
12/24/2013  23:58:00     -110.017        4.113      -19.784       21.142        9.354        7.892      446.983       87.491       62.284        0.655        0.030      110.094        4.462        0.002      332.232        0.762      874.287
12/24/2013  23:59:00      -97.015       -7.074      -13.039       21.768        9.549        8.569      473.829       91.185       73.425        0.514        0.032       97.272        8.045        0.007      332.214        0.732      874.281
